[[{"header":{"parameterUnit":"m.s-1","parameterCategory":1,"la1":31.0,"la2":29.5877,"lo1":-88.7671,"lo2":-86.6584,"dy":0.0162,"dx":0.0185,"nx":115,"ny":88,"refTime":"2026-03-13T12:00:00:Z","depth":0,"parameterNumber":2,"parameterNumberName":"U-component_of_WINDS"},"data":[0.0,0.0,0.0,0.0,0.0,0.0,0.0,0.0,0.0,0.0,0.0,0.0,0.0,0.0,0.0,0.0,0.0,0.0,0.0,0.0,0.0,0.0,0.0,0.0,0.0,0.0,0.0,0.0,0.0,0.0,0.0,0.0,0.0,0.0,0.0,0.0,0.0,0.0,0.0,0.0,0.0,0.0,0.0,0.0,0.0,0.0,0.0,0.0,0.0,0.0,0.0,0.0,0.0,0.0,0.0,0.0,0.0,0.0,0.0,0.0,0.0,0.0,0.0,0.0,0.0,0.0,0.0,0.0,0.0,0.0,0.0,0.0,0.0,0.0,0.0,0.0,0.0,0.0,0.0,0.0,0.0,0.0,0.0,0.0,0.0,0.0,0.0,0.0,0.0,0.0,0.0,0.0,0.0,0.0,0.0,0.0,0.0,0.0,0.0,0.0,0.0,0.0,0.0,0.0,0.0,0.0,0.0,0.0,0.0,0.0,0.0,0.0,0.0,0.0,0.0,0.0,0.0,0.0,0.0,0.0,0.0,0.0,0.0,0.0,0.0,0.0,0.0,0.0,0.0,0.0,0.0,0.0,0.0,0.0,0.0,0.0,0.0,0.0,0.0,0.0,0.0,0.0,0.0,0.0,0.0,0.0,0.0,0.0,0.0,0.0,0.0,0.0,0.0,0.0,0.0,0.0,0.0,0.0,0.0,0.0,0.0,0.0,0.0,0.0,0.0,0.0,0.0,0.0,0.0,0.0,0.0,0.0,0.0,0.0,0.0,0.0,0.0,0.0,0.0,0.0,0.0,0.0,0.0,0.0,0.0,0.0,0.0,0.0,0.0,0.0,0.0,0.0,0.0,0.0,0.0,0.0,0.0,0.0,0.0,0.0,0.0,0.0,0.0,0.0,0.0,0.0,0.0,0.0,0.0,0.0,0.0,0.0,0.0,0.0,0.0,0.0,0.0,0.0,0.0,0.0,0.0,0.0,0.0,0.0,0.0,0.0,0.0,0.0,0.0,0.0,0.0,0.0,0.0,0.0,0.0,0.0,0.0,0.0,0.0,0.0,0.0,0.0,0.0,0.0,0.0,0.0,0.0,0.0,0.0,0.0,0.0,0.0,0.0,0.0,0.0,0.0,0.0,0.0,0.0,0.0,0.0,0.0,0.0,0.0,0.0,0.0,0.0,0.0,0.0,0.0,0.0,0.0,0.0,0.0,0.0,0.0,0.0,0.0,0.0,0.0,0.0,0.0,0.0,0.0,0.0,0.0,0.0,0.0,0.0,0.0,0.0,0.0,0.0,0.0,0.0,0.0,0.0,0.0,0.0,0.0,0.0,0.0,0.0,0.0,0.0,0.0,0.0,0.0,0.0,0.0,0.0,0.0,0.0,0.0,0.0,0.0,0.0,0.0,0.0,0.0,0.0,0.0,0.0,0.0,0.0,0.0,0.0,0.0,0.0,0.0,0.0,0.0,0.0,0.0,0.0,0.0,0.0,0.0,0.0,0.0,0.0,0.0,0.0,0.0,0.0,0.0,0.0,0.0,0.0,0.0,0.0,0.0,0.0,0.0,0.0,0.0,0.0,0.0,0.0,0.0,0.0,0.0,0.0,0.0,0.0,0.0,0.0,0.0,0.0,0.0,0.0,0.0,0.0,0.0,0.0,0.0,0.0,0.0,0.0,0.0,0.0,0.0,0.0,0.0,0.0,0.0,0.0,0.0,0.0,0.0,0.0,0.0,0.0,0.0,0.0,0.0,0.0,0.0,0.0,0.0,0.0,0.0,0.0,0.0,0.0,0.0,0.0,0.0,0.0,0.0,0.0,0.0,0.0,0.0,0.0,0.0,0.0,0.0,0.0,0.0,0.0,0.0,0.0,0.0,0.0,0.0,0.0,0.0,0.0,0.0,0.0,0.0,0.0,0.0,0.0,0.0,0.0,0.0,0.0,0.0,0.0,0.0,0.0,0.0,0.0,0.0,0.0,0.0,0.0,0.0,0.0,0.0,0.0,0.0,0.0,0.0,0.0,0.0,0.0,0.0,0.0,0.0,0.0,0.0,0.0,0.0,0.0,0.0,0.0,0.0,0.0,0.0,0.0,0.0,0.0,0.0,0.0,0.0,0.0,0.0,0.0,0.0,0.0,0.0,0.0,0.0,0.0,0.0,0.0,0.0,0.0,0.0,0.0,0.0,0.0,0.0,0.0,0.0,0.0,0.0,0.0,0.0,0.0,0.0,0.0,0.0,0.0,0.0,0.0,0.0,0.0,0.0,0.0,0.0,0.0,0.0,0.0,0.0,0.0,0.0,0.0,0.0,0.0,0.0,0.0,0.0,0.0,0.0,0.0,0.0,0.0,0.0,0.0,0.0,0.0,0.0,0.0,0.0,0.0,0.0,0.0,0.0,0.0,0.0,0.0,0.0,0.0,0.0,0.0,0.0,0.0,0.0,0.0,0.0,0.0,0.0,0.0,0.0,0.0,0.0,0.0,0.0,0.0,0.0,0.0,0.0,0.0,0.0,0.0,0.0,0.0,0.0,0.0,0.0,0.0,0.0,0.0,0.0,0.0,0.0,0.0,0.0,0.0,0.0,0.0,0.0,0.0,0.0,0.0,0.0,0.0,0.0,0.0,0.0,0.0,0.0,0.0,0.0,0.0,0.0,0.0,0.0,0.0,0.0,0.0,0.0,0.0,0.0,0.0,0.0,0.0,0.0,0.0,0.0,0.0,0.0,0.0,0.0,0.0,0.0,0.0,0.0,0.0,0.0,0.0,0.0,0.0,0.0,0.0,0.0,0.0,0.0,0.0,0.0,0.0,0.0,0.0,0.0,0.0,0.0,0.0,0.0,0.0,0.0,0.0,0.0,0.0,0.0,0.0,0.0,0.0,0.0,0.0,0.0,0.0,0.0,0.0,0.0,0.0,0.0,0.0,0.0,0.0,0.0,0.0,0.0,0.0,0.0,0.0,0.0,0.0,0.0,0.0,0.0,0.0,0.0,0.0,0.0,0.0,0.0,0.0,0.0,0.0,0.0,0.0,0.0,0.0,0.0,0.0,0.0,0.0,0.0,0.0,0.0,0.0,0.0,0.0,0.0,0.0,0.0,0.0,0.0,0.0,0.0,0.0,0.0,0.0,0.0,0.0,0.0,0.0,0.0,0.0,0.0,0.0,0.0,0.0,0.0,0.0,0.0,0.0,0.0,0.0,0.0,0.0,0.0,0.0,0.0,0.0,0.0,0.0,0.0,0.0,0.0,0.0,0.0,0.0,0.0,0.0,0.0,0.0,0.0,0.0,0.0,0.0,0.0,0.0,0.0,0.0,0.0,0.0,0.0,0.0,0.0,0.0,0.0,0.0,0.0,0.0,0.0,0.0,0.0,0.0,0.0,0.0,0.0,0.0,0.0,0.0,0.0,0.0,0.0,0.0,0.0,0.0,0.0,0.0,0.0,0.0,0.0,0.0,0.0,0.0,0.0,0.0,0.0,0.0,0.0,0.0,0.0,0.0,0.0,0.0,0.0,0.0,0.0,0.0,0.0,0.0,0.0,0.0,0.0,0.0,0.0,0.0,0.0,0.0,0.0,0.0,0.0,0.0,0.0,0.0,0.0,0.0,0.0,0.0,0.0,0.0,0.0,0.0,0.0,0.0,0.0,0.0,0.0,0.0,0.0,0.0,0.0,0.0,0.0,0.0,0.0,0.0,0.0,0.0,0.0,0.0,0.0,0.0,0.0,0.0,0.0,0.0,0.0,0.0,0.0,0.0,0.0,0.0,0.0,0.0,0.0,0.0,0.0,0.0,0.0,0.0,0.0,0.0,0.0,0.0,0.0,0.0,0.0,0.0,0.0,0.0,0.0,0.0,0.0,0.0,0.0,0.0,0.0,0.0,0.0,0.0,0.0,0.0,0.0,0.0,0.0,0.0,0.0,0.0,0.0,0.0,0.0,0.0,0.0,0.0,0.0,0.0,0.0,0.0,0.0,0.0,0.0,0.0,0.0,0.0,0.0,0.0,0.0,0.0,0.0,0.0,0.0,0.0,0.0,0.0,0.0,0.0,0.0,0.0,0.0,0.0,0.0,0.0,0.0,0.0,0.0,0.0,0.0,0.0,0.0,0.0,0.0,0.0,0.0,0.0,0.0,0.0,0.0,0.0,0.0,0.0,0.0,0.0,0.0,0.0,0.0,0.0,0.0,0.0,0.0,0.0,0.0,0.0,0.0,0.0,0.0,0.0,0.0,0.0,0.0,0.0,0.0,0.0,0.0,0.0,0.0,0.0,0.0,-1.5814,0.0,0.0,0.0,0.0,0.0,0.0,0.0,0.0,0.0,0.0,0.0,0.0,0.0,0.0,0.0,0.0,0.0,0.0,0.0,0.0,0.0,0.0,0.0,0.0,0.0,0.0,0.0,0.0,0.0,0.0,0.0,0.0,0.0,0.0,0.0,0.0,0.0,0.0,0.0,0.0,0.0,0.0,0.0,0.0,0.0,0.0,0.0,0.0,0.0,0.0,0.0,0.0,0.0,0.0,0.0,0.0,0.0,0.0,0.0,0.0,0.0,0.0,0.0,0.0,0.0,0.0,0.0,0.0,0.0,0.0,0.0,0.0,0.0,0.0,0.0,0.0,0.0,0.0,0.0,0.0,0.0,0.0,0.0,0.0,0.0,0.0,0.0,0.0,0.0,0.0,0.0,0.0,0.0,0.0,0.0,0.0,0.0,0.0,0.0,0.0,0.0,0.0,0.0,0.0,0.0,0.0,0.0,0.0,0.0,0.0,-1.5814,-1.5814,-1.5814,-1.5814,-1.5814,0.0,0.0,0.0,0.0,0.0,0.0,0.0,0.0,0.0,0.0,0.0,0.0,0.0,0.0,0.0,0.0,0.0,0.0,0.0,0.0,0.0,0.0,0.0,0.0,0.0,0.0,0.0,0.0,0.0,0.0,0.0,0.0,0.0,0.0,0.0,0.0,0.0,0.0,0.0,0.0,0.0,0.0,0.0,0.0,0.0,0.0,0.0,0.0,0.0,0.0,0.0,0.0,0.0,0.0,0.0,0.0,0.0,0.0,0.0,0.0,0.0,0.0,0.0,0.0,0.0,0.0,0.0,0.0,0.0,0.0,0.0,0.0,0.0,0.0,0.0,0.0,0.0,0.0,0.0,0.0,0.0,0.0,0.0,0.0,0.0,0.0,0.0,0.0,0.0,0.0,0.0,0.0,0.0,0.0,0.0,0.0,0.0,0.0,0.0,0.0,0.0,0.0,0.0,0.0,0.0,0.0,0.0,0.0,0.0,0.0,0.0,0.0,-1.6139,-1.6096,-1.6024,0.0,0.0,0.0,0.0,0.0,0.0,0.0,0.0,0.0,0.0,0.0,0.0,0.0,0.0,0.0,0.0,0.0,0.0,0.0,0.0,0.0,0.0,0.0,0.0,0.0,0.0,0.0,0.0,0.0,0.0,0.0,0.0,0.0,0.0,0.0,0.0,0.0,0.0,0.0,0.0,0.0,0.0,0.0,0.0,0.0,0.0,0.0,0.0,0.0,0.0,0.0,0.0,0.0,0.0,0.0,0.0,0.0,0.0,0.0,0.0,0.0,0.0,0.0,0.0,0.0,0.0,0.0,0.0,0.0,0.0,0.0,0.0,0.0,0.0,0.0,0.0,0.0,0.0,0.0,0.0,0.0,0.0,0.0,0.0,0.0,0.0,0.0,0.0,0.0,0.0,0.0,0.0,0.0,0.0,0.0,0.0,0.0,0.0,0.0,0.0,0.0,0.0,0.0,0.0,0.0,0.0,0.0,0.0,0.0,0.0,-1.6878,-1.724,-1.7185,0.0,-1.6697,0.0,0.0,0.0,0.0,0.0,0.0,0.0,0.0,0.0,0.0,0.0,0.0,0.0,0.0,0.0,0.0,0.0,0.0,0.0,0.0,0.0,0.0,0.0,0.0,0.0,0.0,0.0,0.0,0.0,0.0,0.0,0.0,0.0,0.0,0.0,0.0,0.0,0.0,0.0,0.0,0.0,0.0,0.0,0.0,0.0,0.0,0.0,0.0,0.0,0.0,0.0,0.0,0.0,0.0,0.0,0.0,0.0,0.0,0.0,0.0,0.0,0.0,0.0,0.0,0.0,0.0,0.0,0.0,0.0,0.0,0.0,0.0,0.0,0.0,0.0,0.0,0.0,0.0,0.0,0.0,0.0,0.0,0.0,0.0,0.0,0.0,0.0,0.0,0.0,0.0,0.0,0.0,0.0,0.0,0.0,0.0,0.0,0.0,0.0,0.0,0.0,0.0,0.0,0.0,0.0,0.0,0.0,0.0,0.0,0.0,0.0,-1.7702,-1.766,-1.735,0.0,0.0,0.0,0.0,0.0,0.0,0.0,0.0,0.0,0.0,0.0,0.0,0.0,0.0,0.0,0.0,0.0,0.0,0.0,0.0,0.0,0.0,0.0,0.0,0.0,0.0,0.0,0.0,0.0,0.0,0.0,0.0,0.0,0.0,0.0,0.0,0.0,0.0,0.0,0.0,0.0,0.0,0.0,0.0,0.0,0.0,0.0,0.0,0.0,0.0,0.0,0.0,0.0,0.0,0.0,0.0,0.0,0.0,0.0,0.0,0.0,0.0,0.0,0.0,0.0,0.0,0.0,0.0,0.0,0.0,0.0,0.0,0.0,0.0,0.0,0.0,0.0,0.0,0.0,0.0,0.0,0.0,0.0,0.0,0.0,0.0,0.0,0.0,0.0,0.0,0.0,0.0,0.0,0.0,0.0,0.0,0.0,0.0,0.0,0.0,0.0,0.0,0.0,0.0,0.0,0.0,0.0,0.0,0.0,0.0,-1.8126,0.0,-1.8302,-1.8239,-1.7751,-1.6879,0.0,0.0,0.0,0.0,0.0,0.0,0.0,0.0,0.0,0.0,0.0,0.0,0.0,0.0,0.0,0.0,0.0,0.0,0.0,0.0,0.0,0.0,0.0,0.0,0.0,0.0,0.0,0.0,0.0,0.0,0.0,0.0,0.0,0.0,0.0,0.0,0.0,0.0,0.0,0.0,0.0,0.0,0.0,0.0,0.0,0.0,0.0,0.0,0.0,0.0,0.0,0.0,0.0,0.0,0.0,0.0,0.0,0.0,0.0,0.0,0.0,0.0,0.0,0.0,0.0,0.0,0.0,0.0,0.0,0.0,0.0,0.0,0.0,0.0,0.0,0.0,0.0,0.0,0.0,0.0,0.0,0.0,0.0,0.0,0.0,0.0,0.0,0.0,0.0,0.0,0.0,0.0,0.0,0.0,0.0,0.0,0.0,0.0,0.0,0.0,0.0,0.0,0.0,0.0,0.0,0.0,0.0,0.0,0.0,-1.9178,-1.901,-1.9323,-1.9032,-1.8355,0.0,0.0,0.0,0.0,0.0,0.0,0.0,0.0,0.0,0.0,0.0,0.0,0.0,0.0,0.0,0.0,0.0,0.0,0.0,0.0,0.0,0.0,0.0,0.0,0.0,0.0,0.0,0.0,0.0,0.0,0.0,0.0,0.0,0.0,0.0,0.0,0.0,0.0,0.0,0.0,0.0,0.0,0.0,0.0,0.0,0.0,0.0,0.0,0.0,0.0,0.0,0.0,0.0,0.0,0.0,0.0,0.0,0.0,0.0,0.0,0.0,0.0,0.0,0.0,0.0,0.0,0.0,0.0,0.0,0.0,0.0,0.0,0.0,0.0,0.0,0.0,0.0,0.0,0.0,0.0,0.0,0.0,0.0,0.0,0.0,0.0,0.0,0.0,0.0,0.0,0.0,0.0,0.0,0.0,0.0,0.0,0.0,0.0,0.0,0.0,0.0,0.0,0.0,0.0,0.0,0.0,0.0,0.0,0.0,-1.8577,-1.8792,-1.9295,-2.0033,-1.9323,-1.8417,0.0,0.0,0.0,0.0,0.0,0.0,0.0,0.0,0.0,0.0,0.0,0.0,0.0,0.0,0.0,0.0,0.0,0.0,0.0,0.0,0.0,0.0,0.0,0.0,0.0,0.0,0.0,0.0,0.0,0.0,0.0,0.0,0.0,0.0,0.0,0.0,0.0,0.0,0.0,0.0,0.0,0.0,0.0,0.0,0.0,0.0,0.0,0.0,0.0,0.0,0.0,0.0,0.0,0.0,0.0,0.0,0.0,0.0,0.0,0.0,0.0,0.0,0.0,0.0,0.0,0.0,0.0,0.0,0.0,0.0,0.0,0.0,0.0,0.0,0.0,0.0,0.0,0.0,0.0,0.0,0.0,0.0,0.0,0.0,0.0,0.0,0.0,0.0,0.0,0.0,0.0,0.0,0.0,0.0,0.0,0.0,0.0,0.0,0.0,0.0,0.0,0.0,0.0,0.0,0.0,0.0,0.0,0.0,0.0,-1.851,0.0,-1.9879,0.0,-1.9635,-1.8664,0.0,0.0,0.0,0.0,0.0,0.0,0.0,0.0,0.0,0.0,0.0,0.0,0.0,0.0,0.0,0.0,0.0,0.0,0.0,0.0,0.0,0.0,0.0,0.0,0.0,0.0,0.0,0.0,0.0,0.0,0.0,0.0,0.0,0.0,0.0,0.0,0.0,0.0,0.0,0.0,0.0,0.0,0.0,0.0,0.0,0.0,0.0,0.0,0.0,0.0,0.0,0.0,0.0,0.0,0.0,0.0,0.0,0.0,0.0,0.0,0.0,0.0,0.0,0.0,0.0,0.0,0.0,0.0,0.0,0.0,0.0,0.0,0.0,0.0,0.0,0.0,0.0,0.0,0.0,0.0,0.0,0.0,0.0,0.0,0.0,0.0,0.0,0.0,0.0,0.0,0.0,0.0,0.0,0.0,0.0,0.0,0.0,0.0,0.0,0.0,0.0,0.0,0.0,0.0,0.0,0.0,0.0,0.0,-1.8544,-1.99,-2.0733,-2.0775,-2.0086,-1.9985,-1.9123,0.0,0.0,0.0,0.0,0.0,0.0,0.0,0.0,0.0,0.0,0.0,0.0,0.0,0.0,0.0,0.0,0.0,0.0,0.0,0.0,0.0,0.0,0.0,0.0,0.0,0.0,0.0,0.0,0.0,0.0,0.0,0.0,0.0,0.0,0.0,0.0,0.0,0.0,0.0,0.0,0.0,0.0,0.0,0.0,0.0,0.0,0.0,0.0,0.0,0.0,0.0,0.0,0.0,0.0,0.0,0.0,0.0,0.0,0.0,0.0,0.0,0.0,0.0,0.0,0.0,0.0,0.0,0.0,0.0,0.0,0.0,0.0,0.0,0.0,0.0,0.0,0.0,0.0,0.0,0.0,0.0,0.0,0.0,0.0,0.0,0.0,0.0,0.0,0.0,0.0,0.0,0.0,0.0,0.0,0.0,0.0,0.0,0.0,0.0,0.0,0.0,0.0,0.0,0.0,0.0,0.0,0.0,0.0,0.0,-1.927,-2.0513,-2.1343,-2.1519,-2.0061,-1.9143,0.0,0.0,0.0,0.0,0.0,0.0,0.0,0.0,0.0,0.0,0.0,0.0,0.0,0.0,0.0,0.0,0.0,0.0,0.0,0.0,0.0,0.0,0.0,0.0,0.0,0.0,0.0,0.0,0.0,0.0,0.0,0.0,0.0,0.0,0.0,0.0,0.0,0.0,0.0,0.0,0.0,0.0,0.0,0.0,0.0,0.0,0.0,0.0,0.0,0.0,0.0,0.0,0.0,0.0,0.0,0.0,0.0,0.0,0.0,0.0,0.0,0.0,0.0,0.0,0.0,0.0,0.0,0.0,0.0,0.0,0.0,0.0,0.0,0.0,0.0,0.0,0.0,0.0,0.0,0.0,0.0,0.0,0.0,0.0,0.0,0.0,0.0,0.0,0.0,0.0,0.0,0.0,0.0,0.0,0.0,0.0,0.0,0.0,0.0,0.0,0.0,0.0,0.0,0.0,0.0,0.0,0.0,0.0,0.0,-2.1072,-2.1935,-2.2527,-2.2699,-2.1059,-2.0035,-1.9788,0.0,0.0,0.0,0.0,0.0,0.0,0.0,0.0,0.0,0.0,0.0,0.0,0.0,0.0,0.0,0.0,0.0,0.0,0.0,0.0,0.0,0.0,0.0,0.0,0.0,0.0,0.0,0.0,0.0,0.0,0.0,0.0,0.0,0.0,0.0,0.0,0.0,0.0,0.0,0.0,0.0,0.0,0.0,0.0,0.0,0.0,0.0,0.0,0.0,0.0,0.0,0.0,0.0,0.0,0.0,0.0,0.0,0.0,0.0,0.0,0.0,0.0,0.0,0.0,0.0,0.0,0.0,0.0,0.0,0.0,0.0,0.0,0.0,0.0,0.0,0.0,0.0,0.0,0.0,0.0,0.0,0.0,0.0,0.0,0.0,0.0,0.0,0.0,0.0,0.0,0.0,0.0,0.0,0.0,0.0,0.0,0.0,0.0,0.0,0.0,0.0,0.0,0.0,0.0,0.0,0.0,0.0,0.0,-2.4728,-2.4829,-2.4508,-2.3697,-2.2818,-2.1688,0.0,0.0,0.0,0.0,0.0,0.0,0.0,0.0,0.0,0.0,0.0,0.0,0.0,0.0,0.0,0.0,0.0,0.0,0.0,0.0,0.0,0.0,0.0,0.0,0.0,0.0,0.0,0.0,0.0,0.0,0.0,0.0,0.0,0.0,0.0,0.0,0.0,0.0,0.0,0.0,0.0,0.0,0.0,0.0,0.0,0.0,0.0,0.0,0.0,0.0,0.0,0.0,0.0,0.0,0.0,0.0,0.0,0.0,0.0,0.0,0.0,0.0,0.0,0.0,0.0,0.0,0.0,0.0,0.0,0.0,0.0,0.0,0.0,0.0,0.0,0.0,0.0,0.0,0.0,0.0,0.0,0.0,0.0,0.0,0.0,0.0,0.0,0.0,0.0,0.0,0.0,0.0,0.0,0.0,0.0,0.0,0.0,0.0,0.0,0.0,0.0,0.0,0.0,0.0,0.0,0.0,0.0,0.0,0.0,-2.7774,-2.8891,-2.8552,-2.6674,-2.4357,-2.2936,0.0,0.0,0.0,0.0,0.0,0.0,0.0,0.0,0.0,0.0,0.0,0.0,0.0,0.0,0.0,0.0,0.0,0.0,0.0,0.0,0.0,0.0,0.0,0.0,0.0,0.0,0.0,0.0,0.0,0.0,0.0,0.0,0.0,0.0,0.0,0.0,0.0,0.0,0.0,0.0,0.0,0.0,0.0,0.0,0.0,0.0,0.0,0.0,0.0,0.0,0.0,0.0,0.0,0.0,0.0,0.0,0.0,0.0,0.0,0.0,0.0,0.0,0.0,0.0,0.0,0.0,0.0,0.0,0.0,0.0,0.0,0.0,0.0,0.0,0.0,0.0,0.0,0.0,0.0,0.0,0.0,0.0,0.0,0.0,0.0,0.0,0.0,0.0,0.0,0.0,0.0,0.0,0.0,0.0,0.0,0.0,0.0,0.0,0.0,0.0,0.0,0.0,0.0,0.0,0.0,0.0,0.0,0.0,-2.7638,-2.9871,-3.136,-3.1495,-3.0173,-2.73,-2.5151,0.0,0.0,0.0,0.0,0.0,0.0,0.0,0.0,0.0,0.0,0.0,0.0,0.0,0.0,0.0,0.0,0.0,0.0,0.0,0.0,0.0,0.0,0.0,0.0,0.0,0.0,0.0,0.0,0.0,0.0,0.0,0.0,0.0,0.0,0.0,0.0,0.0,0.0,0.0,0.0,0.0,0.0,0.0,0.0,0.0,0.0,0.0,0.0,0.0,0.0,0.0,0.0,0.0,0.0,0.0,0.0,0.0,0.0,0.0,0.0,0.0,0.0,0.0,0.0,0.0,0.0,0.0,0.0,0.0,0.0,0.0,0.0,0.0,0.0,0.0,0.0,0.0,0.0,0.0,0.0,0.0,0.0,0.0,0.0,0.0,0.0,0.0,0.0,0.0,0.0,0.0,0.0,0.0,0.0,0.0,0.0,0.0,0.0,0.0,0.0,0.0,0.0,0.0,0.0,0.0,0.0,0.0,0.0,-2.9254,-3.1475,-3.2947,-3.3639,-3.344,-3.0584,-2.7656,0.0,0.0,0.0,0.0,0.0,0.0,0.0,0.0,0.0,0.0,0.0,0.0,0.0,0.0,0.0,0.0,0.0,0.0,0.0,0.0,0.0,0.0,0.0,0.0,0.0,0.0,0.0,0.0,0.0,0.0,0.0,0.0,0.0,0.0,0.0,0.0,0.0,0.0,0.0,0.0,0.0,0.0,0.0,0.0,0.0,0.0,0.0,0.0,0.0,0.0,0.0,0.0,0.0,0.0,0.0,0.0,0.0,0.0,0.0,0.0,0.0,0.0,0.0,0.0,0.0,0.0,0.0,0.0,0.0,0.0,0.0,0.0,0.0,0.0,0.0,0.0,0.0,0.0,0.0,0.0,0.0,0.0,0.0,0.0,0.0,0.0,0.0,0.0,0.0,0.0,0.0,0.0,0.0,0.0,0.0,0.0,0.0,0.0,0.0,0.0,0.0,0.0,0.0,0.0,0.0,0.0,0.0,0.0,-3.1585,-3.3511,-3.5007,-3.5278,-3.4273,-3.0855,-2.8147,0.0,0.0,0.0,0.0,0.0,0.0,0.0,0.0,0.0,0.0,0.0,0.0,0.0,0.0,0.0,0.0,0.0,0.0,0.0,0.0,0.0,0.0,0.0,0.0,0.0,0.0,0.0,0.0,0.0,0.0,0.0,0.0,0.0,0.0,0.0,0.0,0.0,0.0,0.0,0.0,0.0,0.0,0.0,0.0,0.0,0.0,0.0,0.0,-1.393,0.0,0.0,0.0,0.0,0.0,0.0,0.0,0.0,0.0,0.0,0.0,0.0,0.0,0.0,0.0,0.0,0.0,0.0,0.0,0.0,0.0,0.0,0.0,0.0,0.0,0.0,0.0,0.0,0.0,0.0,0.0,0.0,0.0,0.0,0.0,0.0,0.0,0.0,0.0,0.0,0.0,0.0,0.0,0.0,0.0,0.0,0.0,0.0,0.0,0.0,0.0,0.0,0.0,0.0,0.0,0.0,0.0,0.0,0.0,-3.3157,-3.5583,-3.6383,-3.6525,-3.5887,-3.2676,-2.9757,0.0,0.0,0.0,0.0,0.0,0.0,0.0,0.0,0.0,0.0,0.0,0.0,0.0,0.0,0.0,0.0,0.0,0.0,0.0,0.0,0.0,0.0,0.0,0.0,0.0,0.0,0.0,0.0,0.0,0.0,0.0,0.0,0.0,0.0,0.0,0.0,0.0,0.0,0.0,0.0,0.0,0.0,0.0,0.0,0.0,0.0,0.0,0.0,0.0,0.0,0.0,0.0,0.0,0.0,0.0,0.0,0.0,0.0,0.0,0.0,0.0,0.0,0.0,0.0,0.0,0.0,0.0,0.0,0.0,0.0,0.0,0.0,0.0,0.0,0.0,0.0,0.0,0.0,0.0,0.0,0.0,0.0,0.0,0.0,0.0,0.0,0.0,0.0,0.0,0.0,0.0,0.0,0.0,0.0,0.0,0.0,0.0,0.0,0.0,0.0,0.0,0.0,0.0,0.0,0.0,0.0,0.0,-3.1542,-3.4331,-3.7414,-3.7444,-3.7472,-3.754,-3.4701,-3.1518,-2.8113,0.0,0.0,0.0,0.0,0.0,0.0,0.0,0.0,0.0,0.0,0.0,0.0,0.0,0.0,0.0,0.0,0.0,0.0,0.0,0.0,0.0,0.0,0.0,0.0,0.0,0.0,0.0,0.0,0.0,0.0,0.0,0.0,0.0,0.0,0.0,0.0,0.0,0.0,-1.435,-1.6577,0.0,0.0,0.0,0.0,0.0,0.0,0.0,0.0,-1.6302,0.0,0.0,0.0,0.0,0.0,0.0,0.0,0.0,0.0,0.0,0.0,0.0,0.0,0.0,0.0,0.0,0.0,0.0,0.0,0.0,0.0,0.0,0.0,0.0,0.0,0.0,0.0,0.0,0.0,0.0,0.0,0.0,0.0,0.0,0.0,0.0,0.0,0.0,0.0,0.0,0.0,0.0,0.0,0.0,0.0,0.0,0.0,0.0,0.0,0.0,0.0,0.0,0.0,0.0,0.0,0.0,-3.2797,-3.3378,-3.529,-3.8689,-3.8413,-3.8038,-3.7557,-3.4829,-3.1916,-2.8908,0.0,0.0,0.0,0.0,0.0,0.0,0.0,0.0,0.0,0.0,0.0,0.0,0.0,0.0,0.0,0.0,0.0,0.0,0.0,0.0,0.0,0.0,0.0,0.0,0.0,0.0,0.0,0.0,0.0,0.0,0.0,0.0,0.0,0.0,0.0,0.0,0.0,0.0,0.0,-1.8879,-2.0086,0.0,0.0,0.0,0.0,0.0,0.0,0.0,0.0,-1.6968,0.0,0.0,0.0,0.0,0.0,0.0,0.0,0.0,0.0,0.0,0.0,0.0,0.0,0.0,0.0,0.0,0.0,0.0,0.0,0.0,0.0,0.0,0.0,0.0,0.0,0.0,0.0,0.0,0.0,0.0,0.0,0.0,0.0,0.0,0.0,0.0,0.0,0.0,0.0,0.0,0.0,0.0,0.0,0.0,0.0,0.0,0.0,0.0,0.0,0.0,0.0,0.0,0.0,0.0,0.0,-3.3018,-3.5275,-3.779,-4.0609,-4.0147,-3.9423,-3.8611,-3.5409,-3.2199,0.0,0.0,0.0,0.0,0.0,0.0,0.0,0.0,0.0,0.0,0.0,0.0,0.0,0.0,0.0,0.0,0.0,0.0,0.0,0.0,0.0,0.0,0.0,0.0,0.0,0.0,0.0,0.0,0.0,0.0,0.0,0.0,0.0,0.0,0.0,0.0,0.0,0.0,0.0,0.0,-1.9866,-2.0731,-2.0808,0.0,0.0,0.0,0.0,0.0,0.0,-1.8878,-1.8541,0.0,0.0,0.0,0.0,0.0,0.0,0.0,0.0,0.0,0.0,0.0,0.0,0.0,0.0,0.0,0.0,0.0,0.0,0.0,0.0,0.0,0.0,0.0,0.0,0.0,0.0,0.0,0.0,0.0,0.0,0.0,0.0,0.0,0.0,0.0,0.0,0.0,0.0,0.0,0.0,0.0,0.0,0.0,0.0,0.0,0.0,0.0,0.0,0.0,0.0,0.0,0.0,0.0,0.0,0.0,-3.2619,-3.6468,-3.9717,-4.2121,-4.1414,-4.0562,-3.9715,-3.6007,-3.2441,0.0,0.0,0.0,0.0,0.0,0.0,0.0,0.0,0.0,0.0,0.0,0.0,0.0,0.0,0.0,0.0,0.0,0.0,0.0,0.0,0.0,0.0,0.0,0.0,0.0,0.0,0.0,0.0,0.0,0.0,0.0,0.0,0.0,0.0,0.0,0.0,0.0,0.0,0.0,0.0,0.0,-2.1754,-2.1874,-2.1665,0.0,0.0,0.0,0.0,-2.0917,-2.1065,0.0,0.0,0.0,0.0,0.0,0.0,0.0,0.0,0.0,0.0,0.0,0.0,0.0,0.0,0.0,0.0,0.0,0.0,0.0,0.0,0.0,0.0,0.0,0.0,0.0,0.0,0.0,0.0,0.0,0.0,0.0,0.0,0.0,0.0,0.0,0.0,0.0,0.0,0.0,0.0,0.0,0.0,0.0,0.0,0.0,0.0,0.0,0.0,0.0,0.0,0.0,0.0,0.0,0.0,0.0,0.0,-3.2528,-3.5932,-3.9166,-4.2067,-4.105,-4.0312,-4.0166,-3.6301,-3.2751,0.0,0.0,0.0,0.0,0.0,0.0,0.0,0.0,0.0,0.0,0.0,0.0,0.0,0.0,0.0,0.0,0.0,0.0,0.0,0.0,0.0,0.0,0.0,0.0,0.0,0.0,0.0,0.0,0.0,0.0,0.0,0.0,0.0,0.0,0.0,0.0,0.0,0.0,0.0,0.0,0.0,-2.4448,-2.2808,-2.3468,-2.3917,0.0,0.0,0.0,-2.4747,-2.4955,0.0,0.0,0.0,0.0,0.0,0.0,0.0,0.0,0.0,0.0,0.0,0.0,0.0,0.0,0.0,0.0,0.0,0.0,0.0,0.0,0.0,0.0,0.0,0.0,0.0,0.0,0.0,0.0,0.0,0.0,0.0,0.0,0.0,0.0,0.0,0.0,0.0,0.0,0.0,0.0,0.0,0.0,0.0,0.0,0.0,0.0,0.0,0.0,0.0,0.0,0.0,0.0,0.0,0.0,0.0,-2.9824,-3.3293,-3.7404,-4.0653,-4.2855,-4.1969,-4.1069,-4.0294,-3.6468,-3.2942,0.0,0.0,0.0,0.0,0.0,0.0,0.0,0.0,0.0,0.0,0.0,0.0,0.0,0.0,0.0,0.0,0.0,0.0,0.0,0.0,0.0,0.0,0.0,0.0,0.0,0.0,0.0,0.0,0.0,0.0,0.0,0.0,0.0,0.0,0.0,0.0,0.0,0.0,0.0,0.0,0.0,0.0,-2.4403,-2.5151,0.0,0.0,0.0,-2.5937,-2.6138,0.0,0.0,0.0,0.0,0.0,0.0,0.0,0.0,0.0,0.0,0.0,0.0,0.0,0.0,0.0,0.0,0.0,0.0,0.0,0.0,0.0,0.0,0.0,0.0,0.0,0.0,0.0,0.0,0.0,0.0,0.0,0.0,0.0,0.0,0.0,0.0,0.0,0.0,0.0,0.0,0.0,0.0,0.0,0.0,0.0,0.0,0.0,0.0,0.0,0.0,0.0,0.0,0.0,0.0,0.0,0.0,0.0,-3.3825,-3.8634,-4.1882,-4.3387,-4.2727,-4.1731,-4.0472,-3.7011,0.0,0.0,0.0,0.0,0.0,0.0,0.0,0.0,0.0,0.0,0.0,0.0,0.0,0.0,0.0,0.0,0.0,0.0,0.0,0.0,0.0,0.0,0.0,0.0,0.0,0.0,0.0,-0.9061,0.0,0.0,0.0,0.0,0.0,0.0,0.0,0.0,0.0,0.0,0.0,0.0,0.0,0.0,-2.5277,-2.5779,-2.6707,-2.7171,0.0,0.0,-2.7929,-2.7435,-2.8049,-2.7485,0.0,0.0,0.0,0.0,0.0,0.0,0.0,0.0,0.0,0.0,0.0,0.0,0.0,0.0,0.0,0.0,0.0,0.0,0.0,0.0,0.0,0.0,0.0,0.0,0.0,0.0,0.0,0.0,0.0,0.0,0.0,0.0,0.0,0.0,0.0,0.0,0.0,0.0,0.0,0.0,0.0,0.0,0.0,0.0,0.0,0.0,0.0,0.0,0.0,0.0,0.0,0.0,0.0,0.0,0.0,-3.3844,-3.8615,-4.1882,-4.3404,-4.2708,-4.1902,-4.1044,-3.8198,-3.4709,0.0,0.0,0.0,0.0,0.0,0.0,0.0,0.0,0.0,0.0,0.0,0.0,0.0,0.0,0.0,0.0,0.0,0.0,0.0,0.0,0.0,0.0,0.0,0.0,0.0,0.0,0.0,0.0,0.0,0.0,0.0,0.0,0.0,0.0,0.0,0.0,0.0,0.0,0.0,0.0,0.0,-2.6467,-2.6527,-2.8158,-2.9355,0.0,0.0,-2.9457,-2.9412,-3.0432,-2.9717,-2.5262,0.0,0.0,0.0,0.0,0.0,0.0,0.0,0.0,0.0,0.0,0.0,0.0,0.0,0.0,0.0,0.0,0.0,0.0,0.0,0.0,0.0,0.0,0.0,0.0,0.0,0.0,0.0,0.0,0.0,0.0,0.0,0.0,0.0,0.0,0.0,0.0,0.0,0.0,0.0,0.0,0.0,0.0,0.0,0.0,0.0,0.0,0.0,0.0,0.0,0.0,0.0,0.0,0.0,-3.1072,-3.3807,-3.8615,-4.1882,-4.3404,-4.2708,-4.1919,-4.1113,-3.8585,-3.5193,0.0,0.0,0.0,0.0,0.0,0.0,0.0,0.0,0.0,0.0,0.0,0.0,0.0,0.0,0.0,0.0,0.0,0.0,0.0,0.0,0.0,0.0,0.0,0.0,0.0,0.0,0.0,0.0,-1.4257,-1.4378,-1.3728,0.0,0.0,0.0,0.0,0.0,0.0,0.0,0.0,0.0,0.0,-2.7171,-2.8771,-2.9669,0.0,0.0,-3.0791,-3.0791,-3.0748,-3.0522,-2.916,-2.5779,-2.4433,0.0,0.0,0.0,0.0,0.0,0.0,0.0,0.0,0.0,0.0,0.0,0.0,0.0,0.0,0.0,0.0,0.0,0.0,0.0,0.0,0.0,0.0,0.0,0.0,0.0,0.0,0.0,0.0,0.0,0.0,0.0,0.0,0.0,0.0,0.0,0.0,0.0,0.0,0.0,0.0,0.0,0.0,0.0,0.0,0.0,0.0,0.0,0.0,0.0,0.0,0.0,0.0,-3.1384,-3.3788,-3.8618,-4.1882,-4.346,-4.2947,-4.2176,-4.1095,-3.9221,-3.5996,0.0,0.0,0.0,0.0,0.0,0.0,0.0,0.0,0.0,0.0,0.0,0.0,0.0,0.0,0.0,0.0,0.0,0.0,0.0,0.0,0.0,0.0,0.0,0.0,0.0,0.0,0.0,0.0,-1.6199,-1.5765,-1.4855,0.0,0.0,0.0,0.0,0.0,0.0,0.0,0.0,0.0,0.0,-2.7769,-3.0148,-3.0672,-3.0957,-3.1436,-3.1331,-3.1212,-3.1197,-3.0462,-2.8966,-2.6333,0.0,0.0,0.0,0.0,0.0,0.0,0.0,0.0,0.0,0.0,0.0,0.0,0.0,0.0,0.0,0.0,0.0,0.0,0.0,0.0,0.0,0.0,0.0,0.0,0.0,0.0,0.0,0.0,0.0,0.0,-2.4199,0.0,0.0,0.0,0.0,0.0,0.0,0.0,0.0,0.0,0.0,0.0,0.0,0.0,0.0,0.0,0.0,0.0,0.0,0.0,0.0,0.0,0.0,0.0,-3.3825,-3.8634,-4.1882,-4.3424,-4.3461,-4.269,-4.1168,-4.0286,-3.7236,-3.1701,0.0,0.0,0.0,0.0,0.0,0.0,0.0,0.0,0.0,0.0,0.0,0.0,0.0,0.0,0.0,0.0,0.0,0.0,0.0,0.0,0.0,0.0,0.0,0.0,0.0,0.0,-1.7287,-1.622,-1.531,0.0,0.0,0.0,0.0,0.0,0.0,0.0,0.0,0.0,0.0,-2.6318,-2.8304,-3.0253,-3.1062,-3.1496,-3.1525,-3.0957,-3.0552,-3.0582,-3.0492,-2.9594,0.0,0.0,0.0,0.0,0.0,0.0,0.0,0.0,0.0,0.0,0.0,0.0,0.0,0.0,0.0,0.0,0.0,0.0,0.0,0.0,0.0,0.0,0.0,0.0,0.0,0.0,0.0,-2.942,-2.8227,0.0,0.0,0.0,0.0,0.0,0.0,0.0,0.0,0.0,0.0,0.0,-3.4284,-3.4812,0.0,0.0,0.0,0.0,0.0,0.0,0.0,0.0,0.0,0.0,0.0,0.0,-3.2192,-3.4674,-3.8875,-4.1901,-4.3424,-4.3479,-4.2983,-4.1937,-4.0598,-3.6814,-3.0273,0.0,0.0,0.0,0.0,0.0,0.0,0.0,0.0,0.0,0.0,0.0,0.0,0.0,0.0,0.0,0.0,0.0,0.0,0.0,0.0,0.0,0.0,0.0,0.0,0.0,-1.7482,0.0,0.0,0.0,0.0,0.0,0.0,0.0,0.0,0.0,0.0,0.0,-2.4021,-2.6291,-2.7959,-2.9651,-3.1569,-3.2019,-3.2153,0.0,0.0,0.0,0.0,0.0,0.0,0.0,0.0,0.0,0.0,0.0,0.0,0.0,0.0,-2.8697,-2.4458,-2.2992,-2.2685,-2.3462,0.0,0.0,0.0,0.0,0.0,0.0,0.0,0.0,0.0,0.0,0.0,0.0,0.0,0.0,-3.3406,0.0,-3.1995,0.0,0.0,0.0,0.0,0.0,0.0,0.0,0.0,-3.6358,-3.8102,-3.8414,-3.8943,-3.8909,0.0,-3.6454,-3.377,0.0,0.0,0.0,0.0,0.0,0.0,0.0,0.0,-3.3018,-3.55,-3.9444,-4.2158,-4.3406,-4.3479,-4.3111,-4.2286,-3.9894,-3.6025,-3.0654,-2.7166,-2.4424,0.0,0.0,0.0,0.0,0.0,0.0,0.0,0.0,0.0,0.0,0.0,0.0,0.0,0.0,0.0,0.0,0.0,0.0,0.0,0.0,0.0,0.0,0.0,-1.8954,0.0,0.0,0.0,0.0,0.0,0.0,0.0,0.0,0.0,-2.1755,-2.3738,-2.6024,-2.8333,-2.9377,-3.0447,-3.1929,0.0,0.0,0.0,0.0,0.0,0.0,0.0,-3.0028,-3.0223,-2.9564,-2.8918,-2.8663,-3.0223,-3.133,-3.0642,0.0,0.0,-2.7814,-2.6467,-2.6189,-2.6877,-2.734,-2.7694,-2.7904,-2.9026,-2.9834,0.0,0.0,0.0,0.0,0.0,0.0,0.0,0.0,-3.7212,-3.6989,0.0,-3.5646,0.0,0.0,0.0,0.0,0.0,0.0,0.0,0.0,-4.1605,-4.313,-4.247,-4.2451,-4.2433,-4.2415,-4.1535,-3.9918,-3.7364,-3.1323,0.0,0.0,0.0,0.0,0.0,0.0,-3.3917,-3.6413,-4.0267,-4.2671,-4.3442,-4.3479,-4.3094,-4.2196,-3.8382,-3.5207,-3.2825,-3.0335,-2.7674,-2.4777,-2.3122,0.0,0.0,0.0,0.0,0.0,0.0,0.0,0.0,0.0,0.0,0.0,0.0,0.0,0.0,0.0,0.0,0.0,0.0,0.0,0.0,-2.0293,0.0,0.0,0.0,0.0,0.0,0.0,0.0,0.0,0.0,0.0,-2.4062,-2.5608,-2.7697,-3.0278,0.0,0.0,0.0,0.0,-3.2557,-3.2542,-3.2542,-3.2587,-3.2557,-3.2467,-3.2258,-3.1735,0.0,0.0,-3.1076,-3.2332,-3.3051,-3.1135,-3.2497,-3.3619,-3.3544,-3.1749,-3.0702,-3.1256,-3.0567,-3.0071,-3.0597,-3.1794,-3.2706,-4.6663,0.0,0.0,0.0,0.0,-4.2299,-4.331,-4.4553,-4.4258,-4.3137,-4.1368,-4.0579,0.0,0.0,0.0,0.0,0.0,0.0,-3.9056,-4.1001,-4.3314,-4.4838,-4.5718,-4.5737,-4.5718,-4.5663,-4.4324,-4.302,-4.166,-3.819,-3.399,-2.9255,0.0,0.0,0.0,0.0,-3.6174,-3.8046,-4.0855,-4.269,-4.3479,-4.3479,-4.2837,-4.148,-3.9745,-3.74,-3.4355,-3.2012,-2.9847,-2.7776,-2.4746,0.0,0.0,0.0,0.0,0.0,0.0,0.0,0.0,0.0,0.0,0.0,0.0,0.0,0.0,0.0,0.0,0.0,0.0,0.0,-1.9541,-2.0615,-2.0886,0.0,0.0,0.0,0.0,0.0,0.0,0.0,0.0,0.0,-2.7801,-2.9073,-3.0282,0.0,0.0,-3.2534,-3.2257,-3.3185,-3.3754,-3.329,0.0,0.0,0.0,-3.2826,-3.2916,-3.4126,-3.5444,-3.6088,-3.5534,-3.5908,-3.6103,-3.5474,-3.5893,-3.6282,-3.6163,-3.4307,-3.2826,-3.2916,-3.3365,-3.3829,-3.4098,-3.5115,-3.5983,-5.3106,-4.9663,-4.7509,-4.6378,-4.6146,-4.674,-4.7729,-4.888,-4.8656,-4.7752,-4.6305,-4.5168,-4.2508,-3.8765,-3.7019,0.0,0.0,0.0,-4.1901,-4.4232,-4.5204,-4.6324,-4.7535,-4.7571,-4.7571,-4.748,-4.5957,-4.4929,-4.4415,-4.2011,-3.856,-3.4137,0.0,0.0,-3.3164,-3.5862,-3.8046,-3.9662,-4.1717,-4.3002,-4.3479,-4.3479,-4.2873,-4.1609,-4.058,-3.8736,-3.5954,-3.4023,-3.2056,-2.9927,-2.7165,-2.4864,0.0,0.0,0.0,0.0,0.0,0.0,0.0,0.0,0.0,0.0,0.0,-1.5849,0.0,0.0,0.0,0.0,-1.8527,-2.0078,-2.1245,-2.1769,0.0,0.0,0.0,0.0,0.0,0.0,0.0,-2.6031,-2.8296,-3.0207,-3.1342,-3.2359,-3.2961,-3.2835,-3.3493,-3.3825,-3.3436,0.0,-3.4337,-3.3933,-3.4457,-3.4741,-3.4352,-3.3963,-3.4128,-3.5295,-3.6342,-3.7015,-3.7045,-3.724,-3.7404,-3.7404,-3.7404,-3.7404,-3.7404,-3.6088,-3.5055,-3.5055,-3.5669,-3.6222,-3.6252,-3.7075,-3.7793,-5.8377,-5.7761,-5.1548,-4.9375,-5.0067,-5.0875,-5.1219,-5.1156,-5.1194,-5.1133,-5.0901,-4.9282,-4.7224,-4.4801,-4.1956,0.0,0.0,-4.403,-4.5241,-4.7296,-4.7314,-4.7645,-4.8287,-4.8306,-4.8324,-4.8269,-4.6801,-4.6049,-4.5883,-4.3681,-4.1791,-4.0212,-3.7187,-3.6307,-3.7584,-3.8505,-3.9701,-4.1203,-4.2708,-4.3479,-4.3479,-4.3479,-4.3075,-4.2196,-4.0996,-3.9409,-3.7431,-3.5982,-3.4079,-3.1579,-2.9892,-2.769,-2.4897,0.0,0.0,0.0,0.0,0.0,0.0,0.0,0.0,0.0,0.0,0.0,0.0,0.0,0.0,0.0,-2.1143,0.0,-2.341,-2.3545,0.0,0.0,0.0,-2.4069,-2.4846,-2.681,-2.8365,-2.9179,0.0,0.0,0.0,0.0,-3.5639,-3.5049,-3.4912,-3.4869,-3.4854,-3.4699,-3.4593,-3.4689,-3.5149,-3.5474,-3.5385,-3.5429,-3.5489,-3.5639,-3.6118,-3.6611,-3.6656,-3.703,-3.7375,-3.7404,-3.7449,-3.7509,-3.7494,-3.7464,-3.7554,-3.7509,-3.7479,-3.7464,-3.7464,-3.8003,-3.8467,-5.8858,-5.8165,-5.6549,-5.5626,-5.525,-5.5739,-5.5605,-5.5009,-5.4659,-5.4015,-5.3051,-5.1398,-4.9473,-4.7443,-4.7278,-4.7572,-4.8197,-4.8783,-4.904,-4.8985,-4.9003,-4.8746,-4.8324,-4.8324,-4.8324,-4.8288,-4.7921,-4.7425,-4.6782,-4.5626,-4.4544,-4.3534,-4.2158,-4.0451,-3.856,-4.0414,-4.1625,-4.2029,-4.3001,-4.3479,-4.3479,-4.3479,-4.2818,-4.1425,-4.1086,-3.9921,-3.7844,-3.5972,-3.4528,-3.3477,-3.0607,-2.8383,-2.7063,-2.4189,0.0,0.0,0.0,0.0,0.0,0.0,0.0,0.0,0.0,-1.9278,-1.6637,0.0,-2.0649,0.0,-2.268,-2.4051,-2.4237,-2.4729,0.0,0.0,-2.642,-2.7283,-2.8636,-2.9736,-3.0683,-3.143,-3.3457,-3.4751,-3.4595,-3.6676,-3.7959,-3.7308,-3.6619,-3.6213,-3.6285,-3.5692,-3.5477,-3.592,-3.5742,-3.5489,-3.5534,-3.5938,-3.6207,-3.6252,-3.6761,-3.718,-3.718,-3.73,-3.7404,-3.7434,-3.7838,-3.8108,-3.8123,-3.8571,-3.8835,-3.8916,-3.8527,-3.8153,-3.8167,-3.8691,-3.9155,-6.0165,-5.9435,-5.9415,-5.9146,-5.8654,-5.8143,-5.7538,-5.6919,-5.6662,-5.5942,-5.4839,-5.3031,-5.1152,-4.9481,-4.9884,-5.0086,-5.0178,-5.06,-5.0563,-5.0141,-5.0141,-4.9682,-4.8893,-4.8875,-4.8673,-4.8306,-4.7938,-4.7535,-4.7039,-4.5938,-4.5149,-4.4673,-4.3901,-4.2616,-4.0965,-4.2176,-4.2837,-4.2837,-4.3259,-4.3479,-4.3479,-4.3479,-4.2892,-4.168,-4.1279,-4.0092,-3.7965,-3.6482,-3.4925,-3.3234,-3.0986,-2.9022,-2.7368,-2.5135,-2.3238,0.0,0.0,0.0,0.0,0.0,0.0,0.0,0.0,0.0,0.0,0.0,-2.1969,0.0,-2.4389,-2.576,-2.6437,-2.7182,-2.7874,-2.8619,-2.9347,-3.0142,-3.1004,-3.2019,-3.2949,-3.3677,-3.5165,-3.6228,-3.6566,-3.7982,-3.9007,-3.8923,-3.8198,-3.7702,-3.7607,-3.6729,-3.6134,-3.6492,-3.5975,-3.5489,-3.5489,-3.5804,-3.6043,-3.6103,-3.6582,-3.7015,-3.7015,-3.724,-3.7404,-3.7434,-3.7719,-3.7958,-3.7973,-3.8227,-3.8512,-3.8467,-3.8227,-3.8212,-3.8736,-3.9119,-3.9313,-6.18,-6.1108,-6.1012,-6.0973,-6.0839,-5.93,-5.8397,-5.8012,-5.7878,-5.7301,-5.6351,-5.4317,-5.2667,-5.1343,-5.1171,-5.1114,-5.1114,-5.1114,-5.1059,-5.0967,-5.0967,-5.0527,-4.9757,-4.9647,-4.9187,-4.8453,-4.7645,-4.7204,-4.7039,-4.5663,-4.4893,-4.4673,-4.4011,-4.3606,-4.3497,-4.3479,-4.3479,-4.3479,-4.3479,-4.3479,-4.3479,-4.3479,-4.3057,-4.2176,-4.1387,-3.9979,-3.7941,-3.7008,-3.5219,-3.2406,-3.1446,-2.9799,-2.7233,-2.5708,-2.4205,0.0,-2.1986,0.0,0.0,0.0,0.0,0.0,0.0,0.0,0.0,-2.2953,-2.3731,-2.5084,-2.6454,-2.7842,-2.9179,-2.9956,-3.0632,-3.1275,-3.2107,-3.2615,-3.2767,-3.3931,-3.5081,-3.5785,-3.6586,-3.7608,-3.8693,-3.9056,-3.9419,-3.9834,-3.9439,-3.902,-3.8875,-3.7597,-3.6554,-3.6569,-3.5975,-3.5489,-3.5489,-3.5504,-3.5534,-3.5579,-3.5983,-3.6375,-3.6342,-3.6761,-3.7135,-3.7135,-3.7195,-3.7285,-3.73,-3.736,-3.7434,-3.7494,-3.7479,-3.7793,-3.8706,-3.9005,-3.896,-6.2974,-6.2762,-6.2108,-6.1851,-6.1755,-6.0742,-6.0277,-6.016,-5.9449,-5.8457,-5.7226,-5.5525,-5.4595,-5.4203,-5.3193,-5.2766,-5.2766,-5.2766,-5.2399,-5.1775,-5.1775,-5.1334,-5.0563,-4.9903,-4.9519,-4.9317,-4.8489,-4.7755,-4.7094,-4.6782,-4.5975,-4.4745,-4.4562,-4.414,-4.3533,0.0,0.0,0.0,-4.3479,-4.3479,-4.3479,-4.3479,-4.28,-4.1389,-4.0561,0.0,-3.7647,-3.644,-3.5227,-3.3992,-3.3108,0.0,0.0,0.0,0.0,0.0,0.0,0.0,0.0,0.0,0.0,0.0,-2.7537,-2.6387,-2.4372,-2.6319,-2.8095,-2.8975,-2.9837,-3.0446,-3.077,-3.1447,-3.1955,-3.2107,-3.3292,-3.432,-3.4906,-3.5808,-3.6637,-3.7381,-3.8108,-3.8667,-3.8971,-3.952,-3.9926,-4.0062,-3.9952,-3.9901,-3.9808,-3.7987,-3.6661,-3.6554,-3.6006,-3.5522,-3.5489,-3.5489,-3.5489,-3.5519,-3.5579,-3.5699,-3.5729,-3.5789,-3.5878,-3.5923,-3.6297,-3.6656,-3.6671,-3.706,-3.733,-3.7389,-3.7375,-3.7479,-3.7734,-3.7793,-3.7749,-6.3685,0.0,-6.2858,-6.2685,0.0,-6.18,-6.1435,-6.1377,-6.0512,-5.93,-5.7829,-5.6741,-5.5709,-5.4728,-5.4068,-5.3592,-5.3185,-5.3185,-5.2986,-5.2601,-5.2582,-5.2179,-5.1371,-5.0987,-5.0363,-4.961,-4.917,-4.8508,-4.77,-4.7296,-4.6691,-4.5883,-4.5095,-4.4507,-4.4085,-4.3717,-4.3479,-4.3479,-4.3479,-4.3479,-4.3479,-4.3479,-4.291,-4.1735,0.0,0.0,0.0,0.0,0.0,0.0,0.0,0.0,0.0,0.0,0.0,-2.7859,-2.7825,-2.7791,-2.7825,-2.8519,-2.9245,-3.0042,-3.0415,-2.9687,-2.7435,-2.8991,-3.0398,-3.1106,-3.1549,-3.2056,-3.2763,-3.3491,-3.4104,-3.4527,-3.5504,-3.6349,-3.6698,-3.7094,-3.7635,-3.8311,-3.8768,-3.9123,-3.952,-3.9842,-4.0096,-4.0113,-4.0113,-3.9952,-3.9516,-3.8509,-3.7571,-3.6752,-3.6337,-3.5911,-3.5554,-3.5489,-3.5489,-3.5489,-3.5489,-3.5489,-3.5489,-3.5489,-3.5489,-3.5519,-3.5804,-3.5998,-3.6028,-3.6267,-3.6462,-3.6477,-3.6477,-3.6477,-3.6507,-3.6956,-3.73,-6.4416,-6.3743,-6.3608,-6.3531,-6.3462,-6.2647,-6.2255,-6.2043,0.0,0.0,0.0,-5.7903,-5.6637,-5.4957,-5.4739,-5.4179,-5.3445,-5.3408,-5.3332,-5.3185,-5.3185,-5.2839,-5.2215,-5.205,-5.1224,-4.9829,-4.9665,-4.915,-4.8306,-4.7626,-4.7241,-4.6984,-4.5755,-4.4984,-4.4673,-4.4048,-4.3662,-4.3497,-4.3479,-4.3479,-4.3479,-4.3479,-4.3112,-4.2323,-4.1517,-4.0398,-3.8964,-3.7643,-3.604,-3.4134,-3.3391,-3.2472,-3.1324,-3.108,-3.105,-3.1179,-3.1444,-3.1579,-3.1613,-3.1968,-3.2239,-3.2374,-3.2933,-3.2594,-3.1021,-3.1427,-3.2158,-3.3021,-3.3089,-3.3664,-3.4984,-3.5639,-3.6265,-3.6924,-3.7533,-3.7922,-3.8058,-3.8108,-3.8379,-3.9022,-3.9208,-3.9394,-3.9977,-4.0079,-4.0113,-4.0113,-4.0113,-3.9901,-3.9262,-3.8799,-3.8117,-3.7114,-3.6676,-3.6353,-3.5847,-3.5554,-3.5522,-3.5489,-3.5489,-3.5489,-3.5489,-3.5489,-3.5489,-3.5489,-3.5489,-3.5519,-3.5504,-3.5564,-3.5489,-3.5489,-3.5489,-3.5489,-3.5579,-3.6327,-3.6836,-6.5628,-6.5474,-6.4743,-6.4436,-6.4359,-6.3512,-6.2743,-6.2043,-6.1177,-6.0418,-5.9752,-5.8602,-5.7734,-5.7011,-5.5923,-5.4968,-5.4252,-5.4234,-5.3867,0.0,-5.3185,-5.3151,-5.3004,-5.2325,-5.1518,-5.0618,-4.9939,-4.9132,-4.8379,-4.8196,-4.7791,-4.7168,-4.6874,-4.6067,-4.4819,-4.4599,-4.4195,-4.3533,-4.3479,-4.3479,-4.3479,-4.3479,-4.3111,-4.2323,-4.1517,-4.0673,-3.9753,-3.9478,-3.8634,-3.7014,-3.6692,-3.5581,-3.344,-3.2579,-3.1831,-3.1345,-3.2391,-3.3085,-3.3152,-3.4895,-3.6288,-3.6891,-3.706,-3.6214,-3.41,-3.3964,-3.4624,-3.5966,-3.6051,-3.6508,-3.7313,-3.7466,-3.7601,-3.7719,-3.7855,-3.8142,-3.8751,-3.8836,-3.9114,-3.9791,-3.9943,-3.9926,-4.0062,-4.0113,-4.0113,-4.0113,-4.0113,-4.0045,-3.9731,-3.8761,-3.7962,-3.7602,-3.7024,-3.6615,-3.6337,-3.5894,-3.5619,-3.5489,-3.5489,-3.5489,-3.5489,-3.5489,-3.5489,-3.5489,-3.5489,-3.5489,-3.5489,-3.5489,-3.5489,-3.5489,-3.5489,-3.5489,-3.5489,-3.5744,-3.5804,-6.5878,-6.5859,-6.5455,-6.5301,-6.5224,-6.4378,-6.3262,-6.2101,-6.1666,-6.0955,-6.005,-5.9195,-5.8331,-5.7464,-5.6608,-5.5812,-5.5042,-5.5042,-5.4601,-5.3885,-5.3867,-5.3628,-5.3167,-5.2821,-5.2215,-5.1426,-5.0637,-4.9811,-4.9022,-4.8545,-4.8085,-4.7736,-4.7314,-4.6507,-4.5406,-4.4911,-4.4507,-4.4158,-4.3718,-4.3479,-4.3479,-4.3479,-4.3331,-4.2947,-4.2176,-4.1589,-4.1203,-4.0359,-3.9551,-3.8833,-3.8338,-3.7485,-3.6288,-3.5801,-3.5352,-3.4893,-3.5487,-3.5842,-3.5842,-3.6806,-3.7533,-3.7889,-3.7898,-3.7483,-3.6434,-3.6349,-3.6637,-3.733,-3.7381,-3.7533,-3.7889,-3.8261,-3.8497,-3.8497,-3.8819,-3.9233,-3.9537,-3.9605,-3.974,-4.0045,-4.0113,-4.0113,-4.0113,-4.0113,-4.0113,-4.0113,-4.0113,-4.0113,-4.0113,-3.9523,-3.887,-3.8469,-3.8072,-3.7467,-3.6783,-3.6353,-3.5943,-3.5587,-3.5489,-3.5489,-3.5489,-3.5489,-3.5522,-3.5489,-3.5489,-3.5489,-3.5489,-3.5489,-3.5489,-3.5489,-3.5489,-3.5489,-3.5489,-3.5489,-3.5489,-6.5878,-6.5878,-6.5878,-6.5878,-6.5801,-6.4974,-6.3839,-6.2678,-6.2274,-6.1512,-6.0542,-5.9852,-5.8962,-5.7938,-5.7447,-5.6783,-5.6083,-5.5915,-5.5427,-5.4711,-5.4491,-5.4069,-5.3518,-5.3277,-5.2784,-5.2013,-5.1353,-5.0545,-4.9629,-4.8912,-4.8489,-4.8269,-4.7663,-4.6966,-4.6177,-4.5553,-4.5058,-4.469,-4.4085,-4.3698,-4.3497,-4.3479,-4.3479,-4.3442,-4.291,-4.258,-4.2506,-4.1368,-4.0616,-4.0432,-3.9747,-3.9149,-3.8784,-3.8528,-3.8297,-3.8116,-3.8112,-3.8227,-3.8379,-3.8396,-3.8396,-3.8396,-3.8396,-3.8396,-3.8396,-3.8396,-3.8311,-3.8193,-3.8159,-3.8227,-3.8481,-3.8903,-3.9266,-3.9276,-3.9757,-4.0028,-4.0096,-4.0113,-4.0113,-4.0113,-4.0113,-4.0113,-4.0113,-4.0113,-4.0113,-4.0113,-4.0113,-4.0113,-4.0113,-4.0113,-3.9808,-3.9342,-3.9016,-3.8481,-3.7306,-3.6948,-3.6661,-3.607,-3.6085,-3.6053,-3.5958,-3.5894,-3.5765,-3.5701,-3.5701,-3.5668,-3.5554,-3.5489,-3.5489,-3.5489,-3.5489,-3.5489,-3.5489,-3.5489,-3.5489,-6.5878,-6.5878,-6.5878,-6.5878,-6.5801,-6.4993,-6.4493,-6.4147,-6.2781,-6.207,-6.1773,-6.0613,-5.9754,-5.9207,-5.8704,-5.8035,-5.7289,-5.6882,-5.6271,-5.5445,-5.473,-5.4363,-5.4179,-5.3573,-5.2784,-5.2087,-5.1903,-5.1098,-4.9794,-4.9537,-4.9078,-4.8398,-4.8213,-4.7773,-4.7058,-4.6874,-4.6159,-4.4745,-4.4635,-4.425,-4.3534,-4.3479,-4.3479,-4.3479,-4.3441,-4.3404,-4.3314,-4.3222,-4.2818,-4.2106,-4.1522,-4.0908,-4.0147,-3.9226,-3.8669,-3.8676,-3.8822,-3.9174,-3.9791,-3.991,-3.9842,-3.9893,-3.9842,-3.9825,-3.9825,-3.9859,-3.9605,-3.9073,-3.8886,-3.9157,-3.9791,-3.9926,-3.9926,-3.991,-4.0028,-4.0113,-4.0113,-4.0113,-4.0113,-4.0113,-4.0113,-4.0113,-4.0113,-4.0113,-4.0113,-4.0113,-4.0113,-4.0113,-4.0113,-4.0096,-4.007,-3.9833,-3.9411,-3.8935,-3.8509,-3.8076,-3.7616,-3.7501,-3.7531,-3.7205,-3.6814,-3.6965,-3.7189,-3.5975,-3.6023,-3.6165,-3.5701,-3.5489,-3.5489,-3.5489,-3.5489,-3.5489,-3.5489,-3.5489,-3.5489,-6.5878,-6.5878,-6.5878,-6.5878,-6.582,-6.5513,-6.507,-6.4532,-6.3897,-6.3281,-6.2712,-6.1723,-6.0742,-5.9757,-5.9047,-5.8508,-5.8189,-5.7733,-5.7079,-5.6326,-5.5959,-5.5335,-5.4418,-5.4087,-5.35,-5.2711,-5.2234,-5.1685,-5.0969,-5.0069,-4.915,-4.8398,-4.8324,-4.8141,-4.781,-4.7333,-4.6764,-4.6122,-4.5186,-4.4544,-4.4195,-4.3736,-4.3479,-4.3479,-4.3479,-4.3479,-4.3479,-4.3479,-4.3332,-4.302,-4.281,-4.2377,-4.1775,-4.1316,-4.0896,-4.0559,-4.0274,-4.0099,-4.0104,-4.0113,-4.0113,-4.0113,-4.0113,-4.0113,-4.0113,-4.0113,-3.996,-3.9723,-3.9673,-3.9808,-4.0062,-4.0113,-4.0113,-4.0113,-4.0113,-4.0113,-4.0113,-4.0113,-4.0113,-4.0113,-4.0113,-4.0113,-4.0113,-4.0113,-4.0113,-4.0113,-4.0113,-4.0113,-4.0113,-4.0113,-4.0113,-4.007,-3.9782,-3.9394,-3.9016,-3.869,-3.8302,-3.795,-3.7822,-3.7602,-3.7515,-3.7515,-3.7397,-3.6306,-3.6477,-3.6368,-3.5604,-3.5522,-3.5489,-3.5489,-3.5489,-3.5489,-3.5489,-3.5489,-3.5489,-6.5878,-6.5878,-6.5878,-6.5878,-6.5878,-6.5878,-6.5532,-6.4955,-6.4705,-6.4243,-6.3608,-6.2801,-6.1774,-6.0604,-5.9554,-5.9028,-5.8835,-5.8397,-5.7806,-5.7157,-5.6914,-5.618,-5.5078,-5.4564,-5.4106,-5.35,-5.2729,-5.2215,-5.1848,-5.0381,-4.9262,-4.871,-4.8434,-4.8324,-4.8251,-4.7681,-4.7314,-4.7003,-4.592,-4.515,-4.4709,-4.414,-4.3718,-4.3533,-4.3479,-4.3479,-4.3479,-4.3479,-4.3479,-4.3479,-4.3479,-4.3339,-4.2958,-4.2788,-4.2422,-4.1832,-4.1246,-4.0733,-4.036,-4.0179,-4.0113,-4.0113,-4.0113,-4.0113,-4.0113,-4.0113,-4.0113,-4.0079,-4.0113,-4.0079,-4.0113,-4.0113,-4.0113,-4.0113,-4.0113,-4.0113,-4.0113,-4.0113,-4.0113,-4.0113,-4.0113,-4.0113,-4.0113,-4.0113,-4.0113,-4.0113,-4.0113,-4.0113,-4.0113,-4.0113,-4.0113,-4.0113,-4.007,-3.9859,-3.9342,-3.9262,-3.8924,-3.8679,-3.8557,-3.8502,-3.8278,-3.8234,-3.7748,-3.6934,-3.6904,-3.6477,-3.5718,-3.5489,-3.5522,-3.5489,-3.5489,-3.5489,-3.5489,-3.5489,-3.5489,-6.5878,-6.5878,-6.5878,-6.5878,-6.5878,-6.5878,-6.5859,-6.5705,-6.4993,-6.4589,-6.4436,-6.3615,-6.2788,-6.1944,-6.0681,-5.9811,-5.9319,-5.8815,-5.8317,-5.7818,-5.7189,-5.6785,-5.6583,-5.517,-5.4399,-5.4197,-5.3518,-5.2747,-5.194,-5.0455,-4.9592,-4.9482,-4.8765,-4.8343,-4.8306,-4.8233,-4.7865,-4.7223,-4.6947,-4.625,-4.4948,-4.4691,-4.4232,-4.3662,-4.3497,-4.3479,-4.3479,-4.3479,-4.3479,-4.3479,-4.3479,-4.3462,-4.341,-4.2976,-4.248,-4.1874,-4.1268,-4.092,-4.0803,-4.0417,-4.0121,-4.0113,-4.0113,-4.0113,-4.0113,-4.0113,-4.0113,-4.0113,-4.0113,-4.0113,-4.0113,-4.0113,-4.0113,-4.0113,-4.0113,-4.0113,-4.0113,-4.0113,-4.0113,-4.0113,-4.0113,-4.0113,-4.0113,-4.0113,-4.0113,-4.0113,-4.0113,-4.0113,-4.0113,-4.0113,-4.0113,-4.0113,-4.0113,-4.007,-4.0045,-3.9876,-3.9901,-3.9705,-3.9428,-3.9627,-3.9463,-3.9139,-3.8286,-3.76,-3.7499,-3.6995,-3.5958,-3.5522,-3.5554,-3.5554,-3.5489,-3.5489,-3.5489,-3.5489,-3.5489,-6.5878,-6.5878,-6.5878,-6.5878,-6.5878,-6.5878,-6.5878,-6.5859,-6.557,-6.5436,-6.5282,-6.4512,-6.3974,-6.3628,-6.2074,-6.0647,-5.9392,-5.8611,-5.8146,-5.796,-5.7703,-5.7299,-5.6767,-5.618,-5.5335,-5.4454,-5.4106,-5.328,-5.2068,-5.1391,-5.0602,-4.9684,-4.9297,-4.8875,-4.8416,-4.8324,-4.8141,-4.7828,-4.7388,-4.6801,-4.6177,-4.5223,-4.4544,-4.4268,-4.3754,-4.3479,-4.3479,-4.3479,-4.3479,-4.3479,-4.3479,-4.3479,-4.3462,-4.3321,-4.2958,-4.2442,-4.2162,-4.1707,-4.1001,-4.075,-4.0449,-4.0146,-4.0113,-4.0113,-4.0113,-4.0113,-4.0113,-4.0113,-4.0113,-4.0113,-4.0113,-4.0113,-4.0113,-4.0113,-4.0113,-4.0113,-4.0113,-4.0113,-4.0113,-4.0113,-4.0113,-4.0113,-4.0113,-4.0113,-4.0113,-4.0113,-4.0113,-4.0113,-4.0113,-4.0113,-4.0113,-4.0113,-4.0113,-4.0113,-4.0113,-4.007,-4.007,-4.007,-4.002,-3.9927,-3.9808,-3.9782,-3.9129,-3.7991,-3.7863,-3.7427,-3.6415,-3.6054,-3.6006,-3.5651,-3.5587,-3.5522,-3.5489,-3.5554,-3.5522,-6.5878,-6.5878,-6.5878,-6.5878,-6.5878,-6.5878,-6.5878,-6.5878,-6.5878,-6.5878,-6.5782,-6.5282,-6.4878,-6.443,-6.3239,-6.1626,-5.9859,-5.8884,-5.8304,-5.8001,-5.7978,-5.7721,-5.7226,-5.6932,-5.6106,-5.4858,-5.4234,-5.339,-5.2472,-5.2123,-5.1446,-5.0435,-4.9922,-4.9317,-4.8765,-4.8453,-4.8324,-4.8177,-4.7736,-4.7369,-4.7021,-4.6049,-4.5351,-4.5021,-4.4305,-4.3754,-4.3516,-4.3479,-4.3479,-4.3479,-4.3479,-4.3479,-4.3479,-4.3479,-4.3357,-4.2995,-4.277,-4.2362,-4.1578,-4.1133,-4.0733,-4.0392,-4.0179,-4.0113,-4.0113,-4.0113,-4.0113,-4.0113,-4.0113,-4.0113,-4.0113,-4.0113,-4.0113,-4.0113,-4.0113,-4.0113,-4.0113,-4.0113,-4.0113,-4.0113,-4.0113,-4.0113,-4.0113,-4.0113,-4.0113,-4.0113,-4.0113,-4.0113,-4.0113,-4.0113,-4.0113,-4.0113,-4.0113,-4.0113,-4.0113,-4.0113,-4.0113,-4.0113,-4.0113,-4.0113,-4.0113,-4.0113,-3.9705,-3.8613,-3.795,-3.7528,-3.7114,-3.6722,-3.6337,-3.5958,-3.5683,-3.5554,-3.5587,-3.5651,-3.5587,-6.5878,-6.5878,-6.5878,-6.5878,-6.5878,-6.5878,-6.5878,-6.5878,-6.5878,-6.5878,-6.5878,-6.582,-6.5359,-6.4674,-6.4057,-6.2709,-6.0912,-5.9849,-5.885,-5.8047,-5.7978,-5.7978,-5.7831,-5.7244,-5.6492,-5.5519,-5.4032,-5.3295,-5.3188,-5.2509,-5.1977,-5.1667,-5.0455,-4.9757,-4.9574,-4.8802,-4.8379,-4.8288,-4.8214,-4.7884,-4.7204,-4.6966,-4.6562,-4.5902,-4.5131,-4.4397,-4.3644,-4.3534,-4.3479,-4.3479,-4.3479,-4.3479,-4.3479,-4.3479,-4.3479,-4.3375,-4.2995,-4.2732,-4.2519,-4.1578,-4.0995,-4.0733,-4.0375,-4.0113,-4.0113,-4.0113,-4.0113,-4.0113,-4.0113,-4.0113,-4.0113,-4.0113,-4.0113,-4.0113,-4.0113,-4.0113,-4.0113,-4.0113,-4.0113,-4.0113,-4.0113,-4.0113,-4.0113,-4.0113,-4.0113,-4.0113,-4.0113,-4.0113,-4.0113,-4.0113,-4.0113,-4.0113,-4.0113,-4.0113,-4.0113,-4.0113,-4.0113,-4.0113,-4.0113,-4.0113,-4.0113,-4.007,-3.9731,-3.8843,-3.8596,-3.8173,-3.7411,-3.7054,-3.7024,-3.6661,-3.6243,-3.5846,-3.5926,-3.5975,-3.5619,-6.5878,-6.5878,-6.5878,-6.5878,-6.5878,-6.5878,-6.5878,-6.5878,-6.5878,-6.5878,-6.5878,-6.5878,-6.5743,-6.5365,-6.4724,-6.3634,-6.2291,-6.0917,-5.9494,-5.8234,-5.7997,-5.7978,-5.7923,-5.774,-5.7207,-5.6271,-5.4785,-5.4032,-5.3867,-5.3206,-5.2582,-5.1958,-5.152,-5.0657,-4.9702,-4.9317,-4.8948,-4.8379,-4.8324,-4.8159,-4.7865,-4.7369,-4.6966,-4.6672,-4.5938,-4.5388,-4.5131,-4.4121,-4.3533,-4.3497,-4.3479,-4.3479,-4.3479,-4.3479,-4.3479,-4.3497,-4.3375,-4.305,-4.2674,-4.1979,-4.1313,-4.0903,-4.0417,-4.0146,-4.0113,-4.0113,-4.0113,-4.0113,-4.0113,-4.0113,-4.0113,-4.0113,-4.0113,-4.0113,-4.0113,-4.0113,-4.0113,-4.0113,-4.0113,-4.0113,-4.0113,-4.0113,-4.0113,-4.0113,-4.0113,-4.0113,-4.0113,-4.0113,-4.0113,-4.0113,-4.0113,-4.0113,-4.0113,-4.0113,-4.0113,-4.0113,-4.0113,-4.0113,-4.0113,-4.0113,-4.0113,-4.0045,-3.9679,-3.9385,-3.9129,-3.8663,-3.7905,-3.7587,-3.76,-3.7352,-3.6874,-3.6661,-3.6538,-3.6244,-3.5863,-6.5878,-6.5878,-6.5878,-6.5878,-6.5878,-6.5878,-6.5878,-6.5878,-6.5878,-6.5878,-6.5878,-6.5878,-6.5878,-6.5782,-6.532,-6.435,-6.3065,-6.1991,-6.0466,-5.8635,-5.807,-5.7997,-5.7923,-5.7666,-5.7336,-5.6602,-5.517,-5.4418,-5.4363,-5.361,-5.2949,-5.2509,-5.216,-5.1557,-5.0473,-4.9867,-4.926,-4.8802,-4.8471,-4.8324,-4.8214,-4.781,-4.7535,-4.7424,-4.6783,-4.6397,-4.625,-4.5057,-4.425,-4.3938,-4.368,-4.3497,-4.3479,-4.3479,-4.3479,-4.3479,-4.3479,-4.3321,-4.2976,-4.2264,-4.1664,-4.1218,-4.0546,-4.0121,-4.0113,-4.0113,-4.0113,-4.0113,-4.0113,-4.0113,-4.0113,-4.0113,-4.0113,-4.0113,-4.0113,-4.0113,-4.0113,-4.0113,-4.0113,-4.0113,-4.0113,-4.0113,-4.0113,-4.0113,-4.0113,-4.0113,-4.0113,-4.0113,-4.0113,-4.0113,-4.0113,-4.0113,-4.0113,-4.0113,-4.0113,-4.0113,-4.0113,-4.0113,-4.0113,-4.0113,-4.0113,-4.0113,-3.9876,-3.9756,-3.9542,-3.9209,-3.8525,-3.8481,-3.8453,-3.8003,-3.7616,-3.7338,-3.71,-3.6508,-3.6147,-6.5878,-6.5878,-6.5878,-6.5878,-6.5878,-6.5878,-6.5878,-6.5878,-6.5878,-6.5878,-6.5878,-6.5878,-6.5878,-6.5878,-6.5763,-6.4862,-6.3401,-6.2973,-6.155,-5.9595,-5.8584,-5.8143,-5.7941,-5.7409,-5.7134,-5.6767,-5.5427,-5.4675,-5.4564,-5.3794,-5.3222,-5.3078,-5.2472,-5.2052,-5.1593,-5.0455,-4.9849,-4.9592,-4.8857,-4.8489,-4.8453,-4.8288,-4.8251,-4.8214,-4.7535,-4.7168,-4.7021,-4.6305,-4.548,-4.4709,-4.3993,-4.3644,-4.3516,-4.3479,-4.3479,-4.3479,-4.3479,-4.3479,-4.3249,-4.2523,-4.1874,-4.1643,-4.0797,-4.0121,-4.0121,-4.0113,-4.0113,-4.0113,-4.0113,-4.0113,-4.0113,-4.0113,-4.0113,-4.0113,-4.0113,-4.0113,-4.0113,-4.0113,-4.0113,-4.0113,-4.0113,-4.0113,-4.0113,-4.0113,-4.0113,-4.0113,-4.0113,-4.0113,-4.0113,-4.0113,-4.0113,-4.0113,-4.0113,-4.0113,-4.0113,-4.0113,-4.0113,-4.0113,-4.0113,-4.0113,-4.0113,-4.0113,-4.0113,-3.9978,-3.9859,-3.9542,-3.9368,-3.9262,-3.9193,-3.8908,-3.8497,-3.8064,-3.765,-3.7208,-3.7049,-6.5878,-6.5878,-6.5878,-6.5878,-6.5878,-6.5878,-6.5878,-6.5878,-6.5878,-6.5878,-6.5878,-6.5878,-6.5878,-6.5878,-6.5878,-6.5191,-6.4117,-6.3388,-6.2074,-6.0236,-5.9258,-5.8547,-5.8088,-5.7795,-5.7648,-5.7464,-5.6528,-5.5849,-5.5262,-5.4418,-5.3794,-5.3203,-5.3004,-5.2564,-5.1979,-5.1538,-5.1041,-5.0453,-4.9684,-4.9243,-4.9114,-4.8618,-4.8324,-4.8288,-4.8086,-4.7957,-4.7901,-4.7223,-4.6104,-4.4819,-4.4507,-4.4085,-4.3663,-4.3552,-4.3552,-4.3552,-4.3515,-4.3479,-4.3356,-4.2828,-4.2282,-4.181,-4.1087,-4.0546,-4.0121,-4.0113,-4.0113,-4.0113,-4.0113,-4.0113,-4.0113,-4.0113,-4.0113,-4.0113,-4.0113,-4.0113,-4.0113,-4.0113,-4.0113,-4.0113,-4.0113,-4.0113,-4.0113,-4.0113,-4.0113,-4.0113,-4.0113,-4.0113,-4.0113,-4.0113,-4.0113,-4.0113,-4.0113,-4.0113,-4.0113,-4.0113,-4.0113,-4.0113,-4.0113,-4.0113,-4.0113,-4.0113,-4.0113,-4.007,-4.002,-3.9782,-3.985,-3.9833,-3.9782,-3.961,-3.9325,-3.8815,-3.869,-3.8386,-3.8426,-6.5878,-6.5878,-6.5878,-6.5878,-6.5878,-6.5878,-6.5878,-6.5878,-6.5878,-6.5878,-6.5878,-6.5878,-6.5878,-6.5878,-6.5878,-6.5325,-6.4406,-6.3879,-6.2633,-6.0935,-5.9698,-5.8786,-5.8162,-5.7978,-5.7978,-5.7905,-5.7189,-5.6565,-5.5941,-5.4987,-5.4197,-5.3739,-5.3371,-5.2968,-5.2564,-5.2105,-5.1793,-5.1224,-5.0508,-4.9996,-4.9574,-4.9133,-4.8636,-4.8434,-4.8324,-4.8324,-4.8233,-4.7847,-4.6874,-4.559,-4.5186,-4.4984,-4.4544,-4.4158,-4.4011,-4.3975,-4.3717,-4.3479,-4.341,-4.3013,-4.244,-4.1853,-4.1246,-4.0696,-4.0229,-4.0113,-4.0113,-4.0113,-4.0113,-4.0113,-4.0113,-4.0113,-4.0113,-4.0113,-4.0113,-4.0113,-4.0113,-4.0113,-4.0113,-4.0113,-4.0113,-4.0113,-4.0113,-4.0113,-4.0113,-4.0113,-4.0113,-4.0113,-4.0113,-4.013,-4.0197,-4.0299,-4.0265,-4.0248,-4.0265,-4.0248,-4.0383,-4.0367,-4.0417,-4.0367,-4.0316,-4.0299,-4.0214,-4.0214,-4.0163,-4.0163,-4.0282,-4.0265,-4.002,-3.9875,-3.975,-3.9744,-3.9622,-3.9834,-3.9858,-6.5878,-6.5878,-6.5878,-6.5878,-6.5878,-6.5878,-6.5878,-6.5878,-6.5878,-6.5878,-6.5878,-6.5878,-6.5878,-6.5878,-6.5865,-6.5374,-6.4481,-6.4331,-6.3016,-6.1375,-5.9905,-5.8762,-5.8052,-5.7978,-5.7978,-5.7905,-5.7226,-5.6914,-5.6455,-5.5317,-5.462,-5.4234,-5.3665,-5.3295,-5.3004,-5.2509,-5.2179,-5.2013,-5.1334,-5.0692,-5.0198,-4.9849,-4.9334,-4.8673,-4.8343,-4.8324,-4.8324,-4.8177,-4.759,-4.6232,-4.6085,-4.592,-4.5792,-4.5131,-4.4874,-4.4745,-4.4323,-4.3955,-4.3775,-4.356,-4.2956,-4.2465,-4.181,-4.0998,-4.0819,-4.0696,-4.0587,-4.062,-4.0367,-4.0536,-4.0536,-4.0434,-4.0519,-4.0603,-4.0485,-4.0367,-4.0299,-4.0197,-4.0113,-4.0113,-4.0113,-4.0113,-4.0113,-4.018,-4.0265,-4.057,-4.0603,-4.0857,-4.0874,-4.0908,-4.0857,-4.0756,-4.0637,-4.0434,-4.0434,-4.0417,-4.0603,-4.0722,-4.0815,-4.0815,-4.079,-4.0705,-4.0502,-4.0485,-4.0891,-4.0925,-4.0756,-4.062,-4.0485,-4.0603,-4.0834,-4.0739,-4.064,-4.115,-4.139,-6.5878,-6.5878,-6.5878,-6.5878,-6.5878,-6.5878,-6.5878,-6.5878,-6.5878,-6.5878,-6.5878,-6.5878,-6.5878,-6.5878,-6.5865,-6.5542,-6.4885,-6.4442,-6.3065,-6.0727,-5.9722,-5.8786,-5.8143,-5.7978,-5.7978,-5.7923,-5.7831,-5.7428,-5.6804,-5.6363,-5.5611,-5.4546,-5.4252,-5.383,-5.324,-5.3041,-5.2949,-5.2803,-5.2142,-5.1646,-5.1298,-5.0747,-5.0105,-4.9317,-4.8673,-4.8343,-4.8324,-4.8324,-4.8141,-4.7737,-4.7186,-4.6599,-4.614,-4.581,-4.5663,-4.559,-4.548,-4.5296,-4.5315,-4.5096,-4.4926,-4.4132,-4.347,-4.3203,-4.2659,-4.198,-4.1798,-4.1813,-4.1839,-4.166,-4.1644,-4.1762,-4.1677,-4.1627,-4.1687,-4.1721,-4.1636,-4.0807,-4.0316,-4.0214,-4.0214,-4.013,-4.0197,-4.0747,-4.0899,-4.1001,-4.1305,-4.1694,-4.1711,-4.161,-4.1508,-4.1339,-4.1339,-4.1204,-4.1068,-4.1119,-4.1339,-4.1373,-4.1424,-4.1779,-4.1721,-4.1407,-4.1322,-4.1525,-4.188,-4.1754,-4.1382,-4.1559,-4.1542,-4.1771,-4.189,-4.1805,-4.1862,-4.2433,-4.2752,-6.5878,-6.5878,-6.5878,-6.5878,-6.5878,-6.5878,-6.5878,-6.5878,-6.5878,-6.5878,-6.5878,-6.5878,-6.5878,-6.5878,-6.5865,-6.5616,-6.5,-6.4313,-6.2869,-6.1032,-6.0038,-5.9134,-5.8143,-5.7978,-5.7978,-5.7978,-5.796,-5.7703,-5.7391,-5.6969,-5.6345,-5.55,-5.4821,-5.4234,-5.372,-5.3427,-5.3167,-5.3112,-5.2821,-5.2399,-5.1958,-5.1591,-5.071,-4.9831,-4.9133,-4.8765,-4.8361,-4.8324,-4.8324,-4.8214,-4.7883,-4.748,-4.7021,-4.6673,-4.647,-4.6452,-4.6049,-4.592,-4.5883,-4.5847,-4.5455,-4.477,-4.4285,-4.3646,-4.3069,-4.2454,-4.2339,-4.2303,-4.2269,-4.2286,-4.2303,-4.2269,-4.2303,-4.2303,-4.2303,-4.2303,-4.2168,-4.1576,-4.1145,-4.1145,-4.123,-4.1187,-4.1322,-4.1491,-4.1627,-4.1745,-4.1796,-4.2134,-4.2066,-4.1999,-4.2066,-4.2033,-4.2117,-4.2066,-4.1863,-4.1948,-4.2252,-4.2252,-4.2202,-4.276,-4.321,-4.2743,-4.2286,-4.2455,-4.2523,-4.2252,-4.1999,-4.2286,-4.2439,-4.2286,-4.2337,-4.2625,-4.297,-4.3333,-4.3625,-6.5878,-6.5878,-6.5878,-6.5878,-6.5878,-6.5878,-6.5878,-6.5878,-6.5878,-6.5878,-6.5878,-6.5878,-6.5878,-6.5878,-6.5878,-6.5583,-6.4968,-6.42,-6.2888,-6.1196,-6.0526,-5.9402,-5.8327,-5.7978,-5.7978,-5.7978,-5.7978,-5.7923,-5.7758,-5.7373,-5.6932,-5.6565,-5.5537,-5.4748,-5.4326,-5.3794,-5.3369,-5.3225,-5.3112,-5.2858,-5.238,-5.2179,-5.1463,-5.0455,-4.9629,-4.9243,-4.8691,-4.8453,-4.8324,-4.8324,-4.8324,-4.8324,-4.8159,-4.7736,-4.7278,-4.7278,-4.6764,-4.6581,-4.6562,-4.6378,-4.5963,-4.4689,-4.4519,-4.4019,-4.3254,-4.2971,-4.2905,-4.2828,-4.2861,-4.2844,-4.2658,-4.2844,-4.2794,-4.2743,-4.2692,-4.2625,-4.2651,-4.2625,-4.2601,-4.2134,-4.1914,-4.1847,-4.2049,-4.2252,-4.2371,-4.2499,-4.2523,-4.2574,-4.2557,-4.2625,-4.2828,-4.2997,-4.3149,-4.3217,-4.3031,-4.2574,-4.2895,-4.3149,-4.3064,-4.3504,-4.4192,-4.3819,-4.3267,-4.2997,-4.2929,-4.2811,-4.2844,-4.3098,-4.3081,-4.2794,-4.2997,-4.347,-4.3842,-4.4164,-4.4316,-6.5878,-6.5878,-6.5878,-6.5878,-6.5878,-6.5878,-6.5878,-6.5878,-6.5878,-6.5878,-6.5878,-6.5878,-6.5878,-6.5878,-6.5878,-6.5583,-6.5099,-6.4406,-6.3136,-6.1437,-6.0642,-5.9538,-5.8253,-5.7978,-5.7978,-5.7978,-5.7978,-5.7978,-5.7978,-5.7831,-5.7409,-5.6877,-5.6455,-5.5776,-5.4821,-5.4216,-5.3812,-5.3408,-5.324,-5.3059,-5.2949,-5.2821,-5.2435,-5.1334,-5.04,-4.9684,-4.9242,-4.8673,-4.8324,-4.8324,-4.8324,-4.8324,-4.8288,-4.8103,-4.803,-4.7957,-4.781,-4.759,-4.7627,-4.7755,-4.7499,-4.6924,-4.6176,-4.5602,-4.4898,-4.4402,-4.3948,-4.4022,-4.4039,-4.4124,-4.4225,-4.3988,-4.4141,-4.4158,-4.4056,-4.4028,-4.4073,-4.3972,-4.3565,-4.2811,-4.254,-4.2489,-4.2794,-4.3031,-4.3166,-4.3335,-4.3532,-4.3633,-4.3701,-4.3819,-4.4022,-4.4175,-4.431,-4.4327,-4.4293,-4.3656,-4.347,-4.3927,-4.4022,-4.4005,-4.4445,-4.4496,-4.4242,-4.3819,-4.3819,-4.3938,-4.3988,-4.3955,-4.3921,-4.3752,-4.4028,-4.435,-4.4367,-4.4384,-4.4462,-6.5878,-6.5878,-6.5878,-6.5878,-6.5878,-6.5878,-6.5878,-6.5878,-6.5878,-6.5878,-6.5878,-6.5878,-6.5878,-6.5878,-6.5878,-6.5736,-6.5403,-6.4679,-6.3333,-6.1723,-6.0726,-5.9557,-5.8143,-5.7978,-5.7978,-5.7978,-5.7978,-5.7978,-5.7978,-5.7978,-5.7758,-5.7446,-5.706,-5.6363,-5.5574,-5.4785,-5.4289,-5.3794,-5.3424,-5.3185,-5.3185,-5.3185,-5.2766,-5.1958,-5.1263,-5.0492,-4.9592,-4.9298,-4.8728,-4.8416,-4.8324,-4.8324,-4.8343,-4.8324,-4.8324,-4.8324,-4.8324,-4.8324,-4.8324,-4.8267,-4.7804,-4.6941,-4.6548,-4.594,-4.5267,-4.468,-4.4598,-4.4598,-4.4598,-4.4598,-4.453,-4.4598,-4.4598,-4.4598,-4.4598,-4.4598,-4.4598,-4.4598,-4.4073,-4.3464,-4.3538,-4.3616,-4.3667,-4.3842,-4.3961,-4.4164,-4.4412,-4.4513,-4.4581,-4.4598,-4.4598,-4.4581,-4.4581,-4.4581,-4.4598,-4.4248,-4.3876,-4.4316,-4.4598,-4.4598,-4.4598,-4.4581,-4.4581,-4.4395,-4.4564,-4.4598,-4.453,-4.4293,-4.4479,-4.4598,-4.453,-4.4496,-4.4547,-4.4598,-4.4598,-6.5878,-6.5878,-6.5878,-6.5878,-6.5878,-6.5878,-6.5878,-6.5878,-6.5878,-6.5878,-6.5878,-6.5878,-6.5878,-6.5878,-6.5878,-6.5865,-6.5827,-6.4921,-6.3571,-6.1977,-6.0989,-5.9707,-5.8387,-5.7978,-5.7978,-5.7978,-5.7978,-5.7978,-5.7978,-5.7978,-5.7978,-5.7776,-5.7262,-5.6914,-5.6473,-5.5354,-5.4766,-5.4179,-5.3625,-5.3203,-5.3185,-5.3148,-5.2931,-5.2252,-5.2087,-5.1318,-5.0418,-4.9959,-4.9554,-4.9077,-4.8765,-4.86,-4.8545,-4.8398,-4.8324,-4.8324,-4.8324,-4.8324,-4.8324,-4.8287,-4.7858,-4.6914,-4.653,-4.5815,-4.5142,-4.4786,-4.4598,-4.4598,-4.4598,-4.4598,-4.4598,-4.4598,-4.4598,-4.4598,-4.4598,-4.4598,-4.4598,-4.4598,-4.4598,-4.4378,-4.4598,-4.4496,-4.4276,-4.4276,-4.4282,-4.4299,-4.4513,-4.453,-4.4598,-4.4598,-4.4598,-4.4598,-4.4598,-4.4598,-4.4598,-4.4598,-4.4333,-4.4462,-4.4598,-4.4598,-4.4598,-4.4598,-4.4598,-4.4598,-4.4598,-4.4598,-4.4598,-4.4598,-4.4598,-4.4598,-4.4598,-4.4598,-4.4598,-4.4598,-4.4598,-6.5878,-6.5878,-6.5878,-6.5878,-6.5878,-6.5878,-6.5878,-6.5878,-6.5878,-6.5878,-6.5878,-6.5878,-6.5878,-6.5878,-6.5878,-6.5878,-6.569,-6.5184,-6.3871,-6.2121,-6.1285,-5.9945,-5.8254,-5.7997,-5.7978,-5.7978,-5.7978,-5.7978,-5.7978,-5.7978,-5.7978,-5.7905,-5.7813,-5.7538,-5.6895,-5.5959,-5.5097,-5.4418,-5.3647,-5.3185,-5.3185,-5.3185,-5.3093,-5.2876,-5.2417,-5.1903,-5.1408,-5.093,-5.049,-5.0325,-4.9757,-4.9482,-4.9353,-4.8691,-4.8398,-4.8324,-4.8324,-4.8324,-4.8324,-4.8287,-4.8035,-4.7198,-4.6733,-4.6094,-4.5346,-4.4814,-4.4598,-4.4598,-4.4598,-4.4598,-4.4598,-4.4598,-4.4598,-4.4632,-4.4666,-4.4666,-4.4666,-4.4598,-4.4598,-4.4598,-4.4598,-4.4598,-4.4496,-4.4547,-4.4581,-4.4581,-4.4598,-4.4598,-4.4598,-4.4598,-4.4598,-4.4598,-4.4598,-4.4598,-4.4598,-4.4598,-4.4598,-4.4598,-4.4598,-4.4598,-4.4598,-4.4598,-4.4598,-4.4598,-4.4598,-4.4598,-4.4598,-4.4598,-4.4598,-4.4598,-4.4598,-4.4598,-4.4598,-4.4598,-4.4615,-6.5878,-6.5878,-6.5878,-6.5878,-6.5878,-6.5878,-6.5878,-6.5878,-6.5878,-6.5878,-6.5878,-6.5878,-6.5878,-6.5878,-6.5878,-6.5878,-6.5781,-6.5369,-6.4118,-6.2444,-6.1468,-6.0192,-5.8727,-5.8123,-5.7978,-5.7978,-5.7978,-5.7978,-5.7978,-5.7978,-5.7978,-5.7978,-5.7978,-5.7868,-5.7354,-5.6657,-5.5868,-5.4987,-5.3977,-5.324,-5.3185,-5.3185,-5.3185,-5.3185,-5.2839,-5.2472,-5.2032,-5.1738,-5.1206,-5.0912,-5.038,-5.0013,-4.9627,-4.9169,-4.8893,-4.8324,-4.8324,-4.8324,-4.8324,-4.8324,-4.7995,-4.7428,-4.6756,-4.5989,-4.5232,-4.4786,-4.4598,-4.4598,-4.4598,-4.4615,-4.4632,-4.4598,-4.4857,-4.4976,-4.5004,-4.5089,-4.501,-4.4666,-4.4598,-4.4598,-4.4632,-4.4699,-4.4733,-4.4733,-4.4699,-4.4598,-4.4598,-4.4598,-4.4598,-4.4598,-4.4598,-4.4598,-4.4598,-4.4598,-4.4598,-4.4598,-4.4598,-4.4598,-4.4598,-4.4598,-4.4598,-4.4598,-4.4598,-4.4598,-4.4598,-4.4598,-4.4598,-4.4598,-4.4598,-4.4598,-4.4598,-4.4598,-4.4598,-4.4666,-4.4682,-6.5878,-6.5878,-6.5878,-6.5878,-6.5878,-6.5878,-6.5878,-6.5878,-6.5878,-6.5878,-6.5878,-6.5878,-6.5878,-6.5878,-6.5878,-6.5878,-6.5865,-6.5461,-6.4191,-6.2854,-6.1636,-6.0369,-5.9014,-5.8242,-5.7978,-5.7978,-5.7978,-5.7978,-5.7978,-5.7978,-5.7978,-5.7978,-5.7978,-5.796,-5.7776,-5.7097,-5.6216,-5.5042,-5.4106,-5.3518,-5.3261,-5.3185,-5.3185,-5.3185,-5.3112,-5.2892,-5.2417,-5.2307,-5.1922,-5.1646,-5.1224,-5.0839,-5.0398,-5.005,-4.9537,-4.8967,-4.8765,-4.8563,-4.8434,-4.8267,-4.8035,-4.7533,-4.6756,-4.5915,-4.4852,-4.4598,-4.4598,-4.4598,-4.4598,-4.4699,-4.4852,-4.4891,-4.5314,-4.5551,-4.5585,-4.5686,-4.5737,-4.5466,-4.5196,-4.5145,-4.5128,-4.497,-4.4987,-4.4908,-4.4818,-4.4649,-4.4598,-4.4598,-4.4598,-4.4598,-4.4598,-4.4598,-4.4598,-4.4598,-4.4598,-4.4598,-4.4598,-4.4632,-4.4632,-4.4632,-4.4666,-4.4632,-4.4598,-4.4598,-4.4716,-4.4598,-4.4598,-4.4598,-4.4598,-4.4598,-4.4598,-4.4598,-4.4615,-4.4716,-4.4919,-6.5878,-6.5878,-6.5878,-6.5878,-6.5878,-6.5878,-6.5878,-6.5878,-6.5878,-6.5878,-6.5878,-6.5878,-6.5878,-6.5878,-6.5878,-6.5878,-6.5878,-6.5853,-6.4573,-6.315,-6.1957,-6.0717,-5.9393,-5.8486,-5.8024,-5.7978,-5.7978,-5.7978,-5.7978,-5.7978,-5.7978,-5.7978,-5.7978,-5.7978,-5.7758,-5.7189,-5.6216,-5.5188,-5.4399,-5.3867,-5.3482,-5.324,-5.3185,-5.3185,-5.3185,-5.3148,-5.3115,-5.3002,-5.2892,-5.269,-5.2215,-5.1756,-5.1371,-5.0967,-5.0325,-4.9701,-4.9481,-4.9224,-4.8893,-4.8434,-4.8248,-4.7858,-4.7088,-4.589,-4.4759,-4.4632,-4.4632,-4.4767,-4.4936,-4.5173,-4.5432,-4.5703,-4.5991,-4.6312,-4.643,-4.643,-4.6481,-4.643,-4.616,-4.5906,-4.5737,-4.5618,-4.5517,-4.5534,-4.4959,-4.4767,-4.4598,-4.4598,-4.4598,-4.4598,-4.4598,-4.4598,-4.4598,-4.4598,-4.4598,-4.4598,-4.4598,-4.4716,-4.4801,-4.4784,-4.4767,-4.475,-4.5106,-4.5038,-4.5179,-4.4886,-4.4733,-4.5072,-4.5173,-4.4767,-4.4615,-4.4682,-4.4891,-4.5128,-4.5382,-6.5089,-6.5147,-6.5667,-6.5878,-6.5878,-6.5878,-6.5878,-6.5878,-6.5878,-6.5878,-6.5878,-6.5878,-6.5878,-6.5878,-6.5878,-6.5878,-6.5878,-6.5878,-6.4942,-6.3918,-6.2738,-6.1429,-6.006,-5.8952,-5.8307,-5.8051,-5.7978,-5.7978,-5.7978,-5.7978,-5.7978,-5.7978,-5.7978,-5.7978,-5.7721,-5.7299,-5.6473,-5.5812,-5.495,-5.4216,-5.3995,-5.3387,-5.3185,-5.3185,-5.3185,-5.3185,-5.3167,-5.3185,-5.3185,-5.3112,-5.2858,-5.2509,-5.2162,-5.1701,-5.1151,-5.0472,-5.0343,-5.0105,-4.9609,-4.8871,-4.7995,-4.7154,-4.6594,-4.5935,-4.498,-4.5021,-4.5229,-4.5399,-4.5635,-4.5974,-4.6244,-4.6413,-4.6599,-4.709,-4.7293,-4.7242,-4.7242,-4.7208,-4.6921,-4.6583,-4.6481,-4.6413,-4.6329,-4.6244,-4.5517,-4.4869,-4.4716,-4.4649,-4.4801,-4.4869,-4.4953,-4.4987,-4.5004,-4.4919,-4.4919,-4.4784,-4.4649,-4.4869,-4.506,-4.5162,-4.5331,-4.5872,-4.6126,-4.5957,-4.5805,-4.5771,-4.5805,-4.5923,-4.5703,-4.5207,-4.4936,-4.4807,-4.5111,-4.5585,-4.5957,-6.4378,-6.4666,-6.5243,-6.5667,-6.5878,-6.5878,-6.5878,-6.5878,-6.5878,-6.5878,-6.5878,-6.5878,-6.5878,-6.5878,-6.5878,-6.5878,-6.5878,-6.582,-6.5301,-6.4448,-6.3413,-6.2129,-6.0803,-5.9662,-5.8773,-5.8207,-5.7978,-5.7978,-5.7978,-5.7978,-5.7978,-5.7978,-5.7978,-5.7978,-5.7868,-5.7501,-5.7042,-5.651,-5.5886,-5.473,-5.4454,-5.3922,-5.335,-5.3295,-5.3185,-5.3185,-5.3185,-5.3185,-5.3185,-5.3185,-5.3075,-5.2894,-5.2582,-5.2252,-5.1903,-5.1444,-5.1132,-5.1077,-5.0527,-4.9805,-4.8463,-4.7688,-4.7352,-4.6559,-4.5774,-4.572,-4.5991,-4.6058,-4.6481,-4.6887,-4.7022,-4.7158,-4.7462,-4.797,-4.7986,-4.797,-4.802,-4.8003,-4.7597,-4.7225,-4.7276,-4.7411,-4.6735,-4.6599,-4.6363,-4.5788,-4.572,-4.5652,-4.5652,-4.5669,-4.5602,-4.5585,-4.5579,-4.5432,-4.5297,-4.5449,-4.5618,-4.572,-4.5906,-4.5957,-4.621,-4.6718,-4.6836,-4.6481,-4.6447,-4.6718,-4.6667,-4.6464,-4.6041,-4.5534,-4.5466,-4.5517,-4.5889,-4.6397,-4.6735,-6.3801,-6.457,-6.4628,-6.5128,-6.5782,-6.5878,-6.5878,-6.5878,-6.5878,-6.5878,-6.5878,-6.5878,-6.5878,-6.5878,-6.5878,-6.5878,-6.5878,-6.5859,-6.5449,-6.4646,-6.3906,-6.255,-6.1182,-6.0035,-5.9094,-5.8248,-5.7978,-5.7978,-5.7978,-5.7978,-5.7978,-5.7978,-5.7978,-5.7978,-5.7978,-5.796,-5.7556,-5.6932,-5.673,-5.5776,-5.495,-5.4454,-5.3885,-5.3555,-5.3222,-5.3203,-5.3185,-5.3185,-5.3185,-5.3185,-5.3185,-5.3075,-5.3002,-5.3004,-5.2656,-5.2068,-5.1977,-5.1628,-5.0967,-5.0802,-4.996,-4.868,-4.8183,-4.7675,-4.6948,-4.6752,-4.6769,-4.6802,-4.7039,-4.7344,-4.7614,-4.7922,-4.8342,-4.8528,-4.8545,-4.8562,-4.8595,-4.8595,-4.8173,-4.7953,-4.8325,-4.8477,-4.7496,-4.6887,-4.6972,-4.6836,-4.6786,-4.6684,-4.6498,-4.6346,-4.6194,-4.6143,-4.6092,-4.6092,-4.6075,-4.6413,-4.6599,-4.6684,-4.6718,-4.6769,-4.6887,-4.7192,-4.7175,-4.6955,-4.7158,-4.7513,-4.7208,-4.6853,-4.6769,-4.6769,-4.6498,-4.6549,-4.6887,-4.7141,-4.7428,-6.2666,-6.3031,-6.4128,-6.4762,-6.5109,-6.5647,-6.5878,-6.5878,-6.5878,-6.5878,-6.5878,-6.5878,-6.5878,-6.5878,-6.5878,-6.5878,-6.5878,-6.5865,-6.5481,-6.4895,-6.4226,-6.2716,-6.1356,-6.025,-5.9276,-5.8322,-5.7978,-5.7978,-5.7978,-5.7978,-5.7978,-5.7978,-5.7978,-5.7978,-5.7978,-5.7978,-5.7776,-5.7519,-5.7097,-5.6473,-5.5904,-5.5023,-5.4308,-5.3977,-5.3518,-5.3259,-5.3203,-5.3185,-5.3185,-5.3185,-5.3185,-5.3185,-5.3185,-5.3185,-5.3057,-5.2784,-5.2784,-5.2729,-5.2454,-5.2223,-5.1169,-4.9835,-4.8876,-4.8347,-4.706,-4.734,-4.7462,-4.7648,-4.7885,-4.8223,-4.8595,-4.8629,-4.8849,-4.8849,-4.8866,-4.8866,-4.89,-4.89,-4.8731,-4.868,-4.8883,-4.89,-4.8274,-4.7817,-4.7767,-4.7614,-4.7513,-4.7141,-4.6887,-4.6752,-4.6616,-4.6599,-4.6583,-4.6667,-4.6819,-4.7141,-4.7192,-4.7124,-4.7327,-4.75,-4.7665,-4.78,-4.8003,-4.8037,-4.8173,-4.8257,-4.8003,-4.7868,-4.8156,-4.8173,-4.7631,-4.7361,-4.7581,-4.7767,-4.7953,-6.1831,-6.2216,-6.3262,-6.3897,-6.4301,-6.5397,-6.5878,-6.5878,-6.5878,-6.5878,-6.5878,-6.5878,-6.5878,-6.5878,-6.5878,-6.5878,-6.5878,-6.5878,-6.5616,-6.5089,-6.4565,-6.3024,-6.1575,-6.0494,-5.9492,-5.845,-5.7978,-5.7978,-5.7978,-5.7978,-5.7978,-5.7978,-5.7978,-5.7978,-5.7978,-5.7978,-5.796,-5.7776,-5.7446,-5.7079,-5.6528,-5.5831,-5.5005,-5.4436,-5.394,-5.3534,-5.3295,-5.3185,-5.3185,-5.3185,-5.3185,-5.3185,-5.3185,-5.3185,-5.3185,-5.3185,-5.3185,-5.3167,-5.3093,-5.3075,-5.1904,-5.045,-4.9824,-4.9039,-4.8129,-4.8248,-4.8254,-4.846,-4.8781,-4.8883,-4.8968,-4.9018,-4.9018,-4.9018,-4.9018,-4.9018,-4.9001,-4.9001,-4.9001,-4.9001,-4.9001,-4.9001,-4.9018,-4.8934,-4.8697,-4.8443,-4.8189,-4.7784,-4.7428,-4.7394,-4.7361,-4.7378,-4.7462,-4.7648,-4.775,-4.7851,-4.7817,-4.7614,-4.7834,-4.8125,-4.8342,-4.846,-4.8798,-4.9001,-4.8798,-4.868,-4.8849,-4.8917,-4.8798,-4.8629,-4.8291,-4.8173,-4.8274,-4.8359,-4.8443,-6.1312,-6.2005,-6.2101,-6.2589,-6.3493,-6.4955,-6.5724,-6.5878,-6.5878,-6.5878,-6.5878,-6.5878,-6.5878,-6.5878,-6.5878,-6.5878,-6.5821,-6.5821,-6.5432,-6.5083,-6.4643,-6.305,-6.1771,-6.0877,-5.9642,-5.8561,-5.7978,-5.7978,-5.7978,-5.7978,-5.7978,-5.7978,-5.7978,-5.7978,-5.7978,-5.7978,-5.7978,-5.7905,-5.7831,-5.7483,-5.7024,-5.6693,-5.5721,-5.4987,-5.4344,-5.3812,-5.346,-5.3185,-5.3185,-5.3185,-5.3185,-5.3185,-5.3185,-5.3185,-5.3185,-5.3185,-5.3185,-5.3185,-5.3185,-5.3185,-5.29,-5.1721,-5.1176,-5.0682,-4.9877,-4.9069,-4.8792,-4.8781,-4.8951,-4.8968,-4.9018,-4.9018,-4.9018,-4.9018,-4.9018,-4.9018,-4.9018,-4.9001,-4.9001,-4.9001,-4.9001,-4.9018,-4.9018,-4.9018,-4.9018,-4.8866,-4.8629,-4.8595,-4.8342,-4.8426,-4.8409,-4.8443,-4.8562,-4.8748,-4.8765,-4.8494,-4.8443,-4.824,-4.8443,-4.8731,-4.89,-4.8917,-4.8968,-4.9018,-4.9018,-4.9018,-4.9018,-4.9018,-4.8984,-4.8798,-4.8629,-4.8646,-4.8646,-4.8731,-4.8815,-6.0966,-6.1223,-6.1851,-6.2255,-6.2589,-6.3608,-6.4743,-6.5801,-6.5878,-6.5878,-6.5878,-6.5878,-6.5705,-6.5878,-6.5878,-6.584,-6.5691,-6.5461,-6.5019,-6.4622,-6.4049,-6.2508,-6.1345,-6.0471,-5.944,-5.8566,-5.7978,-5.7978,-5.7978,-5.7978,-5.7978,-5.7978,-5.7978,-5.7978,-5.7978,-5.7978,-5.7978,-5.7978,-5.7978,-5.7795,-5.7483,-5.7134,-5.6216,-5.5409,-5.4711,-5.4106,-5.3424,-5.3203,-5.3185,-5.3185,-5.3185,-5.3185,-5.3185,-5.3185,-5.3185,-5.3185,-5.3185,-5.3185,-5.3185,-5.3185,-5.3082,-5.2617,-5.1801,-5.0823,-5.0072,-4.9551,-4.9107,-4.9018,-4.9018,-4.9018,-4.9018,-4.9018,-4.9018,-4.9018,-4.9018,-4.9018,-4.9018,-4.9018,-4.9018,-4.9018,-4.9018,-4.9018,-4.9018,-4.9018,-4.9018,-4.9018,-4.9018,-4.9018,-4.9018,-4.9018,-4.9018,-4.9018,-4.9018,-4.9018,-4.9018,-4.8798,-4.8883,-4.8951,-4.9018,-4.9018,-4.8984,-4.8968,-4.9001,-4.9018,-4.9018,-4.9018,-4.9018,-4.9018,-4.9018,-4.9018,-4.8883,-4.8951,-4.9018,-4.9018,-4.9018,-6.08,-6.0877,-6.1339,-6.1774,-6.2159,-6.2627,-6.3628,-6.4724,-6.4859,-6.4878,-6.4878,-6.482,-6.4878,-6.4801,-6.4782,-6.4769,-6.4737,-6.4202,-6.3742,-6.3256,-6.2951,-6.1489,-6.043,-5.9869,-5.914,-5.8364,-5.7978,-5.7978,-5.7978,-5.7978,-5.7978,-5.7978,-5.7978,-5.7978,-5.7978,-5.7978,-5.7978,-5.7978,-5.7978,-5.7978,-5.7776,-5.7464,-5.6712,-5.5739,-5.5042,-5.4326,-5.3369,-5.324,-5.3185,-5.3185,-5.3185,-5.3185,-5.3185,-5.3185,-5.3185,-5.3185,-5.3185,-5.3185,-5.3185,-5.3185,-5.3185,-5.2915,-5.2172,-5.1494,-5.0581,-4.9907,-4.9376,-4.9018,-4.9018,-4.9018,-4.9018,-4.9018,-4.9018,-4.9018,-4.9018,-4.9018,-4.9018,-4.9018,-4.9018,-4.9018,-4.9018,-4.9018,-4.9018,-4.9018,-4.9018,-4.9018,-4.9018,-4.9018,-4.9018,-4.9018,-4.9018,-4.9018,-4.9018,-4.9018,-4.9018,-4.9018,-4.9018,-4.9018,-4.9018,-4.9018,-4.9018,-4.9018,-4.9018,-4.9018,-4.9018,-4.9018,-4.9018,-4.9018,-4.9018,-4.9018,-4.9018,-4.9018,-4.9018,-4.9018,-4.9018,-6.08,-6.08,-6.08,-6.1262,-6.1928,-6.2005,-6.2435,-6.307,-6.3096,-6.3224,-6.3358,-6.3365,-6.3512,-6.3705,-6.3705,-6.3647,-6.3527,-6.3125,-6.2698,-6.1881,-6.1591,-6.0585,-5.9747,-5.9166,-5.8841,-5.829,-5.7978,-5.7978,-5.7978,-5.7978,-5.7978,-5.7978,-5.7978,-5.7978,-5.7978,-5.7978,-5.7978,-5.7978,-5.7978,-5.7978,-5.7978,-5.7758,-5.7299,-5.6014,-5.5427,-5.4913,-5.3757,-5.3259,-5.3185,-5.3185,-5.3185,-5.3185,-5.3185,-5.3185,-5.3185,-5.3185,-5.3185,-5.3185,-5.3185,-5.3185,-5.3185,-5.2959,-5.2513,-5.2042,-5.1223,-5.0407,-4.9838,-4.9359,-4.9376,-4.9168,-4.9107,-4.9032,-4.9018,-4.9018,-4.9018,-4.9018,-4.9018,-4.9018,-4.9018,-4.9018,-4.9018,-4.9018,-4.9018,-4.9018,-4.9018,-4.9018,-4.9018,-4.9018,-4.9018,-4.9018,-4.9018,-4.9018,-4.9018,-4.9018,-4.9018,-4.9018,-4.9018,-4.9018,-4.9018,-4.9018,-4.9018,-4.9018,-4.9018,-4.9018,-4.9018,-4.9018,-4.9018,-4.9018,-4.9018,-4.9018,-4.9018,-4.9018,-4.9018,-4.9018,-4.9018,-6.08,-6.08,-6.08,-6.0954,-6.1089,-6.1108,-6.1223,-6.1396,-6.1396,-6.2147,-6.3108,-6.3231,-6.3212,-6.3089,-6.3089,-6.3089,-6.2977,-6.2239,-6.2036,-6.1544,-6.0967,-6.0115,-5.9352,-5.9099,-5.8699,-5.8235,-5.7978,-5.7978,-5.7978,-5.7978,-5.7978,-5.7978,-5.7978,-5.7978,-5.7978,-5.7978,-5.7978,-5.7978,-5.7978,-5.7978,-5.7978,-5.7886,-5.7464,-5.6547,-5.5959,-5.5244,-5.4234,-5.3515,-5.3332,-5.3185,-5.3185,-5.3185,-5.3185,-5.3185,-5.3185,-5.3185,-5.3185,-5.3185,-5.3185,-5.3185,-5.3185,-5.2999,-5.264,-5.2271,-5.1741,-5.099,-5.0435,-5.0033,-4.9652,-4.9389,-4.9182,-4.9107,-4.9018,-4.9018,-4.9018,-4.9018,-4.9018,-4.9018,-4.9018,-4.9018,-4.9018,-4.9018,-4.9018,-4.9018,-4.9018,-4.9018,-4.9018,-4.9018,-4.9018,-4.9018,-4.9018,-4.9018,-4.9018,-4.9018,-4.9018,-4.9018,-4.9018,-4.9018,-4.9018,-4.9018,-4.9018,-4.9018,-4.9018,-4.9018,-4.9018,-4.9018,-4.9018,-4.9018,-4.9018,-4.9018,-4.9018,-4.9018,-4.9018,-4.9018,-4.9018,-6.08,-6.08,-6.08,-6.08,-6.08,-6.08,-6.08,-6.08,-6.08,-6.13,-6.2089,-6.2185,-6.2204,-6.2204,-6.2185,-6.2281,-6.2125,-6.1427,-6.1074,-6.078,-6.0432,-5.9653,-5.9211,-5.9025,-5.8542,-5.8129,-5.8001,-5.7978,-5.7978,-5.7978,-5.7978,-5.7978,-5.7978,-5.7978,-5.7978,-5.7978,-5.7978,-5.7978,-5.7978,-5.7978,-5.7978,-5.7905,-5.7574,-5.684,-5.6308,-5.5629,-5.495,-5.4216,-5.3867,-5.3552,-5.3424,-5.3222,-5.3185,-5.3185,-5.3185,-5.3185,-5.3185,-5.3185,-5.3185,-5.3185,-5.3185,-5.2999,-5.2937,-5.2662,-5.2684,-5.1988,-5.1393,-5.0929,-5.0033,-4.9693,-4.9492,-4.9359,-4.9107,-4.9018,-4.9018,-4.9018,-4.9018,-4.9018,-4.9018,-4.9018,-4.9018,-4.9018,-4.9018,-4.9018,-4.9018,-4.9018,-4.9018,-4.9018,-4.9018,-4.9018,-4.9018,-4.9018,-4.9018,-4.9018,-4.9018,-4.9018,-4.9018,-4.9018,-4.9018,-4.9018,-4.9018,-4.9018,-4.9018,-4.9018,-4.9018,-4.9018,-4.9018,-4.9018,-4.9018,-4.9018,-4.9018,-4.9018,-4.9018,-4.9018,-4.9018,-6.08,-6.08,-6.08,-6.08,-6.08,-6.08,-6.08,-6.08,-6.08,-6.08,-6.0935,-6.0935,-6.08,-6.08,-6.08,-6.08,-6.0737,-6.0614,-6.0317,-6.0125,-5.9717,-5.9384,-5.9116,-5.8849,-5.8563,-5.8275,-5.8051,-5.8024,-5.7978,-5.7978,-5.7978,-5.7978,-5.7978,-5.7978,-5.7978,-5.7978,-5.7978,-5.7978,-5.7978,-5.7978,-5.7978,-5.7978,-5.7593,-5.7207,-5.6804,-5.6418,-5.5702,-5.5078,-5.4638,-5.4271,-5.3904,-5.3628,-5.3369,-5.3332,-5.3185,-5.3185,-5.3185,-5.3185,-5.3185,-5.3185,-5.3185,-5.3164,-5.3185,-5.3185,-5.3164,-5.2853,-5.2242,-5.1661,-5.077,-5.0044,-4.985,-4.9462,-4.9182,-4.9018,-4.9018,-4.9018,-4.9018,-4.9018,-4.9018,-4.9018,-4.9018,-4.9018,-4.9018,-4.9018,-4.9018,-4.9018,-4.9018,-4.9018,-4.9018,-4.9018,-4.9018,-4.9018,-4.9018,-4.9018,-4.9018,-4.9018,-4.9018,-4.9018,-4.9018,-4.9018,-4.9018,-4.9018,-4.9018,-4.9018,-4.9018,-4.9018,-4.9018,-4.9018,-4.9018,-4.9018,-4.9018,-4.9018,-4.9018,-4.9018,-4.9018,-6.08,-6.08,-6.08,-6.08,-6.08,-6.08,-6.08,-6.08,-6.08,-6.08,-6.08,-6.08,-6.08,-6.08,-6.08,-6.0781,-6.0714,-6.0351,-6.0161,-6.003,-5.9773,-5.9475,-5.9212,-5.9065,-5.8932,-5.8549,-5.8146,-5.8001,-5.7978,-5.7978,-5.7978,-5.7978,-5.7978,-5.7978,-5.7978,-5.7978,-5.7978,-5.7978,-5.7978,-5.7978,-5.7978,-5.7978,-5.796,-5.7574,-5.7134,-5.684,-5.6363,-5.5757,-5.5464,-5.5115,-5.462,-5.4271,-5.3922,-5.361,-5.335,-5.3185,-5.3185,-5.3185,-5.3185,-5.3185,-5.3185,-5.3185,-5.3185,-5.3185,-5.3185,-5.3164,-5.2765,-5.2613,-5.1703,-5.0662,-5.023,-4.9521,-4.9138,-4.9063,-4.9018,-4.9018,-4.9018,-4.9018,-4.9018,-4.9018,-4.9018,-4.9018,-4.9018,-4.9018,-4.9018,-4.9018,-4.9018,-4.9018,-4.9018,-4.9018,-4.9018,-4.9018,-4.9018,-4.9018,-4.9018,-4.9018,-4.9018,-4.9018,-4.9018,-4.9018,-4.9018,-4.9018,-4.9018,-4.9018,-4.9018,-4.9018,-4.9018,-4.9018,-4.9018,-4.9018,-4.9018,-4.9018,-4.9018,-4.9137,-4.9238]},{"header":{"parameterUnit":"m.s-1","parameterCategory":1,"la1":31.0,"la2":29.5877,"lo1":-88.7671,"lo2":-86.6584,"dy":0.0162,"dx":0.0185,"nx":115,"ny":88,"refTime":"2026-03-13T12:00:00:Z","depth":0,"parameterNumber":3,"parameterNumberName":"V-component_of_WINDS"},"data":[0.0,0.0,0.0,0.0,0.0,0.0,0.0,0.0,0.0,0.0,0.0,0.0,0.0,0.0,0.0,0.0,0.0,0.0,0.0,0.0,0.0,0.0,0.0,0.0,0.0,0.0,0.0,0.0,0.0,0.0,0.0,0.0,0.0,0.0,0.0,0.0,0.0,0.0,0.0,0.0,0.0,0.0,0.0,0.0,0.0,0.0,0.0,0.0,0.0,0.0,0.0,0.0,0.0,0.0,0.0,0.0,0.0,0.0,0.0,0.0,0.0,0.0,0.0,0.0,0.0,0.0,0.0,0.0,0.0,0.0,0.0,0.0,0.0,0.0,0.0,0.0,0.0,0.0,0.0,0.0,0.0,0.0,0.0,0.0,0.0,0.0,0.0,0.0,0.0,0.0,0.0,0.0,0.0,0.0,0.0,0.0,0.0,0.0,0.0,0.0,0.0,0.0,0.0,0.0,0.0,0.0,0.0,0.0,0.0,0.0,0.0,0.0,0.0,0.0,0.0,0.0,0.0,0.0,0.0,0.0,0.0,0.0,0.0,0.0,0.0,0.0,0.0,0.0,0.0,0.0,0.0,0.0,0.0,0.0,0.0,0.0,0.0,0.0,0.0,0.0,0.0,0.0,0.0,0.0,0.0,0.0,0.0,0.0,0.0,0.0,0.0,0.0,0.0,0.0,0.0,0.0,0.0,0.0,0.0,0.0,0.0,0.0,0.0,0.0,0.0,0.0,0.0,0.0,0.0,0.0,0.0,0.0,0.0,0.0,0.0,0.0,0.0,0.0,0.0,0.0,0.0,0.0,0.0,0.0,0.0,0.0,0.0,0.0,0.0,0.0,0.0,0.0,0.0,0.0,0.0,0.0,0.0,0.0,0.0,0.0,0.0,0.0,0.0,0.0,0.0,0.0,0.0,0.0,0.0,0.0,0.0,0.0,0.0,0.0,0.0,0.0,0.0,0.0,0.0,0.0,0.0,0.0,0.0,0.0,0.0,0.0,0.0,0.0,0.0,0.0,0.0,0.0,0.0,0.0,0.0,0.0,0.0,0.0,0.0,0.0,0.0,0.0,0.0,0.0,0.0,0.0,0.0,0.0,0.0,0.0,0.0,0.0,0.0,0.0,0.0,0.0,0.0,0.0,0.0,0.0,0.0,0.0,0.0,0.0,0.0,0.0,0.0,0.0,0.0,0.0,0.0,0.0,0.0,0.0,0.0,0.0,0.0,0.0,0.0,0.0,0.0,0.0,0.0,0.0,0.0,0.0,0.0,0.0,0.0,0.0,0.0,0.0,0.0,0.0,0.0,0.0,0.0,0.0,0.0,0.0,0.0,0.0,0.0,0.0,0.0,0.0,0.0,0.0,0.0,0.0,0.0,0.0,0.0,0.0,0.0,0.0,0.0,0.0,0.0,0.0,0.0,0.0,0.0,0.0,0.0,0.0,0.0,0.0,0.0,0.0,0.0,0.0,0.0,0.0,0.0,0.0,0.0,0.0,0.0,0.0,0.0,0.0,0.0,0.0,0.0,0.0,0.0,0.0,0.0,0.0,0.0,0.0,0.0,0.0,0.0,0.0,0.0,0.0,0.0,0.0,0.0,0.0,0.0,0.0,0.0,0.0,0.0,0.0,0.0,0.0,0.0,0.0,0.0,0.0,0.0,0.0,0.0,0.0,0.0,0.0,0.0,0.0,0.0,0.0,0.0,0.0,0.0,0.0,0.0,0.0,0.0,0.0,0.0,0.0,0.0,0.0,0.0,0.0,0.0,0.0,0.0,0.0,0.0,0.0,0.0,0.0,0.0,0.0,0.0,0.0,0.0,0.0,0.0,0.0,0.0,0.0,0.0,0.0,0.0,0.0,0.0,0.0,0.0,0.0,0.0,0.0,0.0,0.0,0.0,0.0,0.0,0.0,0.0,0.0,0.0,0.0,0.0,0.0,0.0,0.0,0.0,0.0,0.0,0.0,0.0,0.0,0.0,0.0,0.0,0.0,0.0,0.0,0.0,0.0,0.0,0.0,0.0,0.0,0.0,0.0,0.0,0.0,0.0,0.0,0.0,0.0,0.0,0.0,0.0,0.0,0.0,0.0,0.0,0.0,0.0,0.0,0.0,0.0,0.0,0.0,0.0,0.0,0.0,0.0,0.0,0.0,0.0,0.0,0.0,0.0,0.0,0.0,0.0,0.0,0.0,0.0,0.0,0.0,0.0,0.0,0.0,0.0,0.0,0.0,0.0,0.0,0.0,0.0,0.0,0.0,0.0,0.0,0.0,0.0,0.0,0.0,0.0,0.0,0.0,0.0,0.0,0.0,0.0,0.0,0.0,0.0,0.0,0.0,0.0,0.0,0.0,0.0,0.0,0.0,0.0,0.0,0.0,0.0,0.0,0.0,0.0,0.0,0.0,0.0,0.0,0.0,0.0,0.0,0.0,0.0,0.0,0.0,0.0,0.0,0.0,0.0,0.0,0.0,0.0,0.0,0.0,0.0,0.0,0.0,0.0,0.0,0.0,0.0,0.0,0.0,0.0,0.0,0.0,0.0,0.0,0.0,0.0,0.0,0.0,0.0,0.0,0.0,0.0,0.0,0.0,0.0,0.0,0.0,0.0,0.0,0.0,0.0,0.0,0.0,0.0,0.0,0.0,0.0,0.0,0.0,0.0,0.0,0.0,0.0,0.0,0.0,0.0,0.0,0.0,0.0,0.0,0.0,0.0,0.0,0.0,0.0,0.0,0.0,0.0,0.0,0.0,0.0,0.0,0.0,0.0,0.0,0.0,0.0,0.0,0.0,0.0,0.0,0.0,0.0,0.0,0.0,0.0,0.0,0.0,0.0,0.0,0.0,0.0,0.0,0.0,0.0,0.0,0.0,0.0,0.0,0.0,0.0,0.0,0.0,0.0,0.0,0.0,0.0,0.0,0.0,0.0,0.0,0.0,0.0,0.0,0.0,0.0,0.0,0.0,0.0,0.0,0.0,0.0,0.0,0.0,0.0,0.0,0.0,0.0,0.0,0.0,0.0,0.0,0.0,0.0,0.0,0.0,0.0,0.0,0.0,0.0,0.0,0.0,0.0,0.0,0.0,0.0,0.0,0.0,0.0,0.0,0.0,0.0,0.0,0.0,0.0,0.0,0.0,0.0,0.0,0.0,0.0,0.0,0.0,0.0,0.0,0.0,0.0,0.0,0.0,0.0,0.0,0.0,0.0,0.0,0.0,0.0,0.0,0.0,0.0,0.0,0.0,0.0,0.0,0.0,0.0,0.0,0.0,0.0,0.0,0.0,0.0,0.0,0.0,0.0,0.0,0.0,0.0,0.0,0.0,0.0,0.0,0.0,0.0,0.0,0.0,0.0,0.0,0.0,0.0,0.0,0.0,0.0,0.0,0.0,0.0,0.0,0.0,0.0,0.0,0.0,0.0,0.0,0.0,0.0,0.0,0.0,0.0,0.0,0.0,0.0,0.0,0.0,0.0,0.0,0.0,0.0,0.0,0.0,0.0,0.0,0.0,0.0,0.0,0.0,0.0,0.0,0.0,0.0,0.0,0.0,0.0,0.0,0.0,0.0,0.0,0.0,0.0,0.0,0.0,0.0,0.0,0.0,0.0,0.0,0.0,0.0,0.0,0.0,0.0,0.0,0.0,0.0,0.0,0.0,0.0,0.0,0.0,0.0,0.0,0.0,0.0,0.0,0.0,0.0,0.0,0.0,0.0,0.0,0.0,0.0,0.0,0.0,0.0,0.0,0.0,0.0,0.0,0.0,0.0,0.0,0.0,0.0,0.0,0.0,0.0,0.0,0.0,0.0,0.0,0.0,0.0,0.0,0.0,0.0,0.0,0.0,0.0,0.0,0.0,0.0,0.0,0.0,0.0,0.0,0.0,0.0,0.0,0.0,0.0,0.0,0.0,0.0,0.0,0.0,0.0,0.0,0.0,0.0,0.0,0.0,0.0,0.0,0.0,0.0,0.0,0.0,0.0,0.0,0.0,0.0,0.0,0.0,0.0,0.0,0.0,0.0,0.0,0.0,0.0,0.0,0.0,0.0,0.0,0.0,0.0,0.0,0.0,0.0,0.0,0.0,0.0,0.0,0.0,0.0,0.0,0.0,0.0,0.0,0.0,0.0,0.0,0.0,0.0,0.0,0.0,0.0,0.0,0.0,0.0,0.0,0.0,0.0,0.0,0.0,0.0,0.0,0.0,0.0,0.0,0.0,0.0,0.0,0.0,0.0,0.0,0.0,0.0,0.0,0.0,0.0,0.0,0.0,0.0,0.0,0.0,1.321,0.0,0.0,0.0,0.0,0.0,0.0,0.0,0.0,0.0,0.0,0.0,0.0,0.0,0.0,0.0,0.0,0.0,0.0,0.0,0.0,0.0,0.0,0.0,0.0,0.0,0.0,0.0,0.0,0.0,0.0,0.0,0.0,0.0,0.0,0.0,0.0,0.0,0.0,0.0,0.0,0.0,0.0,0.0,0.0,0.0,0.0,0.0,0.0,0.0,0.0,0.0,0.0,0.0,0.0,0.0,0.0,0.0,0.0,0.0,0.0,0.0,0.0,0.0,0.0,0.0,0.0,0.0,0.0,0.0,0.0,0.0,0.0,0.0,0.0,0.0,0.0,0.0,0.0,0.0,0.0,0.0,0.0,0.0,0.0,0.0,0.0,0.0,0.0,0.0,0.0,0.0,0.0,0.0,0.0,0.0,0.0,0.0,0.0,0.0,0.0,0.0,0.0,0.0,0.0,0.0,0.0,0.0,0.0,0.0,0.0,1.321,1.321,1.321,1.321,1.321,0.0,0.0,0.0,0.0,0.0,0.0,0.0,0.0,0.0,0.0,0.0,0.0,0.0,0.0,0.0,0.0,0.0,0.0,0.0,0.0,0.0,0.0,0.0,0.0,0.0,0.0,0.0,0.0,0.0,0.0,0.0,0.0,0.0,0.0,0.0,0.0,0.0,0.0,0.0,0.0,0.0,0.0,0.0,0.0,0.0,0.0,0.0,0.0,0.0,0.0,0.0,0.0,0.0,0.0,0.0,0.0,0.0,0.0,0.0,0.0,0.0,0.0,0.0,0.0,0.0,0.0,0.0,0.0,0.0,0.0,0.0,0.0,0.0,0.0,0.0,0.0,0.0,0.0,0.0,0.0,0.0,0.0,0.0,0.0,0.0,0.0,0.0,0.0,0.0,0.0,0.0,0.0,0.0,0.0,0.0,0.0,0.0,0.0,0.0,0.0,0.0,0.0,0.0,0.0,0.0,0.0,0.0,0.0,0.0,0.0,0.0,0.0,1.3215,1.3268,1.3416,0.0,0.0,0.0,0.0,0.0,0.0,0.0,0.0,0.0,0.0,0.0,0.0,0.0,0.0,0.0,0.0,0.0,0.0,0.0,0.0,0.0,0.0,0.0,0.0,0.0,0.0,0.0,0.0,0.0,0.0,0.0,0.0,0.0,0.0,0.0,0.0,0.0,0.0,0.0,0.0,0.0,0.0,0.0,0.0,0.0,0.0,0.0,0.0,0.0,0.0,0.0,0.0,0.0,0.0,0.0,0.0,0.0,0.0,0.0,0.0,0.0,0.0,0.0,0.0,0.0,0.0,0.0,0.0,0.0,0.0,0.0,0.0,0.0,0.0,0.0,0.0,0.0,0.0,0.0,0.0,0.0,0.0,0.0,0.0,0.0,0.0,0.0,0.0,0.0,0.0,0.0,0.0,0.0,0.0,0.0,0.0,0.0,0.0,0.0,0.0,0.0,0.0,0.0,0.0,0.0,0.0,0.0,0.0,0.0,0.0,1.2291,1.308,1.3216,0.0,1.4011,0.0,0.0,0.0,0.0,0.0,0.0,0.0,0.0,0.0,0.0,0.0,0.0,0.0,0.0,0.0,0.0,0.0,0.0,0.0,0.0,0.0,0.0,0.0,0.0,0.0,0.0,0.0,0.0,0.0,0.0,0.0,0.0,0.0,0.0,0.0,0.0,0.0,0.0,0.0,0.0,0.0,0.0,0.0,0.0,0.0,0.0,0.0,0.0,0.0,0.0,0.0,0.0,0.0,0.0,0.0,0.0,0.0,0.0,0.0,0.0,0.0,0.0,0.0,0.0,0.0,0.0,0.0,0.0,0.0,0.0,0.0,0.0,0.0,0.0,0.0,0.0,0.0,0.0,0.0,0.0,0.0,0.0,0.0,0.0,0.0,0.0,0.0,0.0,0.0,0.0,0.0,0.0,0.0,0.0,0.0,0.0,0.0,0.0,0.0,0.0,0.0,0.0,0.0,0.0,0.0,0.0,0.0,0.0,0.0,0.0,0.0,1.2685,1.2743,1.3193,0.0,0.0,0.0,0.0,0.0,0.0,0.0,0.0,0.0,0.0,0.0,0.0,0.0,0.0,0.0,0.0,0.0,0.0,0.0,0.0,0.0,0.0,0.0,0.0,0.0,0.0,0.0,0.0,0.0,0.0,0.0,0.0,0.0,0.0,0.0,0.0,0.0,0.0,0.0,0.0,0.0,0.0,0.0,0.0,0.0,0.0,0.0,0.0,0.0,0.0,0.0,0.0,0.0,0.0,0.0,0.0,0.0,0.0,0.0,0.0,0.0,0.0,0.0,0.0,0.0,0.0,0.0,0.0,0.0,0.0,0.0,0.0,0.0,0.0,0.0,0.0,0.0,0.0,0.0,0.0,0.0,0.0,0.0,0.0,0.0,0.0,0.0,0.0,0.0,0.0,0.0,0.0,0.0,0.0,0.0,0.0,0.0,0.0,0.0,0.0,0.0,0.0,0.0,0.0,0.0,0.0,0.0,0.0,0.0,0.0,1.1715,0.0,1.2403,1.2565,1.3016,1.3853,0.0,0.0,0.0,0.0,0.0,0.0,0.0,0.0,0.0,0.0,0.0,0.0,0.0,0.0,0.0,0.0,0.0,0.0,0.0,0.0,0.0,0.0,0.0,0.0,0.0,0.0,0.0,0.0,0.0,0.0,0.0,0.0,0.0,0.0,0.0,0.0,0.0,0.0,0.0,0.0,0.0,0.0,0.0,0.0,0.0,0.0,0.0,0.0,0.0,0.0,0.0,0.0,0.0,0.0,0.0,0.0,0.0,0.0,0.0,0.0,0.0,0.0,0.0,0.0,0.0,0.0,0.0,0.0,0.0,0.0,0.0,0.0,0.0,0.0,0.0,0.0,0.0,0.0,0.0,0.0,0.0,0.0,0.0,0.0,0.0,0.0,0.0,0.0,0.0,0.0,0.0,0.0,0.0,0.0,0.0,0.0,0.0,0.0,0.0,0.0,0.0,0.0,0.0,0.0,0.0,0.0,0.0,0.0,0.0,1.1157,1.1479,1.2489,1.2928,1.3214,0.0,0.0,0.0,0.0,0.0,0.0,0.0,0.0,0.0,0.0,0.0,0.0,0.0,0.0,0.0,0.0,0.0,0.0,0.0,0.0,0.0,0.0,0.0,0.0,0.0,0.0,0.0,0.0,0.0,0.0,0.0,0.0,0.0,0.0,0.0,0.0,0.0,0.0,0.0,0.0,0.0,0.0,0.0,0.0,0.0,0.0,0.0,0.0,0.0,0.0,0.0,0.0,0.0,0.0,0.0,0.0,0.0,0.0,0.0,0.0,0.0,0.0,0.0,0.0,0.0,0.0,0.0,0.0,0.0,0.0,0.0,0.0,0.0,0.0,0.0,0.0,0.0,0.0,0.0,0.0,0.0,0.0,0.0,0.0,0.0,0.0,0.0,0.0,0.0,0.0,0.0,0.0,0.0,0.0,0.0,0.0,0.0,0.0,0.0,0.0,0.0,0.0,0.0,0.0,0.0,0.0,0.0,0.0,0.0,1.0753,1.085,1.1536,1.2793,1.2162,1.2161,0.0,0.0,0.0,0.0,0.0,0.0,0.0,0.0,0.0,0.0,0.0,0.0,0.0,0.0,0.0,0.0,0.0,0.0,0.0,0.0,0.0,0.0,0.0,0.0,0.0,0.0,0.0,0.0,0.0,0.0,0.0,0.0,0.0,0.0,0.0,0.0,0.0,0.0,0.0,0.0,0.0,0.0,0.0,0.0,0.0,0.0,0.0,0.0,0.0,0.0,0.0,0.0,0.0,0.0,0.0,0.0,0.0,0.0,0.0,0.0,0.0,0.0,0.0,0.0,0.0,0.0,0.0,0.0,0.0,0.0,0.0,0.0,0.0,0.0,0.0,0.0,0.0,0.0,0.0,0.0,0.0,0.0,0.0,0.0,0.0,0.0,0.0,0.0,0.0,0.0,0.0,0.0,0.0,0.0,0.0,0.0,0.0,0.0,0.0,0.0,0.0,0.0,0.0,0.0,0.0,0.0,0.0,0.0,0.0,1.0714,0.0,1.1739,0.0,1.1652,1.1521,0.0,0.0,0.0,0.0,0.0,0.0,0.0,0.0,0.0,0.0,0.0,0.0,0.0,0.0,0.0,0.0,0.0,0.0,0.0,0.0,0.0,0.0,0.0,0.0,0.0,0.0,0.0,0.0,0.0,0.0,0.0,0.0,0.0,0.0,0.0,0.0,0.0,0.0,0.0,0.0,0.0,0.0,0.0,0.0,0.0,0.0,0.0,0.0,0.0,0.0,0.0,0.0,0.0,0.0,0.0,0.0,0.0,0.0,0.0,0.0,0.0,0.0,0.0,0.0,0.0,0.0,0.0,0.0,0.0,0.0,0.0,0.0,0.0,0.0,0.0,0.0,0.0,0.0,0.0,0.0,0.0,0.0,0.0,0.0,0.0,0.0,0.0,0.0,0.0,0.0,0.0,0.0,0.0,0.0,0.0,0.0,0.0,0.0,0.0,0.0,0.0,0.0,0.0,0.0,0.0,0.0,0.0,0.0,1.0733,1.1547,1.194,1.2025,1.1655,1.1596,1.1405,0.0,0.0,0.0,0.0,0.0,0.0,0.0,0.0,0.0,0.0,0.0,0.0,0.0,0.0,0.0,0.0,0.0,0.0,0.0,0.0,0.0,0.0,0.0,0.0,0.0,0.0,0.0,0.0,0.0,0.0,0.0,0.0,0.0,0.0,0.0,0.0,0.0,0.0,0.0,0.0,0.0,0.0,0.0,0.0,0.0,0.0,0.0,0.0,0.0,0.0,0.0,0.0,0.0,0.0,0.0,0.0,0.0,0.0,0.0,0.0,0.0,0.0,0.0,0.0,0.0,0.0,0.0,0.0,0.0,0.0,0.0,0.0,0.0,0.0,0.0,0.0,0.0,0.0,0.0,0.0,0.0,0.0,0.0,0.0,0.0,0.0,0.0,0.0,0.0,0.0,0.0,0.0,0.0,0.0,0.0,0.0,0.0,0.0,0.0,0.0,0.0,0.0,0.0,0.0,0.0,0.0,0.0,0.0,0.0,1.1154,1.1814,1.2291,1.2455,1.1582,1.1333,0.0,0.0,0.0,0.0,0.0,0.0,0.0,0.0,0.0,0.0,0.0,0.0,0.0,0.0,0.0,0.0,0.0,0.0,0.0,0.0,0.0,0.0,0.0,0.0,0.0,0.0,0.0,0.0,0.0,0.0,0.0,0.0,0.0,0.0,0.0,0.0,0.0,0.0,0.0,0.0,0.0,0.0,0.0,0.0,0.0,0.0,0.0,0.0,0.0,0.0,0.0,0.0,0.0,0.0,0.0,0.0,0.0,0.0,0.0,0.0,0.0,0.0,0.0,0.0,0.0,0.0,0.0,0.0,0.0,0.0,0.0,0.0,0.0,0.0,0.0,0.0,0.0,0.0,0.0,0.0,0.0,0.0,0.0,0.0,0.0,0.0,0.0,0.0,0.0,0.0,0.0,0.0,0.0,0.0,0.0,0.0,0.0,0.0,0.0,0.0,0.0,0.0,0.0,0.0,0.0,0.0,0.0,0.0,0.0,1.2135,1.2632,1.2973,1.3105,1.2158,1.1743,1.189,0.0,0.0,0.0,0.0,0.0,0.0,0.0,0.0,0.0,0.0,0.0,0.0,0.0,0.0,0.0,0.0,0.0,0.0,0.0,0.0,0.0,0.0,0.0,0.0,0.0,0.0,0.0,0.0,0.0,0.0,0.0,0.0,0.0,0.0,0.0,0.0,0.0,0.0,0.0,0.0,0.0,0.0,0.0,0.0,0.0,0.0,0.0,0.0,0.0,0.0,0.0,0.0,0.0,0.0,0.0,0.0,0.0,0.0,0.0,0.0,0.0,0.0,0.0,0.0,0.0,0.0,0.0,0.0,0.0,0.0,0.0,0.0,0.0,0.0,0.0,0.0,0.0,0.0,0.0,0.0,0.0,0.0,0.0,0.0,0.0,0.0,0.0,0.0,0.0,0.0,0.0,0.0,0.0,0.0,0.0,0.0,0.0,0.0,0.0,0.0,0.0,0.0,0.0,0.0,0.0,0.0,0.0,0.0,1.4241,1.4299,1.4114,1.3682,1.3174,1.2553,0.0,0.0,0.0,0.0,0.0,0.0,0.0,0.0,0.0,0.0,0.0,0.0,0.0,0.0,0.0,0.0,0.0,0.0,0.0,0.0,0.0,0.0,0.0,0.0,0.0,0.0,0.0,0.0,0.0,0.0,0.0,0.0,0.0,0.0,0.0,0.0,0.0,0.0,0.0,0.0,0.0,0.0,0.0,0.0,0.0,0.0,0.0,0.0,0.0,0.0,0.0,0.0,0.0,0.0,0.0,0.0,0.0,0.0,0.0,0.0,0.0,0.0,0.0,0.0,0.0,0.0,0.0,0.0,0.0,0.0,0.0,0.0,0.0,0.0,0.0,0.0,0.0,0.0,0.0,0.0,0.0,0.0,0.0,0.0,0.0,0.0,0.0,0.0,0.0,0.0,0.0,0.0,0.0,0.0,0.0,0.0,0.0,0.0,0.0,0.0,0.0,0.0,0.0,0.0,0.0,0.0,0.0,0.0,0.0,1.5995,1.6638,1.6484,1.5439,1.4062,1.3242,0.0,0.0,0.0,0.0,0.0,0.0,0.0,0.0,0.0,0.0,0.0,0.0,0.0,0.0,0.0,0.0,0.0,0.0,0.0,0.0,0.0,0.0,0.0,0.0,0.0,0.0,0.0,0.0,0.0,0.0,0.0,0.0,0.0,0.0,0.0,0.0,0.0,0.0,0.0,0.0,0.0,0.0,0.0,0.0,0.0,0.0,0.0,0.0,0.0,0.0,0.0,0.0,0.0,0.0,0.0,0.0,0.0,0.0,0.0,0.0,0.0,0.0,0.0,0.0,0.0,0.0,0.0,0.0,0.0,0.0,0.0,0.0,0.0,0.0,0.0,0.0,0.0,0.0,0.0,0.0,0.0,0.0,0.0,0.0,0.0,0.0,0.0,0.0,0.0,0.0,0.0,0.0,0.0,0.0,0.0,0.0,0.0,0.0,0.0,0.0,0.0,0.0,0.0,0.0,0.0,0.0,0.0,0.0,1.5957,1.7246,1.8105,1.8184,1.7465,1.5762,1.4484,0.0,0.0,0.0,0.0,0.0,0.0,0.0,0.0,0.0,0.0,0.0,0.0,0.0,0.0,0.0,0.0,0.0,0.0,0.0,0.0,0.0,0.0,0.0,0.0,0.0,0.0,0.0,0.0,0.0,0.0,0.0,0.0,0.0,0.0,0.0,0.0,0.0,0.0,0.0,0.0,0.0,0.0,0.0,0.0,0.0,0.0,0.0,0.0,0.0,0.0,0.0,0.0,0.0,0.0,0.0,0.0,0.0,0.0,0.0,0.0,0.0,0.0,0.0,0.0,0.0,0.0,0.0,0.0,0.0,0.0,0.0,0.0,0.0,0.0,0.0,0.0,0.0,0.0,0.0,0.0,0.0,0.0,0.0,0.0,0.0,0.0,0.0,0.0,0.0,0.0,0.0,0.0,0.0,0.0,0.0,0.0,0.0,0.0,0.0,0.0,0.0,0.0,0.0,0.0,0.0,0.0,0.0,0.0,1.6593,1.7944,1.8831,1.9275,1.9307,1.7613,1.5927,0.0,0.0,0.0,0.0,0.0,0.0,0.0,0.0,0.0,0.0,0.0,0.0,0.0,0.0,0.0,0.0,0.0,0.0,0.0,0.0,0.0,0.0,0.0,0.0,0.0,0.0,0.0,0.0,0.0,0.0,0.0,0.0,0.0,0.0,0.0,0.0,0.0,0.0,0.0,0.0,0.0,0.0,0.0,0.0,0.0,0.0,0.0,0.0,0.0,0.0,0.0,0.0,0.0,0.0,0.0,0.0,0.0,0.0,0.0,0.0,0.0,0.0,0.0,0.0,0.0,0.0,0.0,0.0,0.0,0.0,0.0,0.0,0.0,0.0,0.0,0.0,0.0,0.0,0.0,0.0,0.0,0.0,0.0,0.0,0.0,0.0,0.0,0.0,0.0,0.0,0.0,0.0,0.0,0.0,0.0,0.0,0.0,0.0,0.0,0.0,0.0,0.0,0.0,0.0,0.0,0.0,0.0,0.0,1.5791,1.7725,1.8614,1.9304,1.9738,1.7769,1.621,0.0,0.0,0.0,0.0,0.0,0.0,0.0,0.0,0.0,0.0,0.0,0.0,0.0,0.0,0.0,0.0,0.0,0.0,0.0,0.0,0.0,0.0,0.0,0.0,0.0,0.0,0.0,0.0,0.0,0.0,0.0,0.0,0.0,0.0,0.0,0.0,0.0,0.0,0.0,0.0,0.0,0.0,0.0,0.0,0.0,0.0,0.0,0.0,1.6382,0.0,0.0,0.0,0.0,0.0,0.0,0.0,0.0,0.0,0.0,0.0,0.0,0.0,0.0,0.0,0.0,0.0,0.0,0.0,0.0,0.0,0.0,0.0,0.0,0.0,0.0,0.0,0.0,0.0,0.0,0.0,0.0,0.0,0.0,0.0,0.0,0.0,0.0,0.0,0.0,0.0,0.0,0.0,0.0,0.0,0.0,0.0,0.0,0.0,0.0,0.0,0.0,0.0,0.0,0.0,0.0,0.0,0.0,0.0,1.5638,1.7355,1.7942,1.8661,1.9536,1.7834,1.6495,0.0,0.0,0.0,0.0,0.0,0.0,0.0,0.0,0.0,0.0,0.0,0.0,0.0,0.0,0.0,0.0,0.0,0.0,0.0,0.0,0.0,0.0,0.0,0.0,0.0,0.0,0.0,0.0,0.0,0.0,0.0,0.0,0.0,0.0,0.0,0.0,0.0,0.0,0.0,0.0,0.0,0.0,0.0,0.0,0.0,0.0,0.0,0.0,0.0,0.0,0.0,0.0,0.0,0.0,0.0,0.0,0.0,0.0,0.0,0.0,0.0,0.0,0.0,0.0,0.0,0.0,0.0,0.0,0.0,0.0,0.0,0.0,0.0,0.0,0.0,0.0,0.0,0.0,0.0,0.0,0.0,0.0,0.0,0.0,0.0,0.0,0.0,0.0,0.0,0.0,0.0,0.0,0.0,0.0,0.0,0.0,0.0,0.0,0.0,0.0,0.0,0.0,0.0,0.0,0.0,0.0,0.0,1.3715,1.5375,1.6854,1.7212,1.8024,1.9334,1.8064,1.698,1.619,0.0,0.0,0.0,0.0,0.0,0.0,0.0,0.0,0.0,0.0,0.0,0.0,0.0,0.0,0.0,0.0,0.0,0.0,0.0,0.0,0.0,0.0,0.0,0.0,0.0,0.0,0.0,0.0,0.0,0.0,0.0,0.0,0.0,0.0,0.0,0.0,0.0,0.0,1.2068,1.3941,0.0,0.0,0.0,0.0,0.0,0.0,0.0,0.0,1.5985,0.0,0.0,0.0,0.0,0.0,0.0,0.0,0.0,0.0,0.0,0.0,0.0,0.0,0.0,0.0,0.0,0.0,0.0,0.0,0.0,0.0,0.0,0.0,0.0,0.0,0.0,0.0,0.0,0.0,0.0,0.0,0.0,0.0,0.0,0.0,0.0,0.0,0.0,0.0,0.0,0.0,0.0,0.0,0.0,0.0,0.0,0.0,0.0,0.0,0.0,0.0,0.0,0.0,0.0,0.0,0.0,1.2221,1.2563,1.3901,1.6224,1.7203,1.8245,1.9343,1.9108,1.8195,1.6648,0.0,0.0,0.0,0.0,0.0,0.0,0.0,0.0,0.0,0.0,0.0,0.0,0.0,0.0,0.0,0.0,0.0,0.0,0.0,0.0,0.0,0.0,0.0,0.0,0.0,0.0,0.0,0.0,0.0,0.0,0.0,0.0,0.0,0.0,0.0,0.0,0.0,0.0,0.0,1.5877,1.7231,0.0,0.0,0.0,0.0,0.0,0.0,0.0,0.0,1.6674,0.0,0.0,0.0,0.0,0.0,0.0,0.0,0.0,0.0,0.0,0.0,0.0,0.0,0.0,0.0,0.0,0.0,0.0,0.0,0.0,0.0,0.0,0.0,0.0,0.0,0.0,0.0,0.0,0.0,0.0,0.0,0.0,0.0,0.0,0.0,0.0,0.0,0.0,0.0,0.0,0.0,0.0,0.0,0.0,0.0,0.0,0.0,0.0,0.0,0.0,0.0,0.0,0.0,0.0,0.0,1.2017,1.2839,1.4035,1.569,1.6119,1.7141,1.8676,1.7751,1.7031,0.0,0.0,0.0,0.0,0.0,0.0,0.0,0.0,0.0,0.0,0.0,0.0,0.0,0.0,0.0,0.0,0.0,0.0,0.0,0.0,0.0,0.0,0.0,0.0,0.0,0.0,0.0,0.0,0.0,0.0,0.0,0.0,0.0,0.0,0.0,0.0,0.0,0.0,0.0,0.0,1.6706,1.7589,1.8128,0.0,0.0,0.0,0.0,0.0,0.0,1.7299,1.729,0.0,0.0,0.0,0.0,0.0,0.0,0.0,0.0,0.0,0.0,0.0,0.0,0.0,0.0,0.0,0.0,0.0,0.0,0.0,0.0,0.0,0.0,0.0,0.0,0.0,0.0,0.0,0.0,0.0,0.0,0.0,0.0,0.0,0.0,0.0,0.0,0.0,0.0,0.0,0.0,0.0,0.0,0.0,0.0,0.0,0.0,0.0,0.0,0.0,0.0,0.0,0.0,0.0,0.0,0.0,1.1913,1.3273,1.4456,1.5331,1.533,1.6131,1.7786,1.6457,1.591,0.0,0.0,0.0,0.0,0.0,0.0,0.0,0.0,0.0,0.0,0.0,0.0,0.0,0.0,0.0,0.0,0.0,0.0,0.0,0.0,0.0,0.0,0.0,0.0,0.0,0.0,0.0,0.0,0.0,0.0,0.0,0.0,0.0,0.0,0.0,0.0,0.0,0.0,0.0,0.0,0.0,1.8254,1.8355,1.8179,0.0,0.0,0.0,0.0,1.7551,1.8191,0.0,0.0,0.0,0.0,0.0,0.0,0.0,0.0,0.0,0.0,0.0,0.0,0.0,0.0,0.0,0.0,0.0,0.0,0.0,0.0,0.0,0.0,0.0,0.0,0.0,0.0,0.0,0.0,0.0,0.0,0.0,0.0,0.0,0.0,0.0,0.0,0.0,0.0,0.0,0.0,0.0,0.0,0.0,0.0,0.0,0.0,0.0,0.0,0.0,0.0,0.0,0.0,0.0,0.0,0.0,0.0,1.1879,1.3034,1.4255,1.5363,1.6067,1.6543,1.6792,1.7169,1.6732,0.0,0.0,0.0,0.0,0.0,0.0,0.0,0.0,0.0,0.0,0.0,0.0,0.0,0.0,0.0,0.0,0.0,0.0,0.0,0.0,0.0,0.0,0.0,0.0,0.0,0.0,0.0,0.0,0.0,0.0,0.0,0.0,0.0,0.0,0.0,0.0,0.0,0.0,0.0,0.0,0.0,2.0514,1.9096,1.9736,2.0113,0.0,0.0,0.0,2.0765,2.1033,0.0,0.0,0.0,0.0,0.0,0.0,0.0,0.0,0.0,0.0,0.0,0.0,0.0,0.0,0.0,0.0,0.0,0.0,0.0,0.0,0.0,0.0,0.0,0.0,0.0,0.0,0.0,0.0,0.0,0.0,0.0,0.0,0.0,0.0,0.0,0.0,0.0,0.0,0.0,0.0,0.0,0.0,0.0,0.0,0.0,0.0,0.0,0.0,0.0,0.0,0.0,0.0,0.0,0.0,0.0,1.0855,1.2118,1.3614,1.4796,1.5598,1.5796,1.6126,1.6587,1.5904,1.5361,0.0,0.0,0.0,0.0,0.0,0.0,0.0,0.0,0.0,0.0,0.0,0.0,0.0,0.0,0.0,0.0,0.0,0.0,0.0,0.0,0.0,0.0,0.0,0.0,0.0,0.0,0.0,0.0,0.0,0.0,0.0,0.0,0.0,0.0,0.0,0.0,0.0,0.0,0.0,0.0,0.0,0.0,2.0476,2.1104,0.0,0.0,0.0,2.1716,2.1933,0.0,0.0,0.0,0.0,0.0,0.0,0.0,0.0,0.0,0.0,0.0,0.0,0.0,0.0,0.0,0.0,0.0,0.0,0.0,0.0,0.0,0.0,0.0,0.0,0.0,0.0,0.0,0.0,0.0,0.0,0.0,0.0,0.0,0.0,0.0,0.0,0.0,0.0,0.0,0.0,0.0,0.0,0.0,0.0,0.0,0.0,0.0,0.0,0.0,0.0,0.0,0.0,0.0,0.0,0.0,0.0,0.0,1.2311,1.4062,1.5244,1.5792,1.5551,1.5654,1.6147,1.486,0.0,0.0,0.0,0.0,0.0,0.0,0.0,0.0,0.0,0.0,0.0,0.0,0.0,0.0,0.0,0.0,0.0,0.0,0.0,0.0,0.0,0.0,0.0,0.0,0.0,0.0,0.0,0.737,0.0,0.0,0.0,0.0,0.0,0.0,0.0,0.0,0.0,0.0,0.0,0.0,0.0,0.0,2.1257,2.1631,2.241,2.2799,0.0,0.0,2.3384,2.297,2.3484,2.3062,0.0,0.0,0.0,0.0,0.0,0.0,0.0,0.0,0.0,0.0,0.0,0.0,0.0,0.0,0.0,0.0,0.0,0.0,0.0,0.0,0.0,0.0,0.0,0.0,0.0,0.0,0.0,0.0,0.0,0.0,0.0,0.0,0.0,0.0,0.0,0.0,0.0,0.0,0.0,0.0,0.0,0.0,0.0,0.0,0.0,0.0,0.0,0.0,0.0,0.0,0.0,0.0,0.0,0.0,0.0,1.2318,1.4055,1.5244,1.5744,1.5545,1.5303,1.5091,1.5047,1.4554,0.0,0.0,0.0,0.0,0.0,0.0,0.0,0.0,0.0,0.0,0.0,0.0,0.0,0.0,0.0,0.0,0.0,0.0,0.0,0.0,0.0,0.0,0.0,0.0,0.0,0.0,0.0,0.0,0.0,0.0,0.0,0.0,0.0,0.0,0.0,0.0,0.0,0.0,0.0,0.0,0.0,2.2209,2.2259,2.3627,2.4632,0.0,0.0,2.4662,2.4625,2.5536,2.4991,2.1245,0.0,0.0,0.0,0.0,0.0,0.0,0.0,0.0,0.0,0.0,0.0,0.0,0.0,0.0,0.0,0.0,0.0,0.0,0.0,0.0,0.0,0.0,0.0,0.0,0.0,0.0,0.0,0.0,0.0,0.0,0.0,0.0,0.0,0.0,0.0,0.0,0.0,0.0,0.0,0.0,0.0,0.0,0.0,0.0,0.0,0.0,0.0,0.0,0.0,0.0,0.0,0.0,0.0,1.1309,1.2305,1.4055,1.5244,1.5744,1.5545,1.5257,1.5015,1.4474,1.3774,0.0,0.0,0.0,0.0,0.0,0.0,0.0,0.0,0.0,0.0,0.0,0.0,0.0,0.0,0.0,0.0,0.0,0.0,0.0,0.0,0.0,0.0,0.0,0.0,0.0,0.0,0.0,0.0,1.0646,1.1385,1.1442,0.0,0.0,0.0,0.0,0.0,0.0,0.0,0.0,0.0,0.0,2.2799,2.4142,2.4895,0.0,0.0,2.5837,2.5837,2.5858,2.5611,2.4469,2.1631,2.0501,0.0,0.0,0.0,0.0,0.0,0.0,0.0,0.0,0.0,0.0,0.0,0.0,0.0,0.0,0.0,0.0,0.0,0.0,0.0,0.0,0.0,0.0,0.0,0.0,0.0,0.0,0.0,0.0,0.0,0.0,0.0,0.0,0.0,0.0,0.0,0.0,0.0,0.0,0.0,0.0,0.0,0.0,0.0,0.0,0.0,0.0,0.0,0.0,0.0,0.0,0.0,0.0,1.1423,1.2298,1.4104,1.5244,1.5764,1.5631,1.5351,1.5008,1.4275,1.3593,0.0,0.0,0.0,0.0,0.0,0.0,0.0,0.0,0.0,0.0,0.0,0.0,0.0,0.0,0.0,0.0,0.0,0.0,0.0,0.0,0.0,0.0,0.0,0.0,0.0,0.0,0.0,0.0,1.1528,1.1988,1.179,0.0,0.0,0.0,0.0,0.0,0.0,0.0,0.0,0.0,0.0,2.3301,2.5297,2.5737,2.6034,2.6436,2.6348,2.6248,2.6235,2.5561,2.4305,2.2096,0.0,0.0,0.0,0.0,0.0,0.0,0.0,0.0,0.0,0.0,0.0,0.0,0.0,0.0,0.0,0.0,0.0,0.0,0.0,0.0,0.0,0.0,0.0,0.0,0.0,0.0,0.0,0.0,0.0,0.0,0.8778,0.0,0.0,0.0,0.0,0.0,0.0,0.0,0.0,0.0,0.0,0.0,0.0,0.0,0.0,0.0,0.0,0.0,0.0,0.0,0.0,0.0,0.0,0.0,1.2311,1.4062,1.5244,1.5805,1.5818,1.5538,1.5035,1.4663,1.434,1.4032,0.0,0.0,0.0,0.0,0.0,0.0,0.0,0.0,0.0,0.0,0.0,0.0,0.0,0.0,0.0,0.0,0.0,0.0,0.0,0.0,0.0,0.0,0.0,0.0,0.0,0.0,1.0776,1.1226,1.1226,0.0,0.0,0.0,0.0,0.0,0.0,0.0,0.0,0.0,0.0,2.2083,2.3697,2.5385,2.6122,2.6487,2.6512,2.6034,2.5636,2.5661,2.5586,2.4833,0.0,0.0,0.0,0.0,0.0,0.0,0.0,0.0,0.0,0.0,0.0,0.0,0.0,0.0,0.0,0.0,0.0,0.0,0.0,0.0,0.0,0.0,0.0,0.0,0.0,0.0,0.0,1.0708,1.0274,0.0,0.0,0.0,0.0,0.0,0.0,0.0,0.0,0.0,0.0,0.0,1.2478,1.2627,0.0,0.0,0.0,0.0,0.0,0.0,0.0,0.0,0.0,0.0,0.0,0.0,1.1717,1.2663,1.4197,1.5251,1.5805,1.5825,1.5645,1.5264,1.4776,1.4132,1.3399,0.0,0.0,0.0,0.0,0.0,0.0,0.0,0.0,0.0,0.0,0.0,0.0,0.0,0.0,0.0,0.0,0.0,0.0,0.0,0.0,0.0,0.0,0.0,0.0,0.0,1.0608,0.0,0.0,0.0,0.0,0.0,0.0,0.0,0.0,0.0,0.0,0.0,1.9279,2.1963,2.3409,2.4825,2.649,2.6927,2.704,0.0,0.0,0.0,0.0,0.0,0.0,0.0,0.0,0.0,0.0,0.0,0.0,0.0,0.0,2.4891,2.1074,1.9724,1.9332,1.9774,0.0,0.0,0.0,0.0,0.0,0.0,0.0,0.0,0.0,0.0,0.0,0.0,0.0,0.0,1.1625,0.0,1.1685,0.0,0.0,0.0,0.0,0.0,0.0,0.0,0.0,1.3233,1.3868,1.3981,1.4126,1.4162,0.0,1.3313,1.2291,0.0,0.0,0.0,0.0,0.0,0.0,0.0,0.0,1.2017,1.2965,1.4405,1.5344,1.5798,1.5825,1.5638,1.5391,1.5264,1.4692,1.3648,1.2957,1.268,0.0,0.0,0.0,0.0,0.0,0.0,0.0,0.0,0.0,0.0,0.0,0.0,0.0,0.0,0.0,0.0,0.0,0.0,0.0,0.0,0.0,0.0,0.0,1.1192,0.0,0.0,0.0,0.0,0.0,0.0,0.0,0.0,0.0,1.7266,1.8882,2.0746,2.2893,2.427,2.5548,2.6851,0.0,0.0,0.0,0.0,0.0,0.0,0.0,2.5197,2.536,2.4808,2.4211,2.3998,2.536,2.6289,2.5711,0.0,0.0,2.3339,2.2209,2.2024,2.2602,2.2992,2.3238,2.3414,2.4356,2.5034,0.0,0.0,0.0,0.0,0.0,0.0,0.0,0.0,1.1288,1.2063,0.0,1.3018,0.0,0.0,0.0,0.0,0.0,0.0,0.0,0.0,1.5092,1.5698,1.5458,1.5451,1.5444,1.5438,1.5169,1.4529,1.3553,1.1362,0.0,0.0,0.0,0.0,0.0,0.0,1.2345,1.3253,1.4656,1.5531,1.5812,1.5825,1.5685,1.541,1.6046,1.5906,1.4916,1.5876,1.5817,1.4233,1.335,0.0,0.0,0.0,0.0,0.0,0.0,0.0,0.0,0.0,0.0,0.0,0.0,0.0,0.0,0.0,0.0,0.0,0.0,0.0,0.0,1.1687,0.0,0.0,0.0,0.0,0.0,0.0,0.0,0.0,0.0,0.0,1.7522,2.0233,2.2529,2.3233,0.0,0.0,0.0,0.0,2.7379,2.7366,2.7366,2.7344,2.7318,2.7304,2.7128,2.6688,0.0,0.0,2.6076,2.713,2.7733,2.6126,2.7268,2.821,2.8147,2.664,2.5762,2.6285,2.5649,2.5176,2.5674,2.6678,2.7444,0.8228,0.0,0.0,0.0,0.0,1.0546,1.2215,1.3994,1.5023,1.5276,1.5057,1.477,0.0,0.0,0.0,0.0,0.0,0.0,1.4215,1.4923,1.5765,1.6375,1.6697,1.6703,1.6697,1.6677,1.6187,1.5658,1.5112,1.3853,1.2371,1.0648,0.0,0.0,0.0,0.0,1.3166,1.3848,1.487,1.5538,1.5825,1.5825,1.5591,1.5149,1.5108,1.5253,1.5656,1.5226,1.529,1.5875,1.4287,0.0,0.0,0.0,0.0,0.0,0.0,0.0,0.0,0.0,0.0,0.0,0.0,0.0,0.0,0.0,0.0,0.0,0.0,0.0,1.131,1.1872,1.2028,0.0,0.0,0.0,0.0,0.0,0.0,0.0,0.0,0.0,1.9376,2.0215,2.155,0.0,0.0,2.6053,2.6947,2.7846,2.8323,2.7934,0.0,0.0,0.0,2.7544,2.7681,2.8699,2.9741,3.0281,2.9817,3.0131,3.0294,2.9767,3.0118,3.0444,3.0344,2.8787,2.7544,2.762,2.7996,2.8386,2.8612,2.9465,3.0193,0.9364,0.8757,0.8377,0.8596,0.9284,1.0255,1.2177,1.4537,1.54,1.6152,1.6854,1.644,1.5524,1.4157,1.3474,0.0,0.0,0.0,1.5251,1.6154,1.6453,1.6918,1.736,1.7373,1.7373,1.734,1.6727,1.6353,1.6166,1.5291,1.4035,1.2425,0.0,0.0,1.2071,1.3053,1.3848,1.4436,1.5184,1.5651,1.5825,1.5825,1.5605,1.5196,1.5273,1.57,1.6385,1.6092,1.6289,1.7148,1.5644,1.4355,0.0,0.0,0.0,0.0,0.0,0.0,0.0,0.0,0.0,0.0,0.0,0.915,0.0,0.0,0.0,0.0,1.0723,1.1592,1.2266,1.2568,0.0,0.0,0.0,0.0,0.0,0.0,0.0,1.6464,1.7595,1.8738,2.0015,2.0269,2.1252,2.3856,2.5296,2.6308,2.6895,0.0,2.8812,2.8473,2.8913,2.9151,2.8825,2.8499,2.8637,2.9616,3.0495,3.106,3.1085,3.1248,3.1386,3.1386,3.1386,3.1386,3.1386,3.0281,2.9415,2.9415,2.993,3.0394,3.0419,3.111,3.1712,1.0293,1.0185,0.9089,0.8706,0.8828,0.9085,1.0887,1.3588,1.3598,1.5389,1.8275,1.7755,1.7071,1.6362,1.5271,0.0,0.0,1.6025,1.6466,1.7273,1.728,1.74,1.7635,1.7582,1.7589,1.7569,1.7034,1.676,1.67,1.5899,1.5211,1.4636,1.3581,1.3259,1.3633,1.4015,1.4499,1.4997,1.5545,1.5825,1.5825,1.5825,1.5678,1.541,1.6097,1.6627,1.696,1.7695,1.8072,1.7958,1.7171,1.5946,1.4338,0.0,0.0,0.0,0.0,0.0,0.0,0.0,0.0,0.0,0.0,0.0,0.0,0.0,0.0,0.0,1.2207,0.0,1.3516,1.3594,0.0,0.0,0.0,1.3896,1.4309,1.5478,1.6418,1.6804,0.0,0.0,0.0,0.0,2.1573,2.3864,2.5482,2.6455,2.6444,2.7911,2.8963,2.8787,2.9363,2.9767,2.9691,2.9729,2.9779,2.9905,3.0306,3.0721,3.0758,3.1072,3.1361,3.1386,3.1424,3.1474,3.1461,3.1436,3.1512,3.1474,3.1449,3.1436,3.1436,3.1888,3.2277,1.0378,1.0256,0.9971,0.9808,0.9804,1.1214,1.2137,1.2826,1.4009,1.5488,1.7173,1.67,1.6734,1.7268,1.7208,1.7256,1.7483,1.7756,1.7849,1.7829,1.7836,1.7742,1.7589,1.7589,1.7589,1.7575,1.7442,1.7261,1.7085,1.6607,1.6213,1.5845,1.5344,1.4723,1.4035,1.471,1.515,1.5297,1.5598,1.5825,1.5825,1.5825,1.5585,1.5129,1.5259,1.5575,1.6015,1.6346,1.6934,1.7706,1.7097,1.6387,1.5664,1.4001,0.0,0.0,0.0,0.0,0.0,0.0,0.0,0.0,0.0,1.1102,0.9581,0.0,1.1892,0.0,1.3061,1.3851,1.3958,1.4277,0.0,0.0,1.5254,1.5791,1.6533,1.7168,1.7715,1.81,1.9316,2.047,2.1408,2.182,2.2527,2.3882,2.5167,2.595,2.5882,2.8011,2.9245,2.8572,2.9137,2.9779,2.9817,3.0156,3.0382,3.0419,3.0846,3.1198,3.1198,3.1298,3.1386,3.1411,3.175,3.1976,3.1989,3.2365,3.2659,3.2654,3.2328,3.2014,3.2026,3.2466,3.2855,1.0609,1.048,1.0477,1.0429,1.0408,1.1236,1.1968,1.2619,1.3473,1.512,1.7159,1.7423,1.7738,1.8009,1.8156,1.823,1.8263,1.8417,1.8404,1.825,1.825,1.8083,1.7796,1.7789,1.7716,1.7582,1.7507,1.736,1.7179,1.672,1.6433,1.6315,1.5979,1.5511,1.491,1.5351,1.5591,1.5591,1.5745,1.5825,1.5825,1.5825,1.5611,1.517,1.5075,1.5239,1.5677,1.5674,1.6147,1.7117,1.6649,1.617,1.5801,1.4512,1.3383,0.0,0.0,0.0,0.0,0.0,0.0,0.0,0.0,0.0,0.0,0.0,1.2652,0.0,1.4046,1.4835,1.5225,1.5654,1.6134,1.6523,1.6943,1.7402,1.79,1.8486,1.9023,1.9443,2.0303,2.1234,2.208,2.2373,2.2748,2.3503,2.4628,2.5311,2.5486,2.7427,2.8806,2.8255,2.9067,2.9779,2.9779,3.0043,3.0244,3.0294,3.0696,3.106,3.106,3.1248,3.1386,3.1411,3.165,3.1851,3.1863,3.2077,3.2315,3.2277,3.2077,3.2064,3.2503,3.2898,3.3061,1.0897,1.0775,1.0758,1.0751,1.0727,1.0456,1.1153,1.2463,1.2434,1.4154,1.7027,1.8504,1.8845,1.8371,1.8562,1.8604,1.8604,1.8604,1.8584,1.8551,1.8551,1.839,1.8049,1.8009,1.7903,1.7635,1.74,1.7239,1.7179,1.6677,1.6395,1.6315,1.6019,1.5818,1.5832,1.5825,1.5825,1.5825,1.5825,1.5825,1.5825,1.5825,1.5671,1.5351,1.5064,1.5097,1.5426,1.5282,1.5543,1.6245,1.6152,1.5845,1.5407,1.473,1.3975,0.0,1.2662,0.0,0.0,0.0,0.0,0.0,0.0,0.0,0.0,1.3252,1.3701,1.4482,1.5273,1.6034,1.6804,1.7295,1.7686,1.8057,1.849,1.8783,1.887,1.959,2.0254,2.0713,2.1123,2.1658,2.2396,2.2549,2.2701,2.3114,2.3932,2.4501,2.4766,2.6632,2.8176,2.8124,2.9067,2.9779,2.9779,2.9792,2.9817,2.9854,3.0193,3.0455,3.0495,3.0846,3.116,3.116,3.121,3.1286,3.1298,3.1348,3.1411,3.1461,3.1449,3.1712,3.2478,3.2729,3.2692,1.1104,1.1067,1.0951,1.0836,1.082,1.0711,1.0764,1.1082,1.0951,1.196,1.3805,1.6447,1.7542,1.7546,1.8706,1.9205,1.9205,1.9205,1.9072,1.8844,1.8844,1.8684,1.8404,1.8163,1.7962,1.7889,1.7649,1.7382,1.7199,1.7085,1.679,1.6286,1.6219,1.6066,1.5791,0.0,0.0,0.0,1.5825,1.5825,1.5825,1.5825,1.5578,1.5115,1.4763,0.0,1.4029,1.4446,1.4682,1.4692,1.6014,0.0,0.0,0.0,0.0,0.0,0.0,0.0,0.0,0.0,0.0,0.0,1.5859,1.5234,1.4036,1.5157,1.6221,1.6728,1.7227,1.7578,1.772,1.811,1.8403,1.849,1.9173,1.9814,2.0204,2.0674,2.1152,2.1582,2.2002,2.2324,2.25,2.276,2.2994,2.3071,2.3299,2.3387,2.3507,2.6108,2.8004,2.8176,2.9028,2.974,2.9779,2.9779,2.9779,2.9804,2.9854,2.9955,2.998,3.003,3.0105,3.0143,3.0457,3.0758,3.0771,3.1097,3.1323,3.1373,3.1361,3.1449,3.1662,3.1712,3.1675,1.1229,0.0,1.1084,1.1053,0.0,1.0897,1.0833,1.0822,1.067,1.193,1.4217,1.6606,1.7967,1.8511,1.9279,1.9506,1.9424,1.9424,1.9285,1.9145,1.9138,1.8991,1.8698,1.8495,1.8268,1.7995,1.7836,1.7655,1.742,1.7273,1.7052,1.6757,1.6469,1.6199,1.6046,1.5858,1.5825,1.5825,1.5825,1.5825,1.5825,1.5825,1.5618,1.519,0.0,0.0,0.0,0.0,0.0,0.0,0.0,0.0,0.0,0.0,0.0,1.6044,1.6024,1.6045,1.6024,1.6424,1.6885,1.7301,1.7516,1.7096,1.584,1.6738,1.7506,1.7959,1.8169,1.8461,1.8916,1.9336,1.964,1.9884,2.0498,2.0986,2.1241,2.1416,2.1728,2.2119,2.2383,2.2588,2.276,2.2945,2.3091,2.3101,2.3101,2.3299,2.392,2.5368,2.6737,2.7884,2.8518,2.9145,2.9702,2.9779,2.9779,2.9779,2.9779,2.9779,2.9779,2.9779,2.9779,2.9804,3.0043,3.0206,3.0231,3.0432,3.0595,3.0608,3.0608,3.0608,3.0633,3.1009,3.1298,1.1358,1.124,1.1216,1.1202,1.1261,1.1046,1.0907,1.087,0.0,0.0,0.0,1.6877,1.8334,1.9461,1.9721,1.972,1.9452,1.9439,1.9477,1.9424,1.9424,1.9232,1.9005,1.8945,1.8644,1.8136,1.8015,1.7889,1.7582,1.7393,1.7253,1.7159,1.671,1.6429,1.6315,1.6032,1.5838,1.5832,1.5825,1.5825,1.5825,1.5825,1.5691,1.5404,1.5162,1.4754,1.4182,1.3701,1.3475,1.3532,1.3703,1.4415,1.5746,1.6179,1.6859,1.791,1.8154,1.8232,1.8252,1.8457,1.8613,1.8691,1.9014,1.8818,1.791,1.8144,1.852,1.9017,1.9056,1.9387,2.0147,2.0576,2.0937,2.1318,2.167,2.1894,2.1973,2.2002,2.2158,2.2529,2.2637,2.2744,2.3023,2.3081,2.3101,2.3101,2.3101,2.3387,2.4296,2.4957,2.5953,2.74,2.8016,2.8466,2.9223,2.9702,2.974,2.9779,2.9779,2.9779,2.9779,2.9779,2.9779,2.9779,2.9779,2.9804,2.9792,2.9842,2.9779,2.9779,2.9779,2.9779,2.9854,3.0482,3.0909,1.1572,1.1545,1.1416,1.1362,1.1348,1.1199,1.1063,1.087,1.0718,1.1813,1.3726,1.5224,1.676,1.8386,1.9598,2.0007,1.9746,1.974,1.9606,0.0,1.9424,1.9345,1.9292,1.9045,1.8751,1.8424,1.8176,1.7883,1.7609,1.7542,1.7454,1.7226,1.7119,1.6824,1.6313,1.6233,1.6086,1.5791,1.5825,1.5825,1.5825,1.5825,1.5638,1.5404,1.5162,1.4854,1.4469,1.4369,1.4062,1.3655,1.5481,1.6309,1.5727,1.7232,1.8147,1.8052,1.8701,1.9102,1.9141,2.0146,2.0898,2.1299,2.1396,2.0908,1.9687,1.9609,1.999,2.0713,2.0761,2.1025,2.1543,2.1631,2.1709,2.1777,2.1855,2.2021,2.2373,2.2422,2.2526,2.2916,2.3003,2.2994,2.3071,2.3101,2.3101,2.3101,2.3101,2.3178,2.3637,2.5052,2.6213,2.676,2.7522,2.8096,2.8518,2.9197,2.9624,2.9779,2.9779,2.9779,2.9779,2.9779,2.9779,2.9779,2.9779,2.9779,2.9779,2.9779,2.9779,2.9779,2.9779,2.9779,2.9779,2.9993,3.0043,1.1616,1.1613,1.1541,1.1514,1.1501,1.1352,1.1155,1.088,1.0873,1.1711,1.3382,1.5034,1.6589,1.8187,1.9769,2.0314,2.0034,2.0034,1.9873,1.9613,1.9606,1.9519,1.9417,1.9225,1.9005,1.8718,1.843,1.813,1.7842,1.7669,1.7561,1.7434,1.728,1.6985,1.6526,1.6402,1.6254,1.6072,1.5912,1.5825,1.5825,1.5825,1.5718,1.5631,1.5351,1.5137,1.4997,1.4689,1.4396,1.4086,1.4957,1.5912,1.6873,1.7752,1.8797,1.9993,2.0488,2.0693,2.0693,2.125,2.167,2.1875,2.1936,2.1641,2.1035,2.0986,2.1152,2.1553,2.1582,2.167,2.1875,2.209,2.2227,2.2227,2.2412,2.2594,2.2769,2.2808,2.2886,2.3062,2.3101,2.3101,2.3101,2.3101,2.3101,2.3101,2.3101,2.3101,2.3101,2.3983,2.4882,2.5462,2.5983,2.6849,2.7844,2.8466,2.9106,2.9663,2.9779,2.9779,2.9779,2.9779,2.974,2.9779,2.9779,2.9779,2.9779,2.9779,2.9779,2.9779,2.9779,2.9779,2.9779,2.9779,2.9779,1.1616,1.1616,1.1616,1.1616,1.1603,1.1457,1.1257,1.0981,1.0911,1.1609,1.2869,1.4577,1.6144,1.7714,1.9431,2.0038,1.9791,2.0145,2.0174,1.9913,1.9833,1.9679,1.9479,1.9457,1.9212,1.8931,1.8691,1.8397,1.8002,1.7802,1.7649,1.7569,1.7407,1.7152,1.6807,1.658,1.6455,1.6266,1.6046,1.5851,1.5832,1.5825,1.5825,1.5812,1.5618,1.5498,1.5471,1.5057,1.4783,1.4716,1.4713,1.5668,1.7522,1.8171,1.9356,2.1237,2.1838,2.207,2.2158,2.2168,2.2168,2.2168,2.2168,2.2168,2.2168,2.2168,2.2119,2.2051,2.2031,2.207,2.2217,2.2461,2.2613,2.2676,2.2896,2.3052,2.3091,2.3101,2.3101,2.3101,2.3101,2.3101,2.3101,2.3101,2.3101,2.3101,2.3101,2.3101,2.3101,2.3101,2.3507,2.4168,2.4617,2.541,2.7105,2.7591,2.8068,2.8949,2.8961,2.9,2.9118,2.9197,2.9417,2.9495,2.9495,2.9534,2.9702,2.9779,2.9779,2.9779,2.9779,2.9779,2.9779,2.9779,2.9779,1.1616,1.1616,1.1616,1.1616,1.1603,1.146,1.1372,1.1311,1.107,1.0945,1.1379,1.2815,1.4484,1.6211,1.7948,1.8647,1.8476,1.9934,2.0481,2.018,1.992,1.9786,1.972,1.9499,1.9212,1.8958,1.8891,1.8535,1.8062,1.7969,1.7802,1.7615,1.7608,1.7447,1.7186,1.7119,1.6857,1.6286,1.6246,1.6106,1.5845,1.5825,1.5825,1.5825,1.5758,1.5744,1.5765,1.5732,1.5585,1.5429,1.6199,1.6684,1.6938,1.8658,1.9916,2.0241,2.1575,2.2617,2.2916,2.2984,2.2945,2.2974,2.2945,2.2935,2.2935,2.2955,2.2808,2.2559,2.2451,2.2607,2.2916,2.2994,2.2994,2.2984,2.3052,2.3101,2.3101,2.3101,2.3101,2.3101,2.3101,2.3101,2.3101,2.3101,2.3101,2.3101,2.3101,2.3101,2.3101,2.3091,2.3135,2.3464,2.4092,2.4745,2.5368,2.6047,2.6707,2.6935,2.6894,2.7342,2.7867,2.7666,2.7331,2.9067,2.8976,2.8767,2.9495,2.9779,2.9779,2.9779,2.9779,2.9779,2.9779,2.9779,2.9779,1.1616,1.1616,1.1616,1.1616,1.1606,1.1552,1.1474,1.1379,1.1267,1.1158,1.1128,1.1649,1.2773,1.4553,1.7211,1.8448,1.8486,2.0161,2.0775,2.0501,2.0368,2.014,1.9806,1.9686,1.9472,1.9185,1.9011,1.8748,1.8488,1.8162,1.7889,1.7615,1.7589,1.7522,1.7402,1.7286,1.7079,1.6844,1.6446,1.6213,1.6086,1.5919,1.5825,1.5825,1.5825,1.5825,1.5825,1.5825,1.5772,1.5658,1.6059,1.6586,1.7197,1.8126,1.8962,1.9672,2.1021,2.217,2.3038,2.3101,2.3101,2.3101,2.3101,2.3101,2.3101,2.3101,2.3013,2.2877,2.2847,2.2925,2.3071,2.3101,2.3101,2.3101,2.3101,2.3101,2.3101,2.3101,2.3101,2.3101,2.3101,2.3101,2.3101,2.3101,2.3101,2.3101,2.3101,2.3101,2.3101,2.3101,2.3101,2.3135,2.3551,2.4082,2.4617,2.5126,2.5714,2.6265,2.6483,2.676,2.6883,2.6883,2.7046,2.8557,2.8307,2.8478,2.9611,2.974,2.9779,2.9779,2.9779,2.9779,2.9779,2.9779,2.9779,1.1616,1.1616,1.1616,1.1616,1.1616,1.1616,1.1555,1.1453,1.1409,1.1328,1.1216,1.1073,1.1589,1.2951,1.5749,1.7275,1.7988,1.961,2.0541,2.0733,2.0715,2.0448,2.0047,1.986,1.9693,1.9472,1.9192,1.9005,1.8871,1.8275,1.7869,1.7729,1.7629,1.7589,1.7562,1.7414,1.728,1.7166,1.677,1.6489,1.6273,1.6066,1.5912,1.5791,1.5825,1.5825,1.5825,1.5825,1.5825,1.5825,1.5825,1.6204,1.7084,1.7505,1.8226,1.9451,2.0621,2.1658,2.2545,2.2906,2.3101,2.3101,2.3101,2.3101,2.3101,2.3101,2.3101,2.3081,2.3101,2.3081,2.3101,2.3101,2.3101,2.3101,2.3101,2.3101,2.3101,2.3101,2.3101,2.3101,2.3101,2.3101,2.3101,2.3101,2.3101,2.3101,2.3101,2.3101,2.3101,2.3101,2.3101,2.3101,2.3135,2.342,2.4168,2.4296,2.4798,2.5179,2.54,2.5484,2.5819,2.585,2.6554,2.7643,2.7683,2.8307,2.9443,2.9779,2.974,2.9779,2.9779,2.9779,2.9779,2.9779,2.9779,1.1616,1.1616,1.1616,1.1616,1.1616,1.1616,1.1613,1.1586,1.146,1.1389,1.1362,1.1289,1.1142,1.1201,1.2967,1.4497,1.6172,1.8052,1.9725,2.0972,2.0815,2.0668,2.0595,2.008,1.98,1.9726,1.9479,1.9199,1.8905,1.8302,1.7989,1.7949,1.7749,1.7595,1.7582,1.7555,1.7481,1.7246,1.7146,1.6891,1.6415,1.6321,1.6099,1.5838,1.5832,1.5825,1.5825,1.5825,1.5825,1.5825,1.5825,1.5872,1.6015,1.7037,1.8141,1.936,2.0576,2.1302,2.1525,2.2403,2.3047,2.3101,2.3101,2.3101,2.3101,2.3101,2.3101,2.3101,2.3101,2.3101,2.3101,2.3101,2.3101,2.3101,2.3101,2.3101,2.3101,2.3101,2.3101,2.3101,2.3101,2.3101,2.3101,2.3101,2.3101,2.3101,2.3101,2.3101,2.3101,2.3101,2.3101,2.3101,2.3101,2.3135,2.3178,2.343,2.3387,2.3681,2.4102,2.381,2.4006,2.4457,2.5703,2.6696,2.6871,2.7626,2.9118,2.974,2.9702,2.9702,2.9779,2.9779,2.9779,2.9779,2.9779,1.1616,1.1616,1.1616,1.1616,1.1616,1.1616,1.1616,1.1613,1.1562,1.1538,1.1511,1.1375,1.128,1.1219,1.1575,1.3306,1.6053,1.8832,2.0519,2.1096,2.1002,2.0855,2.0661,2.0448,2.014,1.982,1.9693,1.9392,1.8951,1.8641,1.8355,1.8022,1.7943,1.7789,1.7622,1.7589,1.7522,1.7467,1.7306,1.7092,1.6864,1.6516,1.6213,1.6112,1.5925,1.5825,1.5825,1.5825,1.5825,1.5825,1.5825,1.5825,1.5872,1.6197,1.703,1.818,1.8772,1.967,2.106,2.1667,2.2306,2.3003,2.3101,2.3101,2.3101,2.3101,2.3101,2.3101,2.3101,2.3101,2.3101,2.3101,2.3101,2.3101,2.3101,2.3101,2.3101,2.3101,2.3101,2.3101,2.3101,2.3101,2.3101,2.3101,2.3101,2.3101,2.3101,2.3101,2.3101,2.3101,2.3101,2.3101,2.3101,2.3101,2.3101,2.3135,2.3135,2.3135,2.3222,2.3343,2.3507,2.3551,2.451,2.6171,2.6389,2.7005,2.845,2.8937,2.9028,2.9585,2.9663,2.974,2.9779,2.9702,2.974,1.1616,1.1616,1.1616,1.1616,1.1616,1.1616,1.1616,1.1616,1.1616,1.1616,1.1599,1.1511,1.144,1.1506,1.1721,1.331,1.5969,1.8425,2.0005,2.1039,2.1102,2.1009,2.0828,2.0722,2.0421,1.9967,1.974,1.9432,1.9098,1.8971,1.8661,1.8357,1.8109,1.7889,1.7749,1.7635,1.7589,1.7535,1.7434,1.73,1.7172,1.6817,1.6506,1.6386,1.6126,1.5925,1.5838,1.5825,1.5825,1.5825,1.5825,1.5825,1.5825,1.5825,1.6157,1.699,1.7498,1.8365,1.9943,2.0845,2.1658,2.2448,2.2906,2.3101,2.3101,2.3101,2.3101,2.3101,2.3101,2.3101,2.3101,2.3101,2.3101,2.3101,2.3101,2.3101,2.3101,2.3101,2.3101,2.3101,2.3101,2.3101,2.3101,2.3101,2.3101,2.3101,2.3101,2.3101,2.3101,2.3101,2.3101,2.3101,2.3101,2.3101,2.3101,2.3101,2.3101,2.3101,2.3101,2.3101,2.3101,2.3101,2.3681,2.5316,2.6265,2.683,2.74,2.7924,2.8518,2.9118,2.9546,2.9702,2.9663,2.9585,2.9663,1.1616,1.1616,1.1616,1.1616,1.1616,1.1616,1.1616,1.1616,1.1616,1.1616,1.1616,1.1606,1.1525,1.1695,1.2742,1.455,1.6037,1.6457,1.8203,2.0912,2.1102,2.1102,2.1049,2.0835,2.0561,2.0207,1.9666,1.9464,1.9359,1.9112,1.8918,1.8741,1.8302,1.8049,1.7982,1.7762,1.7609,1.7575,1.7549,1.7428,1.7239,1.7152,1.7005,1.6707,1.6426,1.6159,1.5885,1.5845,1.5825,1.5825,1.5825,1.5825,1.5825,1.5825,1.5825,1.6109,1.699,1.7591,1.8048,1.9943,2.1114,2.1658,2.2438,2.3101,2.3101,2.3101,2.3101,2.3101,2.3101,2.3101,2.3101,2.3101,2.3101,2.3101,2.3101,2.3101,2.3101,2.3101,2.3101,2.3101,2.3101,2.3101,2.3101,2.3101,2.3101,2.3101,2.3101,2.3101,2.3101,2.3101,2.3101,2.3101,2.3101,2.3101,2.3101,2.3101,2.3101,2.3101,2.3101,2.3101,2.3101,2.3135,2.3637,2.4925,2.5305,2.587,2.6994,2.7481,2.7522,2.8068,2.87,2.9287,2.9157,2.9067,2.9624,1.1616,1.1616,1.1616,1.1616,1.1616,1.1616,1.1616,1.1616,1.1616,1.1616,1.1616,1.1616,1.1592,1.1599,1.2069,1.3816,1.64,1.6323,1.7835,2.0622,2.1109,2.1102,2.1082,2.1015,2.0822,2.0481,1.994,1.9666,1.9606,1.9366,1.9138,1.8911,1.8688,1.8375,1.8029,1.7889,1.7816,1.7609,1.7589,1.7528,1.7481,1.73,1.7152,1.7045,1.6777,1.652,1.6426,1.6004,1.5791,1.5832,1.5825,1.5825,1.5825,1.5825,1.5825,1.5832,1.6109,1.685,1.7731,1.9131,2.0486,2.1293,2.2403,2.3003,2.3101,2.3101,2.3101,2.3101,2.3101,2.3101,2.3101,2.3101,2.3101,2.3101,2.3101,2.3101,2.3101,2.3101,2.3101,2.3101,2.3101,2.3101,2.3101,2.3101,2.3101,2.3101,2.3101,2.3101,2.3101,2.3101,2.3101,2.3101,2.3101,2.3101,2.3101,2.3101,2.3101,2.3101,2.3101,2.3101,2.3101,2.3178,2.3724,2.4135,2.451,2.5168,2.6295,2.6748,2.6696,2.7075,2.7787,2.8068,2.8227,2.8636,2.9236,1.1616,1.1616,1.1616,1.1616,1.1616,1.1616,1.1616,1.1616,1.1616,1.1616,1.1616,1.1616,1.1616,1.1599,1.1518,1.3458,1.653,1.6466,1.8126,2.0836,2.1136,2.1109,2.1082,2.0989,2.0869,2.0601,2.008,1.9806,1.9786,1.9512,1.9272,1.9112,1.8985,1.8701,1.8308,1.8089,1.7929,1.7762,1.7642,1.7589,1.7549,1.746,1.736,1.732,1.7027,1.6887,1.6834,1.64,1.6106,1.5992,1.5844,1.5832,1.5825,1.5825,1.5825,1.5825,1.5825,1.6197,1.7037,1.8542,1.9761,2.0719,2.2129,2.3047,2.3101,2.3101,2.3101,2.3101,2.3101,2.3101,2.3101,2.3101,2.3101,2.3101,2.3101,2.3101,2.3101,2.3101,2.3101,2.3101,2.3101,2.3101,2.3101,2.3101,2.3101,2.3101,2.3101,2.3101,2.3101,2.3101,2.3101,2.3101,2.3101,2.3101,2.3101,2.3101,2.3101,2.3101,2.3101,2.3101,2.3101,2.3101,2.343,2.3594,2.3877,2.4382,2.5378,2.541,2.5452,2.6119,2.6707,2.7128,2.7452,2.8267,2.8946,1.1616,1.1616,1.1616,1.1616,1.1616,1.1616,1.1616,1.1616,1.1616,1.1616,1.1616,1.1616,1.1616,1.1616,1.1596,1.3491,1.6323,1.68,1.8524,2.0812,2.1323,2.1162,2.1089,2.0895,2.0795,2.0661,2.0174,1.99,1.986,1.9579,1.9437,1.9319,1.9098,1.8881,1.8715,1.8302,1.8082,1.7989,1.7782,1.7649,1.7635,1.7575,1.7562,1.7549,1.736,1.7226,1.7172,1.6854,1.6553,1.6328,1.6012,1.5885,1.5838,1.5825,1.5825,1.5825,1.5825,1.5825,1.6332,1.794,1.936,1.9807,2.1578,2.3047,2.3047,2.3101,2.3101,2.3101,2.3101,2.3101,2.3101,2.3101,2.3101,2.3101,2.3101,2.3101,2.3101,2.3101,2.3101,2.3101,2.3101,2.3101,2.3101,2.3101,2.3101,2.3101,2.3101,2.3101,2.3101,2.3101,2.3101,2.3101,2.3101,2.3101,2.3101,2.3101,2.3101,2.3101,2.3101,2.3101,2.3101,2.3101,2.3101,2.3256,2.342,2.3877,2.4125,2.4296,2.4372,2.4787,2.542,2.6099,2.6794,2.747,2.83,1.1616,1.1616,1.1616,1.1616,1.1616,1.1616,1.1616,1.1616,1.1616,1.1616,1.1616,1.1616,1.1616,1.1616,1.1616,1.3634,1.6284,1.6911,1.8682,2.1405,2.1641,2.1309,2.1142,2.1036,2.0982,2.0915,2.0575,2.0327,2.0114,1.9806,1.9579,1.943,1.9292,1.9132,1.8855,1.8695,1.8577,1.8364,1.8022,1.7862,1.7876,1.7695,1.7589,1.7575,1.7502,1.7514,1.7494,1.7246,1.678,1.6368,1.6254,1.6046,1.5892,1.5852,1.5852,1.5852,1.5784,1.5825,1.6103,1.7304,1.8549,1.9497,2.0935,2.2129,2.3047,2.3101,2.3101,2.3101,2.3101,2.3101,2.3101,2.3101,2.3101,2.3101,2.3101,2.3101,2.3101,2.3101,2.3101,2.3101,2.3101,2.3101,2.3101,2.3101,2.3101,2.3101,2.3101,2.3101,2.3101,2.3101,2.3101,2.3101,2.3101,2.3101,2.3101,2.3101,2.3101,2.3101,2.3101,2.3101,2.3101,2.3101,2.3101,2.3135,2.3222,2.3551,2.3474,2.3464,2.3551,2.38,2.4454,2.5327,2.573,2.632,2.722,1.1616,1.1616,1.1616,1.1616,1.1616,1.1616,1.1616,1.1616,1.1616,1.1616,1.1616,1.1616,1.1616,1.1616,1.1616,1.3662,1.6806,1.7042,1.8925,2.1653,2.1802,2.1396,2.1169,2.1102,2.1102,2.1076,2.0815,2.0588,2.0361,2.0013,1.9726,1.9559,1.9426,1.9279,1.9132,1.8965,1.8851,1.8644,1.8384,1.8135,1.7982,1.7822,1.7702,1.7629,1.7589,1.7589,1.7555,1.7415,1.7061,1.6593,1.6446,1.6373,1.6213,1.6072,1.6019,1.6005,1.5858,1.5825,1.6015,1.6998,1.8234,1.9405,2.0621,2.181,2.2818,2.3101,2.3101,2.3101,2.3101,2.3101,2.3101,2.3101,2.3101,2.3101,2.3101,2.3101,2.3101,2.3101,2.3101,2.3101,2.3101,2.3101,2.3101,2.3101,2.3101,2.3101,2.3101,2.3101,2.3101,2.311,2.3149,2.3208,2.3188,2.3179,2.3188,2.3179,2.3257,2.3247,2.3276,2.3247,2.3218,2.3208,2.3159,2.3159,2.313,2.313,2.3198,2.3188,2.3222,2.3547,2.4061,2.4594,2.512,2.5622,2.6444,1.1616,1.1616,1.1616,1.1616,1.1616,1.1616,1.1616,1.1616,1.1616,1.1616,1.1616,1.1616,1.1616,1.1616,1.1688,1.3523,1.6826,1.7012,1.9341,2.1283,2.1804,2.146,2.1129,2.1102,2.1102,2.1076,2.0828,2.0715,2.0548,2.0134,1.988,1.974,1.9533,1.9464,1.9292,1.9112,1.8991,1.8931,1.8684,1.845,1.8209,1.8082,1.7956,1.7716,1.7595,1.7589,1.7589,1.7535,1.7321,1.6827,1.6774,1.6714,1.6667,1.6426,1.6333,1.6286,1.6132,1.5944,1.6041,1.6994,1.8068,1.9241,2.0449,2.1742,2.2685,2.3142,2.3374,2.3393,2.3247,2.3344,2.3344,2.3286,2.3335,2.3383,2.3315,2.3247,2.3208,2.3149,2.3101,2.3101,2.3101,2.3101,2.3101,2.314,2.3188,2.3364,2.3383,2.353,2.3539,2.3559,2.353,2.3471,2.3403,2.3286,2.3286,2.3276,2.3383,2.3452,2.3564,2.3564,2.3491,2.3442,2.3325,2.3315,2.3549,2.3569,2.3471,2.3393,2.3315,2.3501,2.4113,2.4539,2.4965,2.5402,2.6052,1.1616,1.1616,1.1616,1.1616,1.1616,1.1616,1.1616,1.1616,1.1616,1.1616,1.1616,1.1616,1.1616,1.1616,1.1688,1.2888,1.5278,1.6666,1.898,2.1654,2.1737,2.1396,2.1162,2.1102,2.1102,2.1082,2.1049,2.0902,2.0675,2.0514,2.0241,1.9853,1.9746,1.9593,1.9444,1.9305,1.9272,1.9219,1.8978,1.8798,1.8671,1.847,1.8237,1.7889,1.7716,1.7595,1.7589,1.7589,1.7522,1.7375,1.7174,1.7018,1.6794,1.6673,1.662,1.6593,1.6553,1.6486,1.6549,1.6805,1.7471,1.8847,2.0097,2.1247,2.2444,2.357,2.401,2.4141,2.4095,2.4053,2.4043,2.4111,2.4062,2.4033,2.4007,2.4027,2.3978,2.35,2.3218,2.3159,2.3159,2.311,2.3149,2.3525,2.3613,2.3672,2.3848,2.4072,2.4082,2.4023,2.3965,2.3867,2.3867,2.3789,2.3711,2.374,2.3867,2.3887,2.3916,2.4121,2.4027,2.3906,2.3857,2.3975,2.418,2.4046,2.3832,2.3994,2.3984,2.4056,2.4124,2.4503,2.4906,2.5245,2.5625,1.1616,1.1616,1.1616,1.1616,1.1616,1.1616,1.1616,1.1616,1.1616,1.1616,1.1616,1.1616,1.1616,1.1616,1.1688,1.2606,1.4783,1.7308,1.9221,2.0718,2.1261,2.1523,2.1162,2.1102,2.1102,2.1102,2.1096,2.1002,2.0889,2.0735,2.0508,2.0201,1.9953,1.974,1.9553,1.9446,1.9417,1.9397,1.9225,1.9072,1.8911,1.8778,1.8457,1.8075,1.7822,1.7749,1.7602,1.7589,1.7589,1.7549,1.7487,1.734,1.7114,1.6987,1.6971,1.6907,1.676,1.6714,1.67,1.68,1.7563,1.9293,2.024,2.1583,2.284,2.4081,2.4322,2.4424,2.4404,2.4414,2.4424,2.4404,2.4424,2.4424,2.4424,2.4424,2.4346,2.4004,2.3695,2.3695,2.3744,2.3779,2.3857,2.3955,2.4033,2.4102,2.4131,2.4326,2.4287,2.4248,2.4287,2.4268,2.4316,2.4287,2.417,2.4219,2.4394,2.4394,2.4365,2.4687,2.4884,2.4678,2.4414,2.4512,2.4551,2.4394,2.4248,2.4414,2.4502,2.4414,2.4443,2.4609,2.4871,2.5334,2.5569,1.1616,1.1616,1.1616,1.1616,1.1616,1.1616,1.1616,1.1616,1.1616,1.1616,1.1616,1.1616,1.1616,1.1616,1.1616,1.2674,1.4924,1.7503,1.9227,1.9663,2.1285,2.1474,2.1229,2.1102,2.1102,2.1102,2.1102,2.1082,2.1022,2.0882,2.0722,2.0588,2.0214,1.9927,1.9773,1.9579,1.9491,1.9372,1.9397,1.9239,1.9065,1.8991,1.8731,1.8302,1.8002,1.7862,1.7722,1.7635,1.7589,1.7589,1.7589,1.7589,1.7528,1.7434,1.7266,1.7266,1.7021,1.6954,1.6947,1.7052,1.7874,2.0248,2.0759,2.1887,2.3607,2.4436,2.4709,2.4727,2.4746,2.4736,2.4629,2.4736,2.4707,2.4678,2.4648,2.4609,2.4563,2.4609,2.4534,2.4326,2.4199,2.416,2.4277,2.4394,2.4463,2.4475,2.4551,2.458,2.457,2.4609,2.4727,2.4824,2.4912,2.4951,2.4844,2.458,2.4766,2.4912,2.4863,2.5117,2.545,2.5235,2.498,2.4824,2.4785,2.4717,2.4736,2.4883,2.4873,2.4707,2.4824,2.5098,2.5312,2.5498,2.5586,1.1616,1.1616,1.1616,1.1616,1.1616,1.1616,1.1616,1.1616,1.1616,1.1616,1.1616,1.1616,1.1616,1.1616,1.1616,1.2674,1.4432,1.6806,1.8328,1.9224,2.0955,2.167,2.1203,2.1102,2.1102,2.1102,2.1102,2.1102,2.1102,2.1049,2.0895,2.0702,2.0548,2.0301,1.9953,1.9733,1.9586,1.9439,1.9444,1.9312,1.9272,1.9225,1.9085,1.8684,1.8282,1.8022,1.7923,1.7716,1.7589,1.7589,1.7589,1.7589,1.7575,1.7568,1.7541,1.7455,1.7402,1.7321,1.7335,1.744,1.8233,1.9617,2.0801,2.2119,2.3684,2.4802,2.5246,2.5352,2.5362,2.5411,2.5469,2.5333,2.5421,2.543,2.5372,2.542,2.5382,2.5323,2.5089,2.4717,2.456,2.4531,2.4707,2.4844,2.4922,2.5019,2.507,2.5128,2.5167,2.5235,2.5352,2.544,2.5518,2.5528,2.5508,2.5205,2.5098,2.5361,2.5352,2.5343,2.5596,2.5625,2.5479,2.5235,2.5235,2.5304,2.5333,2.5313,2.5294,2.5196,2.542,2.5605,2.5615,2.5625,2.5606,1.1616,1.1616,1.1616,1.1616,1.1616,1.1616,1.1616,1.1616,1.1616,1.1616,1.1616,1.1616,1.1616,1.1616,1.1616,1.2183,1.3381,1.6051,1.7341,1.8356,2.0466,2.1677,2.1162,2.1102,2.1102,2.1102,2.1102,2.1102,2.1102,2.1102,2.1022,2.0909,2.0768,2.0514,2.0227,1.994,1.976,1.9579,1.9511,1.9424,1.9424,1.9424,1.9205,1.8911,1.8595,1.8315,1.7989,1.7882,1.7736,1.7622,1.7589,1.7589,1.7595,1.7589,1.7589,1.7589,1.7589,1.7589,1.7589,1.7687,1.853,2.0471,2.1397,2.2717,2.4196,2.5343,2.5684,2.5684,2.5684,2.5684,2.5645,2.5684,2.5684,2.5684,2.5684,2.5684,2.5684,2.5684,2.5382,2.5031,2.5137,2.5118,2.5148,2.5312,2.5381,2.5498,2.5577,2.5635,2.5674,2.5684,2.5684,2.5674,2.5674,2.5674,2.5684,2.5547,2.5332,2.5586,2.5684,2.5684,2.5684,2.5674,2.5674,2.5567,2.5664,2.5684,2.5645,2.5508,2.5615,2.5684,2.5645,2.5625,2.5654,2.5684,2.5684,1.1616,1.1616,1.1616,1.1616,1.1616,1.1616,1.1616,1.1616,1.1616,1.1616,1.1616,1.1616,1.1616,1.1616,1.1616,1.1688,1.1903,1.5212,1.6367,1.7261,1.9669,2.1143,2.1179,2.1102,2.1102,2.1102,2.1102,2.1102,2.1102,2.1102,2.1102,2.1029,2.0842,2.0715,2.0555,2.0147,1.9933,1.972,1.9584,1.943,1.9424,1.941,1.9265,1.9018,1.8958,1.8615,1.8288,1.8122,1.8036,1.7862,1.7749,1.7689,1.7669,1.7615,1.7589,1.7589,1.7589,1.7589,1.7589,1.7635,1.8551,2.0582,2.1389,2.2968,2.451,2.5274,2.5684,2.5684,2.5684,2.5684,2.5684,2.5684,2.5684,2.5684,2.5684,2.5684,2.5684,2.5684,2.5684,2.5557,2.5684,2.5625,2.5499,2.5499,2.5566,2.5576,2.5635,2.5645,2.5684,2.5684,2.5684,2.5684,2.5684,2.5684,2.5684,2.5684,2.5596,2.5606,2.5684,2.5684,2.5684,2.5684,2.5684,2.5684,2.5684,2.5684,2.5684,2.5684,2.5684,2.5684,2.5684,2.5684,2.5684,2.5684,2.5684,1.1616,1.1616,1.1616,1.1616,1.1616,1.1616,1.1616,1.1616,1.1616,1.1616,1.1616,1.1616,1.1616,1.1616,1.1616,1.1616,1.2323,1.3855,1.5408,1.6355,1.8591,2.0276,2.0915,2.1109,2.1102,2.1102,2.1102,2.1102,2.1102,2.1102,2.1102,2.1076,2.1042,2.0942,2.0708,2.0368,2.0054,1.9806,1.9526,1.9424,1.9424,1.9424,1.939,1.9245,1.9078,1.8891,1.8711,1.8537,1.8377,1.8317,1.8049,1.7949,1.7902,1.7722,1.7615,1.7589,1.7589,1.7589,1.7589,1.7635,1.8199,1.9973,2.099,2.2357,2.4048,2.5226,2.5684,2.5684,2.5684,2.5684,2.5684,2.5684,2.5684,2.5703,2.5723,2.5723,2.5723,2.5684,2.5684,2.5684,2.5684,2.5684,2.5625,2.5654,2.5674,2.5674,2.5684,2.5684,2.5684,2.5684,2.5684,2.5684,2.5684,2.5684,2.5684,2.5684,2.5684,2.5684,2.5684,2.5684,2.5684,2.5684,2.5684,2.5684,2.5684,2.5684,2.5684,2.5684,2.5684,2.5684,2.5684,2.5684,2.5684,2.5684,2.5693,1.1616,1.1616,1.1616,1.1616,1.1616,1.1616,1.1616,1.1616,1.1616,1.1616,1.1616,1.1616,1.1616,1.1616,1.1616,1.1616,1.2043,1.3448,1.4435,1.5569,1.7626,1.934,1.9792,2.0583,2.1102,2.1102,2.1102,2.1102,2.1102,2.1102,2.1102,2.1102,2.1102,2.1062,2.0875,2.0621,2.0334,2.0013,1.9646,1.9444,1.9424,1.9424,1.9424,1.9424,1.9232,1.9098,1.8938,1.8831,1.8637,1.8531,1.8337,1.8203,1.8063,1.7896,1.7796,1.7589,1.7589,1.7589,1.7589,1.7589,1.8304,1.9524,2.0939,2.2617,2.4304,2.5274,2.5684,2.5684,2.5684,2.5693,2.5703,2.5684,2.5898,2.5967,2.5918,2.5966,2.5986,2.5723,2.5684,2.5684,2.5703,2.5742,2.5762,2.5762,2.5742,2.5684,2.5684,2.5684,2.5684,2.5684,2.5684,2.5684,2.5684,2.5684,2.5684,2.5684,2.5684,2.5684,2.5684,2.5684,2.5684,2.5684,2.5684,2.5684,2.5684,2.5684,2.5684,2.5684,2.5684,2.5684,2.5684,2.5684,2.5684,2.5723,2.5732,1.1616,1.1616,1.1616,1.1616,1.1616,1.1616,1.1616,1.1616,1.1616,1.1616,1.1616,1.1616,1.1616,1.1616,1.1616,1.1616,1.1688,1.3095,1.3644,1.4873,1.6659,1.8313,1.9175,2.0125,2.1102,2.1102,2.1102,2.1102,2.1102,2.1102,2.1102,2.1102,2.1102,2.1096,2.1029,2.0782,2.0461,2.0034,1.9693,1.9479,1.9386,1.9424,1.9424,1.9424,1.9397,1.9316,1.9078,1.9038,1.8898,1.8798,1.8644,1.8504,1.8343,1.8217,1.7969,1.7822,1.7749,1.7675,1.7629,1.7687,1.8199,1.9265,2.0939,2.2767,2.5118,2.5684,2.5684,2.5684,2.5684,2.5742,2.583,2.5918,2.6162,2.6299,2.6318,2.6377,2.6406,2.625,2.6094,2.6064,2.6055,2.5898,2.5908,2.5928,2.581,2.5713,2.5684,2.5684,2.5684,2.5684,2.5684,2.5684,2.5684,2.5684,2.5684,2.5684,2.5684,2.5703,2.5703,2.5703,2.5723,2.5703,2.5684,2.5684,2.5752,2.5684,2.5684,2.5684,2.5684,2.5684,2.5684,2.5684,2.5693,2.5752,2.5869,1.1616,1.1616,1.1616,1.1616,1.1616,1.1616,1.1616,1.1616,1.1616,1.1616,1.1616,1.1616,1.1616,1.1616,1.1616,1.1616,1.1616,1.176,1.2552,1.3928,1.5663,1.7124,1.83,1.9711,2.0976,2.1102,2.1102,2.1102,2.1102,2.1102,2.1102,2.1102,2.1102,2.1102,2.1022,2.0815,2.0461,2.0087,1.98,1.9606,1.9466,1.9444,1.9424,1.9424,1.9424,1.941,1.9332,1.9357,1.9316,1.9243,1.9005,1.8838,1.8698,1.8551,1.8317,1.809,1.8009,1.7916,1.7796,1.7688,1.774,1.8551,2.0231,2.2818,2.5323,2.5703,2.5703,2.5781,2.5879,2.6015,2.623,2.6387,2.6553,2.6738,2.6807,2.6807,2.6836,2.6807,2.665,2.6504,2.6406,2.6338,2.6279,2.6289,2.5957,2.5781,2.5684,2.5684,2.5684,2.5684,2.5684,2.5684,2.5684,2.5684,2.5684,2.5684,2.5684,2.5752,2.5801,2.5791,2.5781,2.5771,2.5976,2.5937,2.6084,2.5849,2.5762,2.5957,2.6015,2.5781,2.5693,2.5732,2.5918,2.6055,2.6201,1.1477,1.1487,1.1579,1.1616,1.1616,1.1616,1.1616,1.1616,1.1616,1.1616,1.1616,1.1616,1.1616,1.1616,1.1616,1.1616,1.1616,1.1616,1.1963,1.2642,1.3981,1.5601,1.7151,1.8729,1.9935,2.0843,2.1102,2.1102,2.1102,2.1102,2.1102,2.1102,2.1102,2.1102,2.1009,2.0855,2.0555,2.0314,2.0,1.9733,1.9653,1.9497,1.9424,1.9424,1.9424,1.9424,1.9417,1.9424,1.9424,1.9397,1.9239,1.9112,1.8921,1.8818,1.8617,1.837,1.8323,1.8237,1.8056,1.7969,1.8304,2.0076,2.1296,2.2902,2.5448,2.5927,2.6113,2.6211,2.6348,2.6543,2.6699,2.6797,2.6904,2.7187,2.7305,2.7275,2.7275,2.7256,2.709,2.6894,2.6836,2.6797,2.6748,2.6699,2.6279,2.584,2.5752,2.5713,2.5801,2.584,2.5888,2.5908,2.5918,2.5869,2.5869,2.5791,2.5713,2.584,2.6016,2.6074,2.6172,2.6484,2.6631,2.6533,2.6445,2.6426,2.6445,2.6514,2.6387,2.6035,2.5879,2.5869,2.6045,2.6318,2.6533,1.1352,1.1402,1.1504,1.1579,1.1616,1.1616,1.1616,1.1616,1.1616,1.1616,1.1616,1.1616,1.1616,1.1616,1.1616,1.1616,1.1616,1.1606,1.1514,1.2163,1.3262,1.4629,1.6221,1.7885,1.9594,2.0755,2.1102,2.1102,2.1102,2.1102,2.1102,2.1102,2.1102,2.1102,2.1062,2.0929,2.0762,2.0568,2.0341,1.992,1.982,1.9626,1.9484,1.9464,1.9424,1.9424,1.9424,1.9424,1.9424,1.9424,1.9383,1.9252,1.9138,1.9018,1.8891,1.8724,1.8611,1.8591,1.839,1.8374,1.9151,2.1294,2.1892,2.3531,2.5308,2.6396,2.6553,2.6592,2.6836,2.707,2.7148,2.7226,2.7402,2.7695,2.7705,2.7695,2.7725,2.7715,2.748,2.7266,2.7295,2.7373,2.6982,2.6904,2.6768,2.6435,2.6396,2.6357,2.6357,2.6367,2.6328,2.6318,2.6249,2.623,2.6152,2.624,2.6338,2.6396,2.6504,2.6533,2.668,2.6973,2.7041,2.6836,2.6816,2.6973,2.6943,2.6826,2.6582,2.6289,2.625,2.6279,2.6494,2.6787,2.6982,1.125,1.1385,1.1396,1.1484,1.1599,1.1616,1.1616,1.1616,1.1616,1.1616,1.1616,1.1616,1.1616,1.1616,1.1616,1.1616,1.1616,1.1613,1.1688,1.2273,1.3292,1.4801,1.6465,1.8069,1.9558,2.0698,2.1102,2.1102,2.1102,2.1102,2.1102,2.1102,2.1102,2.1102,2.1102,2.1096,2.0949,2.0722,2.0648,2.0301,2.0,1.982,1.9613,1.9492,1.9437,1.943,1.9424,1.9424,1.9424,1.9424,1.9424,1.9383,1.9357,1.9292,1.9165,1.8951,1.8918,1.8791,1.8551,1.849,1.9932,2.1993,2.2468,2.3835,2.6091,2.6992,2.7002,2.7021,2.7158,2.7334,2.749,2.7738,2.791,2.8018,2.8027,2.8037,2.8057,2.8057,2.7812,2.7685,2.79,2.7988,2.7422,2.707,2.7119,2.7041,2.7012,2.6953,2.6846,2.6758,2.667,2.6641,2.6611,2.6611,2.6602,2.6797,2.6904,2.6953,2.6973,2.7002,2.707,2.7246,2.7236,2.7109,2.7226,2.7432,2.7256,2.7051,2.7002,2.7002,2.6846,2.6875,2.707,2.7217,2.7383,1.105,1.1114,1.1307,1.1419,1.148,1.1575,1.1616,1.1616,1.1616,1.1616,1.1616,1.1616,1.1616,1.1616,1.1616,1.1616,1.1616,1.1688,1.1841,1.3424,1.3945,1.5928,1.7521,1.8636,1.969,2.0724,2.1102,2.1102,2.1102,2.1102,2.1102,2.1102,2.1102,2.1102,2.1102,2.1102,2.1029,2.0935,2.0782,2.0555,2.0347,2.0027,1.9766,1.9646,1.9479,1.945,1.943,1.9424,1.9424,1.9424,1.9424,1.9424,1.9424,1.9424,1.9377,1.9212,1.9212,1.9192,1.9092,1.9266,2.0221,2.1798,2.2921,2.4105,2.649,2.7263,2.7402,2.751,2.7646,2.7842,2.8057,2.8076,2.8203,2.8203,2.8213,2.8213,2.8232,2.8232,2.8135,2.8105,2.8223,2.8232,2.7871,2.7607,2.7578,2.749,2.7432,2.7217,2.707,2.6992,2.6914,2.6904,2.6894,2.6943,2.7031,2.7217,2.7246,2.7207,2.7324,2.7493,2.7519,2.7598,2.7715,2.7734,2.7812,2.7861,2.7715,2.7637,2.7803,2.7812,2.75,2.7344,2.7471,2.7578,2.7685,1.0833,1.09,1.1155,1.1267,1.1338,1.1531,1.1616,1.1616,1.1616,1.1616,1.1616,1.1616,1.1616,1.1616,1.1616,1.1616,1.1616,1.1616,1.2606,1.4206,1.4314,1.6299,1.8166,1.9292,1.9906,2.077,2.1102,2.1102,2.1102,2.1102,2.1102,2.1102,2.1102,2.1102,2.1102,2.1102,2.1096,2.1029,2.0909,2.0775,2.0575,2.0321,2.002,1.9813,1.9633,1.9551,1.9464,1.9424,1.9424,1.9424,1.9424,1.9424,1.9424,1.9424,1.9424,1.9424,1.9424,1.9417,1.939,1.9383,2.038,2.2002,2.264,2.425,2.6336,2.7367,2.7789,2.7978,2.8164,2.8223,2.8271,2.8301,2.8301,2.8301,2.8301,2.8301,2.8291,2.8291,2.8291,2.8291,2.8291,2.8291,2.8301,2.8252,2.8115,2.7969,2.7822,2.7588,2.7383,2.7363,2.7344,2.7353,2.7402,2.751,2.7568,2.7627,2.7607,2.749,2.7617,2.7855,2.791,2.7978,2.8174,2.8291,2.8174,2.8105,2.8203,2.8242,2.8174,2.8076,2.7881,2.7812,2.7871,2.792,2.7969,1.0742,1.0863,1.088,1.1036,1.1196,1.1453,1.1589,1.1616,1.1616,1.1616,1.1616,1.1616,1.1616,1.1616,1.1616,1.1616,1.1828,1.1828,1.3238,1.4503,1.537,1.7337,1.8738,1.9633,2.0318,2.0809,2.1102,2.1102,2.1102,2.1102,2.1102,2.1102,2.1102,2.1102,2.1102,2.1102,2.1102,2.1076,2.1049,2.0922,2.0755,2.0635,2.0281,2.0013,1.978,1.9586,1.9524,1.9424,1.9424,1.9424,1.9424,1.9424,1.9424,1.9424,1.9424,1.9424,1.9424,1.9424,1.9424,1.9424,1.991,2.1357,2.2919,2.4446,2.5964,2.734,2.8028,2.8164,2.8262,2.8271,2.8301,2.8301,2.8301,2.8301,2.8301,2.8301,2.8301,2.8291,2.8291,2.8291,2.8291,2.8301,2.8301,2.8301,2.8301,2.8213,2.8076,2.8057,2.791,2.7959,2.7949,2.7969,2.8037,2.8144,2.8154,2.7998,2.7969,2.7851,2.7969,2.8135,2.8232,2.8242,2.8271,2.8301,2.8301,2.8301,2.8301,2.8301,2.8281,2.8174,2.8076,2.8086,2.8086,2.8135,2.8184,1.0681,1.0795,1.0836,1.0907,1.1036,1.1216,1.1416,1.1603,1.1616,1.1616,1.1616,1.1616,1.1586,1.1616,1.1616,1.1609,1.2101,1.3095,1.4787,1.6037,1.7237,1.9334,2.0526,2.097,2.1195,2.1027,2.1102,2.1102,2.1102,2.1102,2.1102,2.1102,2.1102,2.1102,2.1102,2.1102,2.1102,2.1102,2.1102,2.1036,2.0922,2.0795,2.0461,2.0167,1.9913,1.9693,1.9511,1.943,1.9424,1.9424,1.9424,1.9424,1.9424,1.9424,1.9424,1.9424,1.9424,1.9424,1.9424,1.9424,1.9649,2.0594,2.2322,2.4378,2.5927,2.7114,2.8067,2.8301,2.8301,2.8301,2.8301,2.8301,2.8301,2.8301,2.8301,2.8301,2.8301,2.8301,2.8301,2.8301,2.8301,2.8301,2.8301,2.8301,2.8301,2.8301,2.8301,2.8301,2.8301,2.8301,2.8301,2.8301,2.8301,2.8301,2.8301,2.8174,2.8223,2.8262,2.8301,2.8301,2.8281,2.8271,2.8291,2.8301,2.8301,2.8301,2.8301,2.8301,2.8301,2.8301,2.8223,2.8262,2.8301,2.8301,2.8301,1.0721,1.0734,1.0816,1.0823,1.089,1.1043,1.1219,1.1413,1.1436,1.144,1.144,1.143,1.144,1.1426,1.1423,1.1493,1.1561,1.3208,1.4936,1.6802,1.9021,2.0276,2.1325,2.179,2.1452,2.1243,2.1102,2.1102,2.1102,2.1102,2.1102,2.1102,2.1102,2.1102,2.1102,2.1102,2.1102,2.1102,2.1102,2.1102,2.1029,2.0915,2.0641,2.0287,2.0034,1.9773,1.9491,1.9444,1.9424,1.9424,1.9424,1.9424,1.9424,1.9424,1.9424,1.9424,1.9424,1.9424,1.9424,1.9424,1.9424,1.9982,2.1544,2.2927,2.4875,2.6327,2.7511,2.8301,2.8301,2.8301,2.8301,2.8301,2.8301,2.8301,2.8301,2.8301,2.8301,2.8301,2.8301,2.8301,2.8301,2.8301,2.8301,2.8301,2.8301,2.8301,2.8301,2.8301,2.8301,2.8301,2.8301,2.8301,2.8301,2.8301,2.8301,2.8301,2.8301,2.8301,2.8301,2.8301,2.8301,2.8301,2.8301,2.8301,2.8301,2.8301,2.8301,2.8301,2.8301,2.8301,2.8301,2.8301,2.8301,2.8301,2.8301,1.0721,1.0721,1.0721,1.0802,1.085,1.0863,1.1009,1.1121,1.1197,1.1148,1.1172,1.1244,1.1199,1.1233,1.1233,1.1223,1.1989,1.349,1.527,1.6798,1.9125,2.0639,2.1378,2.1608,2.1416,2.1216,2.1102,2.1102,2.1102,2.1102,2.1102,2.1102,2.1102,2.1102,2.1102,2.1102,2.1102,2.1102,2.1102,2.1102,2.1102,2.1022,2.0855,2.0388,2.0174,1.9987,1.9566,1.945,1.9424,1.9424,1.9424,1.9424,1.9424,1.9424,1.9424,1.9424,1.9424,1.9424,1.9424,1.9424,1.9424,1.9866,2.0752,2.1756,2.3479,2.527,2.6499,2.7501,2.7511,2.796,2.8067,2.8237,2.8301,2.8301,2.8301,2.8301,2.8301,2.8301,2.8301,2.8301,2.8301,2.8301,2.8301,2.8301,2.8301,2.8301,2.8301,2.8301,2.8301,2.8301,2.8301,2.8301,2.8301,2.8301,2.8301,2.8301,2.8301,2.8301,2.8301,2.8301,2.8301,2.8301,2.8301,2.8301,2.8301,2.8301,2.8301,2.8301,2.8301,2.8301,2.8301,2.8301,2.8301,2.8301,2.8301,1.0721,1.0721,1.0721,1.0748,1.0772,1.0775,1.0795,1.0826,1.0826,1.0958,1.1128,1.122,1.1217,1.1124,1.1124,1.1124,1.1743,1.3798,1.5827,1.7285,1.9223,2.026,2.1382,2.1219,2.1292,2.1196,2.1102,2.1102,2.1102,2.1102,2.1102,2.1102,2.1102,2.1102,2.1102,2.1102,2.1102,2.1102,2.1102,2.1102,2.1102,2.1069,2.0915,2.0581,2.0368,2.0107,1.974,1.9544,1.9477,1.9424,1.9424,1.9424,1.9424,1.9424,1.9424,1.9424,1.9424,1.9424,1.9424,1.9424,1.9424,1.9815,2.0537,2.1252,2.2363,2.398,2.5215,2.6045,2.6888,2.7447,2.7897,2.8067,2.8301,2.8301,2.8301,2.8301,2.8301,2.8301,2.8301,2.8301,2.8301,2.8301,2.8301,2.8301,2.8301,2.8301,2.8301,2.8301,2.8301,2.8301,2.8301,2.8301,2.8301,2.8301,2.8301,2.8301,2.8301,2.8301,2.8301,2.8301,2.8301,2.8301,2.8301,2.8301,2.8301,2.8301,2.8301,2.8301,2.8301,2.8301,2.8301,2.8301,2.8301,2.8301,2.8301,1.0721,1.0721,1.0721,1.0721,1.0721,1.0721,1.0721,1.0721,1.0721,1.0809,1.0948,1.0965,1.0968,1.0968,1.0965,1.0982,1.1514,1.3759,1.4592,1.6002,1.7901,1.9167,1.9884,2.0252,2.0803,2.0799,2.1039,2.1102,2.1102,2.1102,2.1102,2.1102,2.1102,2.1102,2.1102,2.1102,2.1102,2.1102,2.1102,2.1102,2.1102,2.1076,2.0955,2.0688,2.0494,2.0247,2.0,1.9733,1.9606,1.9558,1.9511,1.9437,1.9424,1.9424,1.9424,1.9424,1.9424,1.9424,1.9424,1.9424,1.9424,1.9815,1.9924,2.0479,2.0422,2.1934,2.3151,2.4156,2.6045,2.6771,2.7222,2.7501,2.8067,2.8301,2.8301,2.8301,2.8301,2.8301,2.8301,2.8301,2.8301,2.8301,2.8301,2.8301,2.8301,2.8301,2.8301,2.8301,2.8301,2.8301,2.8301,2.8301,2.8301,2.8301,2.8301,2.8301,2.8301,2.8301,2.8301,2.8301,2.8301,2.8301,2.8301,2.8301,2.8301,2.8301,2.8301,2.8301,2.8301,2.8301,2.8301,2.8301,2.8301,2.8301,2.8301,1.0721,1.0721,1.0721,1.0721,1.0721,1.0721,1.0721,1.0721,1.0721,1.0721,1.0744,1.0744,1.0721,1.0721,1.0721,1.0721,1.1394,1.3091,1.3441,1.4019,1.5513,1.7098,1.8003,1.8273,1.917,2.0208,2.0843,2.0976,2.1102,2.1102,2.1102,2.1102,2.1102,2.1102,2.1102,2.1102,2.1102,2.1102,2.1102,2.1102,2.1102,2.1102,2.0962,2.0822,2.0675,2.0535,2.0274,2.0047,1.9887,1.9753,1.9619,1.9519,1.9491,1.9477,1.9424,1.9424,1.9424,1.9424,1.9424,1.9424,1.9424,1.9482,1.9424,1.9424,1.9482,2.009,2.1373,2.2597,2.4488,2.5982,2.6436,2.7276,2.7897,2.8301,2.8301,2.8301,2.8301,2.8301,2.8301,2.8301,2.8301,2.8301,2.8301,2.8301,2.8301,2.8301,2.8301,2.8301,2.8301,2.8301,2.8301,2.8301,2.8301,2.8301,2.8301,2.8301,2.8301,2.8301,2.8301,2.8301,2.8301,2.8301,2.8301,2.8301,2.8301,2.8301,2.8301,2.8301,2.8301,2.8301,2.8301,2.8301,2.8301,2.8301,2.8301,1.0721,1.0721,1.0721,1.0721,1.0721,1.0721,1.0721,1.0721,1.0721,1.0721,1.0721,1.0721,1.0721,1.0721,1.0721,1.0717,1.0979,1.2347,1.3062,1.3652,1.4488,1.5589,1.656,1.7146,1.7667,1.9024,2.0519,2.1039,2.1102,2.1102,2.1102,2.1102,2.1102,2.1102,2.1102,2.1102,2.1102,2.1102,2.1102,2.1102,2.1102,2.1102,2.1096,2.0955,2.0795,2.0688,2.0514,2.0294,2.0187,2.006,1.988,1.9753,1.9626,1.9512,1.9484,1.9424,1.9424,1.9424,1.9424,1.9424,1.9424,1.9424,1.9424,1.9424,1.9424,1.9482,2.0321,2.0658,2.2548,2.471,2.5663,2.7168,2.8014,2.8184,2.8301,2.8301,2.8301,2.8301,2.8301,2.8301,2.8301,2.8301,2.8301,2.8301,2.8301,2.8301,2.8301,2.8301,2.8301,2.8301,2.8301,2.8301,2.8301,2.8301,2.8301,2.8301,2.8301,2.8301,2.8301,2.8301,2.8301,2.8301,2.8301,2.8301,2.8301,2.8301,2.8301,2.8301,2.8301,2.8301,2.8301,2.8301,2.8301,2.8369,2.8428]}]]